[[{"header":{"parameterUnit":"m.s-1","parameterCategory":1,"la1":30.6,"la2":28.766,"lo1":-90.7593,"lo2":-88.6598,"dy":0.0162,"dx":0.0183,"nx":116,"ny":114,"refTime":"2023-05-20T00:00:00:Z","depth":0,"parameterNumber":2,"parameterNumberName":"U-component_of_WINDS"},"data":[0.0,0.0,0.0,0.0,0.0,0.0,0.0,0.0,0.0,0.0,0.0,0.0,0.0,0.0,0.0,0.0,0.0,0.0,0.0,0.0,0.0,0.0,0.0,0.0,0.0,0.0,0.0,0.0,0.0,0.0,0.0,0.0,0.0,0.0,0.0,0.0,0.0,0.0,0.0,0.0,0.0,0.0,0.0,0.0,0.0,0.0,0.0,0.0,0.0,0.0,0.0,0.0,0.0,0.0,0.0,0.0,0.0,0.0,0.0,0.0,0.0,0.0,0.0,0.0,0.0,0.0,0.0,0.0,0.0,0.0,0.0,0.0,0.0,0.0,0.0,0.0,0.0,0.0,0.0,0.0,0.0,0.0,0.0,0.0,0.0,0.0,0.0,0.0,0.0,0.0,0.0,0.0,0.0,0.0,0.0,0.0,0.0,0.0,0.0,0.0,0.0,0.0,0.0,0.0,0.0,0.0,0.0,0.0,0.0,0.0,0.0,0.0,0.0,0.0,0.0,0.0,0.0,0.0,0.0,0.0,0.0,0.0,0.0,0.0,0.0,0.0,0.0,0.0,0.0,0.0,0.0,0.0,0.0,0.0,0.0,0.0,0.0,0.0,0.0,0.0,0.0,0.0,0.0,0.0,0.0,0.0,0.0,0.0,0.0,0.0,0.0,0.0,0.0,0.0,0.0,0.0,0.0,0.0,0.0,0.0,0.0,0.0,0.0,0.0,0.0,0.0,0.0,0.0,0.0,0.0,0.0,0.0,0.0,0.0,0.0,0.0,0.0,0.0,0.0,0.0,0.0,0.0,0.0,0.0,0.0,0.0,0.0,0.0,0.0,0.0,0.0,0.0,0.0,0.0,0.0,0.0,0.0,0.0,0.0,0.0,0.0,0.0,0.0,0.0,0.0,0.0,0.0,0.0,0.0,0.0,0.0,0.0,0.0,0.0,0.0,0.0,0.0,0.0,0.0,0.0,0.0,0.0,0.0,0.0,0.0,0.0,0.0,0.0,0.0,0.0,0.0,0.0,0.0,0.0,0.0,0.0,0.0,0.0,0.0,0.0,0.0,0.0,0.0,0.0,0.0,0.0,0.0,0.0,0.0,0.0,0.0,0.0,0.0,0.0,0.0,0.0,0.0,0.0,0.0,0.0,0.0,0.0,0.0,0.0,0.0,0.0,0.0,0.0,0.0,0.0,0.0,0.0,0.0,0.0,0.0,0.0,0.0,0.0,0.0,0.0,0.0,0.0,0.0,0.0,0.0,0.0,0.0,0.0,0.0,0.0,0.0,0.0,0.0,0.0,0.0,0.0,0.0,0.0,0.0,0.0,0.0,0.0,0.0,0.0,0.0,0.0,0.0,0.0,0.0,0.0,0.0,0.0,0.0,0.0,0.0,0.0,0.0,0.0,0.0,0.0,0.0,0.0,0.0,0.0,0.0,0.0,0.0,0.0,0.0,0.0,0.0,0.0,0.0,0.0,0.0,0.0,0.0,0.0,0.0,0.0,0.0,0.0,0.0,0.0,0.0,0.0,0.0,0.0,0.0,0.0,0.0,0.0,0.0,0.0,0.0,0.0,0.0,0.0,0.0,0.0,0.0,0.0,0.0,0.0,0.0,0.0,0.0,0.0,0.0,0.0,0.0,0.0,0.0,0.0,0.0,0.0,0.0,0.0,0.0,0.0,0.0,0.0,0.0,0.0,0.0,0.0,0.0,0.0,0.0,0.0,0.0,0.0,0.0,0.0,0.0,0.0,0.0,0.0,0.0,0.0,0.0,0.0,0.0,0.0,0.0,0.0,0.0,0.0,0.0,0.0,0.0,0.0,0.0,0.0,0.0,0.0,0.0,0.0,0.0,0.0,0.0,0.0,0.0,0.0,0.0,0.0,0.0,0.0,0.0,0.0,0.0,0.0,0.0,0.0,0.0,0.0,0.0,0.0,0.0,0.0,0.0,0.0,0.0,0.0,0.0,0.0,0.0,0.0,0.0,0.0,0.0,0.0,0.0,0.0,0.0,0.0,0.0,0.0,0.0,0.0,0.0,0.0,0.0,0.0,0.0,0.0,0.0,0.0,0.0,0.0,0.0,0.0,0.0,0.0,0.0,0.0,0.0,0.0,0.0,0.0,0.0,0.0,0.0,0.0,0.0,0.0,0.0,0.0,0.0,0.0,0.0,0.0,0.0,0.0,0.0,0.0,0.0,0.0,0.0,0.0,0.0,0.0,0.0,0.0,0.0,0.0,0.0,0.0,0.0,0.0,0.0,0.0,0.0,0.0,0.0,0.0,0.0,0.0,0.0,0.0,0.0,0.0,0.0,0.0,0.0,0.0,0.0,0.0,0.0,0.0,0.0,0.0,0.0,0.0,0.0,0.0,0.0,0.0,0.0,0.0,0.0,0.0,0.0,0.0,0.0,0.0,0.0,0.0,0.0,0.0,0.0,0.0,0.0,0.0,0.0,0.0,0.0,0.0,0.0,0.0,0.0,0.0,0.0,0.0,0.0,0.0,0.0,0.0,0.0,0.0,0.0,0.0,0.0,0.0,0.0,0.0,0.0,0.0,0.0,0.0,0.0,0.0,0.0,0.0,0.0,0.0,0.0,0.0,0.0,0.0,0.0,0.0,0.0,0.0,0.0,0.0,0.0,0.0,0.0,0.0,0.0,0.0,0.0,0.0,0.0,0.0,0.0,0.0,0.0,0.0,0.0,0.0,0.0,0.0,0.0,0.0,0.0,0.0,0.0,0.0,0.0,0.0,0.0,0.0,0.0,0.0,0.0,0.0,0.0,0.0,0.0,0.0,0.0,0.0,0.0,0.0,0.0,0.0,0.0,0.0,0.0,0.0,0.0,0.0,0.0,0.0,0.0,0.0,0.0,0.0,0.0,0.0,0.0,0.0,0.0,0.0,0.0,0.0,0.0,0.0,0.0,0.0,0.0,0.0,0.0,0.0,0.0,0.0,0.0,0.0,0.0,0.0,0.0,0.0,0.0,0.0,0.0,0.0,0.0,0.0,0.0,0.0,0.0,0.0,0.0,0.0,0.0,0.0,0.0,0.0,0.0,0.0,0.0,0.0,0.0,0.0,0.0,0.0,0.0,0.0,0.0,0.0,0.0,0.0,0.0,0.0,0.0,0.0,0.0,0.0,0.0,0.0,0.0,0.0,0.0,0.0,0.0,0.0,0.0,0.0,0.0,0.0,0.0,0.0,0.0,0.0,0.0,0.0,0.0,0.0,0.0,0.0,0.0,0.0,0.0,0.0,0.0,0.0,0.0,0.0,0.0,0.0,0.0,0.0,0.0,0.0,0.0,0.0,0.0,0.0,0.0,0.0,0.0,0.0,0.0,0.0,0.0,0.0,0.0,0.0,0.0,0.0,0.0,0.0,0.0,0.0,0.0,0.0,0.0,0.0,0.0,0.0,0.0,0.0,0.0,0.0,0.0,0.0,0.0,0.0,0.0,0.0,0.0,0.0,0.0,0.0,0.0,0.0,0.0,0.0,0.0,0.0,0.0,0.0,0.0,0.0,0.0,0.0,0.0,0.0,0.0,0.0,0.0,0.0,0.0,0.0,0.0,0.0,0.0,0.0,0.0,0.0,0.0,0.0,0.0,0.0,0.0,0.0,0.0,0.0,0.0,0.0,0.0,0.0,0.0,0.0,0.0,0.0,0.0,0.0,0.0,0.0,0.0,0.0,0.0,0.0,0.0,0.0,0.0,0.0,0.0,0.0,0.0,0.0,0.0,0.0,0.0,0.0,0.0,0.0,0.0,0.0,0.0,0.0,0.0,0.0,0.0,0.0,0.0,0.0,0.0,0.0,0.0,0.0,0.0,0.0,0.0,0.0,0.0,0.0,0.0,0.0,0.0,0.0,0.0,0.0,0.0,0.0,0.0,0.0,0.0,0.0,0.0,0.0,0.0,0.0,0.0,0.0,0.0,0.0,0.0,0.0,0.0,0.0,0.0,0.0,0.0,0.0,0.0,0.0,0.0,0.0,0.0,0.0,0.0,0.0,0.0,0.0,0.0,0.0,0.0,0.0,0.0,0.0,0.0,0.0,0.0,0.0,0.0,0.0,0.0,0.0,0.0,0.0,0.0,0.0,0.0,0.0,0.0,0.0,0.0,0.0,0.0,0.0,0.0,0.0,0.0,0.0,0.0,0.0,0.0,0.0,0.0,0.0,0.0,0.0,0.0,0.0,0.0,0.0,0.0,0.0,0.0,0.0,0.0,0.0,0.0,0.0,0.0,0.0,0.0,0.0,0.0,0.0,0.0,0.0,0.0,0.0,0.0,0.0,0.0,0.0,0.0,0.0,0.0,0.0,0.0,0.0,0.0,0.0,0.0,0.0,0.0,0.0,0.0,0.0,0.0,0.0,0.0,0.0,0.0,0.0,0.0,0.0,0.0,0.0,0.0,0.0,0.0,0.0,0.0,0.0,0.0,0.0,0.0,0.0,0.0,0.0,0.0,0.0,0.0,0.0,0.0,0.0,0.0,0.0,0.0,0.0,0.0,0.0,0.0,0.0,0.0,0.0,0.0,0.0,0.0,0.0,0.0,0.0,0.0,0.0,0.0,0.0,0.0,0.0,0.0,0.0,0.0,0.0,0.0,0.0,0.0,0.0,0.0,0.0,0.0,0.0,0.0,0.0,0.0,0.0,0.0,0.0,0.0,0.0,0.0,0.0,0.0,0.0,0.0,0.0,0.0,0.0,0.0,0.0,0.0,0.0,0.0,0.0,0.0,0.0,0.0,0.0,0.0,0.0,0.0,0.0,0.0,0.0,0.0,0.0,0.0,0.0,0.0,0.0,0.0,0.0,0.0,0.0,0.0,0.0,0.0,0.0,0.0,0.0,0.0,0.0,0.0,0.0,0.0,0.0,0.0,0.0,0.0,0.0,0.0,0.0,0.0,0.0,0.0,0.0,0.0,0.0,0.0,0.0,0.0,0.0,0.0,0.0,0.0,0.0,0.0,0.0,0.0,0.0,0.0,0.0,0.0,0.0,0.0,0.0,0.0,0.0,0.0,0.0,0.0,0.0,0.0,0.0,0.0,0.0,0.0,0.0,0.0,0.0,0.0,0.0,0.0,0.0,0.0,0.0,0.0,0.0,0.0,0.0,0.0,0.0,0.0,0.0,0.0,0.0,0.0,0.0,0.0,0.0,0.0,0.0,0.0,0.0,0.0,0.0,0.0,0.0,0.0,0.0,0.0,0.0,0.0,0.0,0.0,0.0,0.0,0.0,0.0,0.0,0.0,0.0,0.0,0.0,0.0,0.0,0.0,0.0,0.0,0.0,0.0,0.0,0.0,0.0,0.0,0.0,0.0,0.0,0.0,0.0,0.0,0.0,0.0,0.0,0.0,0.0,0.0,0.0,0.0,0.0,0.0,0.0,0.0,0.0,0.0,0.0,0.0,0.0,0.0,0.0,0.0,0.0,0.0,0.0,0.0,0.0,0.0,0.0,0.0,0.0,0.0,0.0,0.0,0.0,0.0,0.0,0.0,0.0,0.0,0.0,0.0,0.0,0.0,0.0,0.0,0.0,0.0,0.0,0.0,0.0,0.0,0.0,0.0,0.0,0.0,0.0,0.0,0.0,0.0,0.0,0.0,0.0,0.0,0.0,0.0,0.0,0.0,0.0,0.0,0.0,0.0,0.0,0.0,0.0,0.0,0.0,0.0,0.0,0.0,0.0,0.0,0.0,0.0,0.0,0.0,0.0,0.0,0.0,0.0,0.0,0.0,0.0,0.0,0.0,0.0,0.0,0.0,0.0,0.0,0.0,0.0,0.0,0.0,0.0,0.0,0.0,0.0,0.0,0.0,0.0,0.0,0.0,0.0,0.0,0.0,0.0,0.0,0.0,0.0,0.0,0.0,0.0,0.0,0.0,0.0,0.0,0.0,0.0,0.0,0.0,0.0,0.0,0.0,0.0,0.0,0.0,0.0,0.0,0.0,0.0,0.0,0.0,0.0,0.0,0.0,0.0,0.0,0.0,0.0,0.0,0.0,0.0,0.0,0.0,0.0,0.0,0.0,0.0,0.0,0.0,0.0,0.0,0.0,0.0,0.0,0.0,0.0,0.0,0.0,0.0,0.0,0.0,0.0,0.0,-2.1111,-2.0204,0.0,0.0,0.0,0.0,0.0,0.0,0.0,0.0,0.0,0.0,0.0,0.0,0.0,0.0,0.0,0.0,0.0,0.0,0.0,0.0,0.0,0.0,0.0,0.0,0.0,0.0,0.0,0.0,0.0,0.0,0.0,0.0,0.0,0.0,0.0,0.0,0.0,0.0,0.0,0.0,0.0,0.0,0.0,0.0,0.0,0.0,0.0,0.0,0.0,0.0,0.0,0.0,0.0,0.0,0.0,0.0,0.0,0.0,0.0,0.0,0.0,0.0,0.0,0.0,0.0,0.0,0.0,0.0,0.0,0.0,0.0,0.0,0.0,0.0,0.0,0.0,0.0,0.0,0.0,0.0,0.0,0.0,0.0,0.0,0.0,0.0,0.0,0.0,0.0,0.0,0.0,0.0,0.0,0.0,0.0,0.0,0.0,0.0,0.0,0.0,0.0,0.0,0.0,0.0,0.0,0.0,0.0,0.0,0.0,0.0,0.0,0.0,0.0,0.0,-2.2559,-2.1559,0.0,0.0,0.0,0.0,0.0,0.0,0.0,0.0,0.0,0.0,0.0,0.0,0.0,0.0,0.0,0.0,0.0,0.0,0.0,0.0,0.0,0.0,0.0,0.0,0.0,0.0,0.0,0.0,0.0,0.0,0.0,0.0,0.0,0.0,0.0,0.0,0.0,0.0,0.0,0.0,0.0,0.0,0.0,0.0,0.0,0.0,0.0,0.0,0.0,0.0,0.0,0.0,0.0,0.0,0.0,0.0,0.0,0.0,0.0,0.0,0.0,0.0,0.0,0.0,0.0,0.0,0.0,0.0,0.0,0.0,0.0,0.0,0.0,0.0,0.0,0.0,0.0,0.0,0.0,0.0,0.0,0.0,0.0,0.0,0.0,0.0,0.0,0.0,0.0,0.0,0.0,0.0,0.0,0.0,0.0,0.0,0.0,0.0,0.0,0.0,0.0,0.0,0.0,0.0,0.0,0.0,0.0,0.0,-2.4467,-2.5014,-2.5567,-2.5412,-2.5306,-2.5047,-2.334,-2.2501,-2.2201,-2.0895,0.0,0.0,0.0,0.0,0.0,0.0,0.0,0.0,0.0,0.0,0.0,0.0,0.0,0.0,0.0,0.0,0.0,0.0,0.0,0.0,0.0,0.0,0.7456,0.6804,0.6637,0.6308,0.0,0.0,0.0,0.0,0.0,0.0,0.0,0.0,0.0,0.0,0.0,0.0,-1.1787,-1.3614,-1.4424,-1.4425,-1.3275,0.0,0.0,0.0,0.0,0.0,0.0,0.0,0.0,0.0,0.0,0.0,0.0,0.0,0.0,0.0,0.0,0.0,0.0,0.0,0.0,0.0,0.0,0.0,0.0,0.0,0.0,0.0,0.0,0.0,0.0,0.0,0.0,0.0,0.0,0.0,0.0,0.0,0.0,0.0,0.0,0.0,0.0,0.0,-0.7751,-0.8346,0.0,0.0,0.0,0.0,0.0,0.0,0.0,0.0,0.0,0.0,0.0,0.0,0.0,-2.2221,-2.2965,-2.5378,-2.635,-2.5923,-2.7147,-2.7806,-2.7837,-2.7055,-2.638,-2.5794,-2.5495,0.0,-2.3184,-2.351,0.0,0.0,0.0,0.0,0.0,0.0,0.0,0.0,0.0,0.0,0.0,0.0,0.0,0.0,0.0,0.0,0.0,0.0,0.0,0.0,0.0,0.7235,0.7085,0.6569,0.6401,0.5664,0.0,0.0,0.0,0.0,0.0,0.0,0.0,0.0,0.0,0.0,-0.8252,-1.2068,-1.5053,-1.65,-1.7296,-1.735,-1.6591,-1.5434,-1.399,-1.2593,0.0,0.0,0.0,0.0,0.0,0.0,0.0,0.0,0.0,0.0,0.0,0.0,0.0,0.0,0.0,0.0,0.0,0.0,0.0,0.0,0.0,0.0,0.0,0.0,0.0,0.0,0.0,0.0,0.0,0.0,0.0,0.0,0.0,0.0,0.0,0.0,0.0,0.0,0.0,-0.6846,-0.9978,-1.0507,-1.2588,-1.3546,0.0,0.0,0.0,0.0,0.0,0.0,0.0,0.0,0.0,-2.3826,-2.4281,-2.4812,-2.545,-2.6552,-2.7173,-2.7286,-2.7863,-2.8306,-2.8643,-2.7767,-2.72,-2.688,-2.6052,-2.514,-2.4093,-2.3756,-2.3391,-2.3001,0.0,0.0,0.0,0.0,-2.1968,-2.1707,0.0,0.0,0.0,0.0,0.0,0.0,0.0,0.0,0.0,0.0,0.0,0.0,0.6858,0.6807,0.6459,0.5524,0.5068,0.4048,0.2252,0.0,0.0,0.0,0.0,0.0,0.0,0.0,0.0,-0.8242,-1.1711,-1.4849,-1.7627,-1.8505,-1.8848,-1.8685,-1.8205,-1.7097,-1.5473,-1.4308,-1.2854,0.0,0.0,0.0,0.0,0.0,0.0,0.0,0.0,0.0,0.0,0.0,0.0,0.0,0.0,0.0,0.0,0.0,0.0,0.0,0.0,0.0,0.0,0.0,0.0,0.0,0.0,0.0,0.0,0.0,0.0,0.0,0.0,0.0,0.0,0.0,0.0,0.0,0.0,-0.9923,-1.2935,-1.324,-1.6035,-1.7338,0.0,0.0,0.0,0.0,0.0,0.0,-2.3367,-2.3923,-2.4885,-2.6386,-2.647,-2.6706,-2.7033,-2.7349,-2.7583,-2.7809,-2.7878,-2.8198,-2.862,-2.7802,-2.7339,-2.7103,-2.6029,-2.5222,-2.4544,-2.3703,-2.3475,-2.3622,-2.3541,-2.3487,-2.3514,-2.3617,-2.3339,-2.2887,0.0,0.0,0.0,0.0,0.0,0.0,0.0,0.0,0.0,0.0,0.0,0.6853,0.6642,0.6575,0.5465,0.2834,0.1736,0.0754,-0.0175,-0.0,0.0391,0.0,0.0,0.0,0.0,0.0,0.0,-1.1075,-1.4247,-1.6863,-1.8884,-1.8778,-1.8691,-1.8685,-1.7704,-1.7071,-1.6722,-1.5037,-1.3802,-1.274,0.0,0.0,0.0,0.0,0.0,0.0,0.0,0.0,0.0,0.0,0.0,0.0,0.0,0.0,0.0,0.0,0.0,0.0,0.0,0.0,0.0,0.0,0.0,0.0,0.0,0.0,0.0,0.0,0.0,0.0,0.0,0.0,0.0,0.0,0.0,0.0,0.0,0.0,0.0,-1.7027,-1.9866,0.0,0.0,0.0,0.0,-2.1726,-2.2782,-2.3975,-2.5204,-2.5612,-2.6404,-2.7878,-2.7905,-2.7657,-2.7193,-2.8339,-2.8339,-2.7248,-2.7541,-2.771,-2.7736,-2.6905,-2.6219,-2.5703,-2.5611,-2.5008,-2.4042,-2.3979,-2.409,-2.4239,-2.4271,-2.4257,-2.4191,-2.3609,-2.3256,-2.3034,0.0,0.0,0.0,0.0,0.0,0.0,0.0,0.0,0.0,0.6977,0.6756,0.6484,0.623,0.5927,0.4779,0.2464,0.1063,-0.0643,-0.2888,-0.2226,0.0,0.0,0.0,0.0,0.0,0.0,-0.8656,-1.2136,-1.4711,-1.6655,-1.8084,-1.8043,-1.7743,-1.7268,-1.7207,-1.6627,-1.56,-1.5813,-1.4669,-1.2721,-1.2265,-1.0376,0.0,0.0,0.0,0.0,0.0,0.0,0.0,0.0,0.0,0.0,0.0,0.0,0.0,0.0,0.0,0.0,0.0,0.0,0.0,0.0,0.0,0.0,0.0,0.0,0.0,0.0,0.0,0.0,0.0,0.0,0.0,0.0,0.0,0.0,0.0,0.0,0.0,-2.1211,-2.4173,0.0,-2.4184,-2.3845,-2.4028,-2.4832,-2.5453,-2.6307,-2.7677,-2.7858,-2.7886,-2.7795,-2.7498,-2.7136,-2.6739,-2.6765,-2.6765,-2.6752,-2.6848,-2.6905,-2.6892,-2.6198,-2.5787,-2.5548,-2.487,-2.4356,-2.3966,-2.359,-2.3782,-2.4292,-2.4292,-2.4292,-2.4213,-2.3606,-2.3031,-2.2523,0.0,0.0,0.0,0.0,0.0,0.0,0.0,0.0,0.0,0.6706,0.6668,0.6486,0.6169,0.56,0.4321,0.2174,0.0847,-0.0953,-0.3543,-0.2586,0.0,0.0,0.0,0.0,0.0,-0.6658,-0.9482,-1.3136,-1.4772,-1.6265,-1.7567,-1.7357,-1.677,-1.5971,-1.6143,-1.5425,-1.4205,-1.5239,-1.4444,-1.255,-1.2647,-1.088,-0.8151,0.0,0.0,0.0,0.0,0.0,0.0,0.0,0.0,0.0,0.0,0.0,0.0,0.0,0.0,0.0,0.0,0.0,0.0,0.0,0.0,0.0,0.0,0.0,0.0,0.0,0.0,0.0,0.0,0.0,0.0,0.0,0.0,0.0,0.0,-1.728,-2.1153,-2.38,-2.647,-2.7593,-2.6236,-2.6021,-2.6229,-2.6965,-2.7265,-2.7629,-2.8036,-2.7974,-2.7387,-2.6327,-2.627,-2.6072,-2.5753,-2.584,-2.584,-2.5753,-2.5938,-2.5775,-2.5302,-2.5154,-2.492,-2.4591,-2.4166,-2.3891,-2.3678,-2.3288,-2.3424,-2.3884,-2.3884,-2.3884,-2.3846,-2.3443,-2.284,-2.2176,0.0,0.0,0.0,0.0,0.0,0.0,0.0,0.0,0.6196,0.6694,0.697,0.6919,0.6468,0.5658,0.4201,0.1847,0.0933,-0.0184,-0.1839,-0.0868,0.0,0.0,0.0,0.0,-0.734,-0.7661,-0.9831,-1.3951,-1.4506,-1.5729,-1.7434,-1.6733,-1.5808,-1.4828,-1.4366,-1.3584,-1.2597,-1.3293,-1.3084,-1.23,-1.1977,-1.0577,-0.8709,0.0,0.0,0.0,0.0,0.0,0.0,0.0,0.0,0.0,0.0,0.0,0.0,0.0,0.0,0.0,0.0,0.0,0.0,0.0,0.0,0.0,0.0,0.0,0.0,0.0,0.0,0.0,0.0,0.0,0.0,0.0,0.0,0.0,-1.536,-1.9073,-2.2484,-2.4819,-2.6741,-2.7694,-2.7072,-2.7632,-2.8023,-2.7948,-2.8225,-2.7777,-2.6314,-2.5911,-2.5043,-2.3537,-2.4397,-2.4684,-2.4186,-2.5672,-2.5672,-2.4186,-2.4684,-2.4213,-2.295,-2.3769,-2.3625,-2.2726,-2.3578,-2.3653,-2.3078,-2.3078,-2.3065,-2.3053,-2.3053,-2.3053,-2.304,-2.3015,-2.2652,-2.1973,0.0,0.0,0.0,0.0,0.0,0.0,0.0,0.0,0.6625,0.654,0.7128,0.7424,0.7203,0.669,0.5719,0.4264,0.3215,0.217,0.1068,0.0854,0.0,0.0,0.0,0.0,-0.5555,-0.7367,-0.9176,-1.0987,-1.2237,-1.3253,-1.3974,-1.3762,-1.3629,-1.3492,-1.3374,-1.2821,-1.2012,-1.2205,-1.1851,-1.1128,-1.1958,-1.1227,-0.9716,0.0,0.0,0.0,0.0,0.0,0.0,0.0,0.0,0.0,0.0,0.0,0.0,0.0,0.0,0.0,0.0,0.0,0.0,0.0,0.0,0.0,0.0,0.0,0.0,0.0,0.0,0.0,0.0,0.0,0.0,0.0,-1.4158,-1.6965,-1.9046,-2.1915,-2.5097,-2.849,-2.9835,-3.0333,-2.9793,-2.8903,-2.7948,-2.6827,-2.6252,-2.5467,-2.4362,-2.4212,-2.3943,-2.3526,-2.3394,-2.3458,-2.3686,-2.3743,-2.3743,-2.3686,-2.3541,-2.3288,-2.2917,-2.3021,-2.2936,-2.2703,-2.3158,-2.3215,-2.3078,-2.3078,-2.2899,-2.2535,-2.2535,-2.2169,-2.1643,-2.0867,-1.9832,-1.8892,0.0,0.0,0.0,0.0,0.0,0.0,0.0,0.0,0.7052,0.6956,0.762,0.8033,0.7903,0.7623,0.7206,0.6433,0.5441,0.4674,0.4152,0.0,0.0,0.0,0.0,-0.2037,-0.4131,-0.5977,-0.7734,-0.9356,-1.0446,-1.1367,-1.2147,-1.2307,-1.2373,-1.2289,-1.1912,-1.1297,-1.0513,-1.0322,-0.9939,-0.9594,-1.0251,-1.0091,-0.935,-0.8876,-0.8348,-0.7812,-0.8043,-0.7668,-0.7029,-0.7385,0.0,0.0,0.0,0.0,0.0,0.0,0.0,0.0,0.0,0.0,0.0,0.0,0.0,0.0,0.0,0.0,0.0,0.0,0.0,0.0,0.0,0.0,0.0,0.0,-1.6649,-1.9608,-2.1889,-2.3558,-2.5678,-2.9051,-2.92,-2.8956,-2.8626,-2.7613,-2.6504,-2.5481,-2.4917,-2.4118,-2.2936,-2.2552,-2.2347,-2.2274,-2.2072,-2.2211,-2.285,-2.3017,-2.2917,-2.263,-2.2357,-2.1876,-2.1122,-2.1374,-2.1404,-2.1331,-2.2195,-2.2433,-2.2224,-2.2608,-2.2284,-2.1568,0.0,0.0,0.0,0.0,-1.8419,-1.7508,0.0,0.0,0.0,0.0,0.0,0.0,0.0,0.0,0.7471,0.7688,0.8284,0.8589,0.8485,0.8556,0.8515,0.822,0.7506,0.6998,0.0,0.0,0.0,0.4558,0.1857,-0.0667,-0.2771,-0.4001,-0.5793,-0.8207,-0.8726,-0.9673,-1.0997,-1.1365,-1.1298,-1.0856,-1.0094,-0.9327,-0.8623,-0.818,-0.8027,-0.7962,-0.7892,-0.8107,-0.8354,-0.7436,-0.6854,-0.6511,-0.7114,-0.7116,-0.6949,-0.7884,0.0,0.0,0.0,0.0,0.0,0.0,0.0,0.0,0.0,0.0,0.0,0.0,0.0,0.0,0.0,0.0,0.0,0.0,0.0,0.0,0.0,0.0,0.0,0.0,-1.888,-2.1587,-2.4023,-2.4221,-2.5053,-2.7636,-2.6634,-2.5697,-2.5641,-2.516,-2.4681,-2.4071,-2.4082,-2.3362,-2.1818,-2.1095,0.0,0.0,0.0,-2.0819,-2.1482,-2.2435,-2.2252,-2.1052,-2.1105,-2.0216,-1.8633,-1.9459,-1.9609,-1.9365,-2.098,-2.1483,-2.1152,-2.1709,-2.1226,-2.026,-2.1333,-2.1013,-1.9853,-1.8644,-1.7774,-1.7084,0.0,0.0,0.0,0.0,0.0,0.0,0.0,0.0,0.7958,0.7739,0.8498,0.9007,0.8769,0.9646,0.9687,0.8338,0.8526,0.8241,0.0,0.0,0.5555,0.4746,0.3304,0.1518,-0.0588,-0.2501,-0.4128,-0.5337,-0.6182,-0.7025,-0.7943,-0.8011,-0.8126,-0.8255,-0.8143,-0.8046,-0.7943,-0.7989,-0.8027,-0.7962,-0.7242,-0.7536,-0.8384,-0.8334,-0.8392,-0.8577,-0.8762,-0.8458,-0.7889,-0.7867,-0.7588,-0.7078,-0.6311,-0.6159,0.0,0.0,0.0,0.0,0.0,0.0,0.0,0.0,0.0,0.0,0.0,0.0,0.0,0.0,0.0,0.0,0.0,0.0,0.0,-1.7761,-2.0565,-2.3309,-2.5415,-2.4611,-2.4625,-2.6588,-2.6546,-2.6169,-2.5675,-2.5552,-2.4733,-2.3094,-2.3303,-2.242,-1.9993,-2.0108,-1.9707,-1.8718,-1.8481,-1.8494,-1.8581,-1.9072,-1.9174,-1.887,-1.9044,0.0,-1.8623,-1.9141,-1.9383,-1.9344,-1.9976,-2.085,-2.1651,-2.0391,-1.9506,-1.8828,-1.8503,-1.7901,-1.7177,-1.6714,-1.6237,-1.5801,0.0,0.0,0.0,0.0,0.0,0.0,0.0,0.0,0.8435,0.8294,0.8679,0.9126,0.9496,0.9894,0.9915,0.9375,0.9418,0.0,0.0,0.854,0.7773,0.7214,0.5538,0.3732,0.1798,0.0284,-0.1342,-0.2989,-0.4477,-0.5401,-0.5808,-0.6524,-0.7062,-0.7492,-0.7257,-0.7389,-0.7807,-0.7046,-0.6683,-0.6683,-0.6226,-0.641,-0.6907,-0.7017,-0.7266,-0.7462,-0.7681,-0.7636,-0.7353,-0.7352,-0.725,-0.7032,-0.6516,-0.5726,-0.4829,0.0,0.0,0.0,0.0,0.0,0.0,0.0,0.0,0.0,0.0,0.0,0.0,0.0,0.0,-1.2305,-1.3059,0.0,-1.7407,-1.8277,-2.032,-2.2124,-2.315,-2.2583,-2.3041,-2.5616,-2.4732,-2.3982,-2.4304,-2.3821,-2.2938,-2.1816,-2.188,-2.1062,-1.892,-1.8646,-1.8333,-1.7989,-1.7469,-1.7302,-1.7532,-1.8022,-1.8186,-1.7988,-1.8423,-1.8455,-1.832,-1.8562,-1.8654,-1.87,-1.9052,-1.9478,-1.9773,-1.8434,-1.7734,-1.7402,-1.6711,-1.6451,-1.6457,-1.5949,-1.5596,-1.5439,0.0,0.0,0.0,0.0,0.0,0.0,0.0,0.0,0.0,0.8804,0.8804,0.9157,1.0034,0.9866,0.9898,1.0382,0.0,0.0,0.0,1.0478,0.9854,0.9726,0.7917,0.6045,0.4279,0.3174,0.1541,-0.0664,-0.2434,-0.3538,-0.3915,-0.5104,-0.5927,-0.6471,-0.5953,-0.6166,-0.6758,-0.5473,-0.487,-0.4852,-0.4904,-0.4842,-0.4898,-0.4989,-0.5326,-0.5771,-0.6125,-0.6427,-0.6459,-0.5639,-0.5586,-0.5722,-0.5684,-0.4426,-0.28,-0.2455,-0.2523,0.0,0.0,0.0,0.0,0.0,0.0,0.0,0.0,-0.9005,-0.9648,-1.1715,-1.2578,-1.3213,-1.4248,-1.5971,-1.7463,-1.8098,-1.9509,-2.0483,-2.058,-2.0483,-2.1475,-2.4127,-2.2447,-2.1383,-2.2325,-2.1489,-2.0775,-2.0385,-2.043,-1.9773,-1.8017,-1.7438,-1.7198,-1.7447,-1.6703,-1.6428,-1.6814,-1.7525,-1.7693,-1.7393,-1.8099,-1.834,-1.8008,-1.8008,-1.8008,-1.8056,-1.8428,-1.8114,-1.7296,-1.689,-1.6509,-1.6208,-1.5633,-1.5748,-1.6208,-1.5642,-1.541,-1.541,0.0,0.0,0.0,0.0,0.0,0.0,0.0,0.0,0.0,0.8804,0.8804,0.8969,0.9463,0.9776,1.0027,0.0,0.0,0.0,1.0605,1.0458,1.028,1.0154,0.958,0.8561,0.6993,0.5197,0.3661,0.242,0.1326,-0.0111,-0.184,-0.1998,-0.2326,-0.2783,-0.2734,-0.2754,-0.2851,-0.2927,-0.3014,-0.3027,-0.2967,-0.2983,-0.2988,-0.2997,-0.405,-0.5498,-0.6119,-0.6295,-0.5734,-0.1824,-0.0593,-0.0782,-0.0815,-0.0462,0.0184,0.1797,0.1867,0.1005,-0.0438,-0.1318,-0.2639,-0.5864,-0.6709,-0.7336,0.0,-0.9582,-0.9813,-1.1596,-1.2088,-1.2361,-1.2439,-1.4702,-1.6679,-1.7137,-1.9315,-2.0942,-2.104,-2.104,-2.1006,-2.1111,-2.0464,-2.002,-1.9886,-1.9761,-1.952,-1.9057,-1.9429,-1.8904,-1.7214,-1.7437,-1.7137,-1.6047,-1.5477,-1.5191,-1.5301,-1.5932,-1.6269,-1.622,-1.7435,-1.8057,-1.8008,-1.8008,-1.8008,-1.8056,-1.8428,-1.7513,-1.5742,-1.6846,-1.6616,-1.5526,-1.541,-1.5468,-1.5526,-1.541,-1.541,-1.541,0.0,0.0,0.0,0.0,0.0,0.0,0.0,0.0,0.0,0.0,0.0,0.9008,0.9562,1.0063,0.0,0.0,0.0,0.0,1.2055,1.2007,1.212,1.2573,1.2221,1.1195,0.938,0.832,0.6775,0.4631,0.4544,0.4066,0.3194,0.1433,0.0625,0.0658,0.0669,0.0763,0.0877,0.0758,0.0698,0.0702,0.0646,0.0648,0.0642,0.0642,0.0217,-0.0665,-0.2102,-0.2702,0.0,-0.0558,0.1888,0.4106,0.4109,0.397,0.4013,0.4857,0.4564,0.3547,0.221,0.0244,-0.1664,-0.2572,-0.5201,-0.7674,-0.839,-0.8493,-0.8891,-1.0766,-1.1811,-1.2274,-1.2274,-1.345,-1.4389,-1.4631,-1.5585,-1.6356,-1.6633,-1.6554,-1.6388,-1.604,-1.5827,-1.6769,-1.9471,-1.828,-1.7172,-1.704,-1.6472,-1.5551,-1.4069,-1.4121,-1.4229,-1.4186,-1.3653,-1.3729,-1.4449,-1.4771,-1.5276,-1.5992,-1.6804,-1.7501,-1.8008,-1.8008,-1.7734,-1.7256,-1.7446,-1.6685,-1.542,-1.5996,-1.5918,-1.541,-1.541,-1.5108,-1.4746,-1.5235,-1.5108,-1.4688,0.0,0.0,0.0,0.0,0.0,0.0,0.0,0.0,0.0,0.0,0.0,0.0,0.0,0.0,0.0,0.0,0.0,0.0,0.0,1.3097,1.3608,1.4568,1.4323,1.3434,1.178,1.0987,0.9496,0.7222,0.7172,0.7068,0.6756,0.4718,0.3852,0.4019,0.4297,0.4511,0.4668,0.4737,0.4802,0.4787,0.4781,0.4787,0.4829,0.4829,0.4885,0.4635,0.2499,0.1609,0.1463,0.1998,0.4423,0.7345,0.7455,0.7307,0.7035,0.7086,0.6498,0.5621,0.4346,0.2585,0.1049,0.0833,-0.2596,-0.592,-0.6182,-0.6463,-0.7268,-0.9453,-1.054,-1.1194,-1.1194,-1.1443,-1.161,-1.175,-1.2187,-1.2646,-1.2755,-1.3042,-1.3046,-1.2552,-1.2653,-1.4027,-1.7455,-1.5965,-1.4669,-1.469,-1.3814,-1.2838,-1.1854,-1.1793,-1.2165,-1.303,-1.2668,-1.3053,-1.4202,-1.4252,-1.479,-1.5618,-1.6007,-1.6715,-1.7638,-1.7746,-1.7432,-1.6665,-1.6602,-1.6113,-1.541,-1.541,-1.5294,-1.505,-1.505,-1.4569,-1.3965,-1.451,-1.4392,-1.3855,0.0,0.0,0.0,0.0,0.0,0.0,0.0,0.0,0.0,0.0,0.0,0.0,0.0,0.0,0.0,0.0,0.0,0.0,0.0,1.3036,1.4147,1.5404,1.546,1.5103,1.4406,1.2607,1.1268,1.0573,0.927,0.8214,0.7357,0.7593,0.7589,0.7365,0.8212,0.8623,0.8659,0.8959,0.9104,0.9111,0.9085,0.912,0.9081,0.9081,0.9243,0.9233,0.6905,0.0,0.5911,0.71,0.7703,0.8044,0.8447,0.8631,0.8617,0.8216,0.7816,0.7169,0.5325,0.6091,0.6548,0.3447,0.115,-0.07,-0.2499,-0.3504,-0.482,-0.7569,-0.8103,-0.8104,-0.8104,-0.8384,-0.8657,-0.8664,-1.0306,-1.1578,-1.1501,-1.2273,-1.2746,-1.2419,-1.2394,-1.2494,-1.2578,-1.2463,-1.2267,-1.2058,-1.1945,-1.1849,-1.1726,-1.1706,-1.2165,-1.3132,-1.2939,-1.333,-1.4509,-1.4574,-1.4639,-1.4639,-1.5073,-1.572,-1.6688,-1.7169,-1.7158,-1.6709,-1.6279,-1.582,-1.541,-1.541,-1.4932,-1.4273,-1.4273,-1.3726,-1.307,-1.307,-1.307,-1.307,0.0,0.0,0.0,0.0,0.0,0.0,0.0,0.0,0.0,0.0,0.0,0.0,0.0,0.0,0.0,0.0,0.946,0.0,0.0,1.3017,1.4393,1.6028,1.7126,1.7262,1.6296,1.5909,1.4903,1.3211,1.2748,1.1908,1.0721,1.0333,1.0099,1.0032,1.0115,0.9913,0.9479,0.9953,0.9801,0.9268,0.9331,0.9271,0.9265,0.9317,0.9322,0.9352,0.0,0.0,0.7491,0.7915,0.805,0.8009,0.8284,0.8293,0.8279,0.8274,0.8349,0.8418,0.842,0.7773,0.6893,0.607,0.557,0.4642,0.2264,0.0099,-0.1603,-0.2506,-0.4116,-0.5379,-0.5379,-0.5396,-0.5531,-0.5503,-0.608,-0.7273,-0.9246,-0.9735,-0.9916,-0.9847,-0.9824,-0.9693,-0.955,-1.0198,-1.0748,-1.0685,-0.9801,-0.9233,-0.9152,-0.9785,-1.0551,-1.161,-1.1997,-1.2722,-1.3851,-1.355,-1.3725,-1.432,-1.553,-1.6147,-1.6161,-1.7025,-1.6982,-1.6279,-1.6133,-1.5811,-1.541,-1.541,-1.4932,-1.4213,-1.4213,-1.3356,-1.2205,-1.2205,-1.1841,-1.1476,0.0,0.0,0.0,0.0,0.0,0.0,0.0,0.0,0.0,0.0,0.0,0.0,0.0,0.0,0.0,0.0,0.0,0.9938,0.0,0.0,1.4359,1.6358,1.7612,1.8037,1.7612,1.7504,1.6775,1.5365,1.5222,1.4558,1.3411,1.3042,1.286,1.2822,1.2862,1.2508,1.2058,1.2438,1.2016,1.1138,1.1138,1.1082,1.0906,1.0922,1.0861,0.0,0.0,0.0,0.9801,0.9096,0.8759,0.8789,0.9081,0.9149,0.9146,0.9131,0.9473,0.9912,1.0266,0.9409,0.8429,0.8521,0.8131,0.7308,0.5691,0.4016,0.2577,0.1476,-0.0379,-0.1836,-0.2006,-0.2292,-0.2303,-0.1562,-0.1447,-0.2211,-0.4378,-0.5826,-0.6554,-0.6457,-0.6741,-0.6935,-0.7068,-0.8439,-0.9324,-0.9316,-0.8477,-0.8084,-0.8306,-0.8826,-0.9777,-1.1152,-1.1528,-1.2312,-1.3487,-1.3374,-1.3454,-1.3887,-1.4991,-1.5316,-1.4891,-1.5782,-1.5827,-1.5232,-1.5022,-1.4819,-1.4569,-1.4569,-1.4085,-1.3356,-1.3356,-1.2504,-1.1344,-1.1344,-1.1045,-1.0681,0.0,0.0,0.0,0.0,0.0,0.0,0.0,0.0,0.0,0.0,0.0,0.0,0.0,0.0,0.0,0.0,0.0,0.0,0.0,0.0,0.0,1.6283,1.6998,1.7585,1.8226,1.741,1.6944,1.6902,1.6545,1.6025,1.5342,1.5646,1.5751,1.5632,1.6247,1.6316,1.5999,1.6229,1.5676,1.4552,1.4484,1.4287,1.3925,1.3925,0.0,0.0,0.0,1.3219,1.274,1.0843,1.0154,1.0249,1.0778,1.1109,1.109,1.0715,1.1106,1.1505,1.0923,1.0993,1.1089,1.0654,0.902,0.7531,0.7674,0.7886,0.7311,0.4466,0.3068,0.2279,0.2057,0.109,0.091,0.2798,0.3203,0.3041,0.2463,-0.0567,-0.2592,-0.239,-0.3309,-0.4316,-0.5018,-0.6848,-0.7962,-0.8031,-0.7892,-0.8313,-0.9262,-0.9003,-0.9833,-1.1869,-1.1711,-1.2148,-1.3186,-1.3787,-1.3821,-1.3197,-1.3502,-1.3379,-1.2885,-1.3735,-1.3924,-1.3551,-1.3157,-1.3009,-1.3009,-1.3009,-1.2512,-1.1834,-1.1834,-1.1288,-1.0624,-1.0604,-1.0598,-1.0598,0.0,0.0,0.0,0.0,0.0,0.0,0.0,0.0,0.0,0.0,0.0,0.0,0.0,0.0,0.0,0.0,0.0,0.0,0.0,0.0,0.0,0.0,0.0,0.0,0.0,0.0,0.0,1.6967,1.7133,1.6827,1.6127,1.6432,1.6439,1.617,1.6667,1.6564,1.5989,1.5969,1.559,1.5052,0.0,1.444,1.4253,0.0,0.0,0.0,0.0,1.3477,1.2881,1.2718,1.2247,1.1653,1.0928,1.0868,1.1109,1.1474,1.1832,1.217,1.246,1.2013,1.1254,1.0611,0.9253,0.8155,0.8198,0.8841,0.9125,0.8158,0.7187,0.657,0.7199,0.5529,0.4047,0.3785,0.5096,0.6057,0.5854,0.545,0.4369,0.2502,-0.1405,-0.3317,-0.1502,-0.5429,-0.7932,-0.7805,-0.8609,-0.9163,-0.9262,-1.0741,-1.1721,-1.1875,-1.2644,-1.2987,-1.2866,-1.2784,-1.259,-1.2289,-1.3067,-1.3035,-1.2385,-1.3292,-1.3542,-1.3141,-1.305,-1.3009,-1.3009,-1.3009,-1.2512,-1.1834,-1.1834,-1.1288,-1.0598,-1.0314,-1.0234,-1.0133,0.0,0.0,0.0,0.0,0.0,0.0,0.0,0.0,0.0,0.0,0.0,0.0,0.0,0.0,0.0,0.0,0.0,0.0,0.0,0.0,0.0,0.0,0.0,0.0,0.0,0.0,0.0,0.0,0.0,0.0,1.6614,1.6946,1.7225,1.7352,1.7647,1.7512,1.7159,1.7048,0.0,0.0,0.0,0.0,0.0,0.0,0.0,0.0,1.4743,1.4529,1.4314,1.4412,1.4038,1.3399,1.2613,1.232,1.222,1.2438,1.2432,1.2378,1.2719,1.2331,1.1762,1.1541,1.0471,0.9505,0.9346,0.9452,0.9434,0.8953,0.8328,0.7969,0.8585,0.778,0.6658,0.5692,0.7112,0.8344,0.8132,0.7938,0.7293,0.5897,0.3106,0.0903,0.01,-0.2688,-0.5342,-0.7553,-0.8802,-0.9605,-0.9962,-1.1348,-1.2254,-1.2457,-1.2863,-1.304,-1.3219,-1.2607,-1.2308,-1.2367,-1.2571,-1.2298,-1.1489,-1.2198,-1.2277,-1.1973,-1.1973,-1.1973,-1.1973,-1.1973,-1.1574,-1.1095,-1.1238,-1.0822,-1.0167,-1.0134,-0.9846,-0.9358,0.0,0.0,0.0,0.0,0.0,0.0,0.0,0.0,0.0,0.0,0.0,0.0,0.0,0.0,0.0,0.0,0.0,0.0,0.0,0.0,0.0,0.0,0.0,0.0,0.0,0.0,0.0,0.0,1.6223,0.0,0.0,0.0,0.0,0.0,0.0,0.0,0.0,0.0,0.0,0.0,0.0,0.0,0.0,0.0,0.0,0.0,1.5558,1.5679,1.6009,1.5798,1.548,1.5163,1.4959,1.4439,1.3829,1.3613,1.3171,1.2659,1.2519,1.2519,1.2506,1.2543,1.175,1.0881,1.044,0.9922,0.925,0.8576,0.8171,0.8162,0.8548,0.8779,0.8832,0.8439,0.9497,1.0283,1.0134,0.8975,0.8226,0.8252,0.8124,0.6114,0.1497,0.0393,-0.2037,-0.6804,-0.8262,-0.9557,-1.0647,-1.1244,-1.2074,-1.3146,-1.2599,-1.2645,-1.3461,-1.2677,-1.2372,-1.2647,-1.204,-1.1404,-1.0631,-1.0822,-1.0795,-1.0624,-1.0624,-1.0624,-1.0624,-1.0624,-1.0388,-1.014,-1.0401,-1.0106,-0.959,-0.9801,-0.9235,-0.8375,0.0,0.0,0.0,0.0,0.0,0.0,0.0,0.0,0.0,0.0,0.7557,0.7783,0.0,0.0,0.0,0.0,0.0,0.0,0.0,0.0,0.0,0.0,0.0,0.0,0.0,1.381,1.4204,1.4204,1.4665,1.488,0.0,0.0,0.0,0.0,0.0,0.0,0.0,0.0,0.0,0.0,0.0,0.0,0.0,0.0,0.0,0.0,1.4972,1.5279,1.604,1.677,1.6693,1.6258,1.5865,1.5369,1.4934,1.4877,1.4759,1.4522,1.3665,1.3455,1.3098,1.1515,1.1004,1.0593,0.9829,1.0149,1.0416,0.999,1.0084,1.0417,1.1218,1.0418,1.0316,1.2777,1.2406,1.2136,1.2908,1.2527,1.1487,0.9857,0.8481,0.7443,0.6706,0.2409,-0.1418,-0.41,-0.6271,-0.8316,-1.0328,-1.1315,-1.2178,-1.2839,-1.2485,-1.2257,-1.223,-1.2087,-1.172,-1.1334,-1.1189,-1.0942,-1.0624,-1.0672,-1.0672,-1.0624,-1.0624,-1.0624,-1.0624,-1.0624,-1.0388,-1.012,-1.0174,-0.9614,-0.8768,-0.8598,-0.804,-0.7234,0.0,0.0,0.0,0.0,0.0,0.0,0.0,0.7551,0.7241,0.7133,0.7031,0.7187,0.7563,0.7949,0.8215,0.0,0.0,0.0,0.0,0.0,0.0,0.0,0.0,0.0,0.0,1.2258,1.257,1.2667,0.0,1.3643,1.3737,1.4343,1.4675,1.4778,1.5164,1.5484,1.5809,1.5754,0.0,1.6584,1.6326,1.635,0.0,0.0,0.0,0.0,0.0,1.5174,1.586,1.6961,1.7564,1.7822,1.7889,1.7252,1.644,1.6721,1.6179,1.5351,1.5188,1.4775,1.4163,1.2705,1.2224,1.1748,1.0498,1.0642,1.0842,1.0161,1.0214,1.0585,1.1494,1.0373,1.0062,1.2466,1.2862,1.2976,1.3423,1.3677,1.3326,1.1924,0.9849,0.8306,0.7795,0.4183,0.0455,-0.3037,-0.5507,-0.7625,-0.942,-1.0778,-1.1854,-1.2525,-1.2378,-1.2164,-1.187,-1.187,-1.1577,-1.0995,-1.0995,-1.0842,-1.0624,-1.0624,-1.0624,-1.0624,-1.0624,-1.0474,-1.0327,-1.0327,-1.006,-0.9615,-0.9407,-0.8847,-0.8093,-0.7768,-0.7063,-0.6221,0.0,0.0,0.0,0.0,0.0,0.0,0.0,0.7664,0.7241,0.6982,0.6598,0.6539,0.6912,0.767,0.8156,0.0,0.0,0.0,0.0,0.0,0.0,0.0,0.0,0.0,0.0,0.0,0.0,1.146,1.2138,0.0,0.0,0.0,0.0,0.0,1.4143,1.4422,1.4663,1.504,1.5464,0.0,0.0,1.6125,0.0,0.0,0.0,0.0,0.0,1.5224,1.5797,1.7146,1.8061,1.8809,1.9552,1.894,1.7984,1.8419,1.7516,1.6524,1.6911,1.6396,1.5545,1.4403,1.3855,1.3111,1.14,1.1272,1.124,1.0086,1.0102,1.0474,1.1101,1.0232,0.9993,1.1807,1.2936,1.3621,1.3754,1.4402,1.4363,1.3095,1.1191,0.9067,0.6799,0.4537,0.1222,-0.353,-0.5716,-0.7432,-0.8809,-1.0322,-1.1444,-1.2218,-1.2204,-1.2037,-1.1683,-1.1683,-1.1416,-1.0902,-1.0902,-1.0782,-1.0624,-1.0624,-1.0624,-1.0618,-1.0494,-1.0327,-1.0114,-1.0047,-0.9713,-0.9147,-0.8851,-0.8185,-0.7424,-0.7118,-0.6285,-0.5269,0.0,0.0,0.0,0.0,0.0,0.0,0.0,0.7883,0.7241,0.7085,0.6593,0.6159,0.5955,0.6707,0.73,0.0,0.0,0.0,0.0,0.0,0.0,0.0,0.0,0.0,0.0,0.0,0.0,1.0964,1.1267,0.0,0.0,0.0,0.0,0.0,0.0,1.3742,1.392,1.3836,0.0,0.0,0.0,0.0,0.0,0.0,0.0,0.0,0.0,1.5471,1.6191,1.7629,1.8042,1.8157,1.9708,1.9747,1.9325,1.9297,1.9183,1.9059,1.9037,1.8376,1.735,1.595,1.5002,1.3854,1.189,1.2011,1.2107,1.0441,1.0685,1.1185,1.1206,1.1059,1.1697,1.3966,1.3958,1.4229,1.5886,1.5665,1.4393,1.1661,1.1772,0.9845,0.399,0.1785,-0.126,-0.5901,-0.7016,-0.8061,-0.9345,-1.0286,-1.1156,-1.1917,-1.1911,-1.1637,-1.1082,-1.1076,-1.0915,-1.0665,-1.0665,-1.0651,-1.0624,-1.0624,-1.0624,-1.0611,-1.0274,-1.014,-1.0094,-0.9833,-0.9532,-0.919,-0.9154,-0.8135,-0.6696,-0.6668,-0.5786,-0.457,0.0,0.0,0.0,0.0,0.0,0.0,0.8586,0.8043,0.7557,0.7354,0.6972,0.6701,0.6598,0.7031,0.7306,0.7246,0.0,0.0,0.0,0.0,0.0,0.0,0.0,0.0,0.0,0.0,0.9932,1.0233,1.0812,0.0,0.0,0.0,0.0,0.0,0.0,1.2783,1.2745,1.2909,0.0,0.0,0.0,0.0,0.0,0.0,0.0,0.0,0.0,0.0,1.4899,1.6323,1.7153,1.7723,1.8247,1.8701,1.9277,2.0315,2.0254,2.0072,2.0765,2.0052,1.8819,1.7688,1.6384,1.4979,1.3217,1.2947,1.2671,1.1352,1.151,1.1804,1.1601,1.1131,1.1135,1.2189,1.2633,1.3309,1.4537,1.4576,1.4381,1.409,1.115,0.7716,0.4207,0.047,-0.3567,-0.7787,-0.8056,-0.8554,-0.9666,-1.009,-1.0639,-1.1534,-1.1603,-1.141,-1.0995,-1.0995,-1.0848,-1.0624,-1.0624,-1.0624,-1.0624,-1.0624,-1.0624,-1.0611,-1.0247,-1.002,-0.9833,-0.9539,-0.9245,-0.887,-0.7985,-0.7209,-0.648,-0.5664,-0.4956,-0.4519,0.0,0.0,0.0,0.0,0.0,0.8752,0.8533,0.8203,0.7883,0.7676,0.7354,0.7133,0.7085,0.7246,0.7354,0.7246,0.7568,0.0,0.0,0.0,0.0,0.0,0.0,0.0,0.0,0.0,0.9673,1.0079,1.0608,1.1074,0.0,0.0,1.1719,1.1828,0.0,0.0,0.0,0.0,0.0,0.0,0.0,0.0,0.0,0.0,0.0,0.0,0.0,0.0,0.0,0.0,0.0,1.7288,1.7122,1.7706,0.0,2.0456,2.0658,2.0724,2.2065,2.16,2.0531,1.9639,1.7972,1.6253,1.4794,1.3941,1.3154,1.2172,1.2102,1.2139,1.1781,1.1191,1.0762,1.0711,1.1682,1.2531,1.2624,1.2786,1.2956,1.3092,0.8456,0.4468,0.2282,-0.2051,-0.5902,-0.8594,-0.8752,-0.9044,-0.9661,-1.0,-1.0448,-1.1296,-1.1296,-1.1156,-1.0868,-1.0868,-1.0762,-1.0624,-1.0624,-1.0624,-1.0624,-1.0624,-1.0577,-1.0414,-1.0114,-0.982,-0.9532,-0.8948,-0.8661,-0.8374,-0.7074,-0.6475,-0.615,-0.5167,-0.468,-0.4519,0.0,0.0,0.0,0.0,0.0,0.0,0.8804,0.8434,0.8109,0.7925,0.7557,0.7241,0.7139,0.7085,0.7192,0.7467,0.8049,0.0,0.0,0.0,0.0,0.0,0.0,0.0,0.0,0.0,0.9984,1.0667,1.082,1.1124,1.1528,1.1528,1.1569,1.1728,0.0,0.0,0.0,0.0,0.0,0.0,0.0,0.0,0.0,0.0,0.0,0.0,0.0,0.0,0.0,0.0,0.0,0.0,0.0,1.7164,0.0,0.0,2.0324,2.1231,2.2774,2.3027,2.2634,2.1678,1.9763,1.7744,1.648,1.4925,1.3569,1.2788,1.2349,1.1972,1.1659,1.1486,1.1156,1.0431,1.172,1.2241,1.0627,1.0469,0.9508,0.6706,0.3329,0.0071,-0.3004,-0.6373,-0.8319,-0.8185,-0.8969,-0.94,-0.9291,-1.0117,-1.0701,-1.0989,-1.0995,-1.0862,-1.0631,-1.0624,-1.0624,-1.0624,-1.0624,-1.0624,-1.0624,-1.0624,-1.0401,-1.0107,-0.9813,-0.9519,-0.9108,-0.8105,-0.7723,-0.7616,-0.6912,-0.6145,-0.5487,-0.5487,-0.5058,-0.4519,0.0,0.0,0.0,0.0,0.0,0.0,0.0,0.8699,0.8593,0.8533,0.8474,0.8573,0.8771,0.8823,0.8974,0.9332,0.8408,0.0,0.0,0.0,0.0,0.0,0.0,0.0,0.0,0.0,0.9665,0.9998,1.0226,1.0387,1.0608,1.0541,1.0533,1.0685,1.0584,1.0431,0.0,0.0,0.0,0.0,0.0,0.0,1.1451,0.0,0.0,0.0,0.0,0.0,0.0,0.0,0.0,0.0,0.0,0.0,0.0,1.6905,1.8135,1.9472,2.0609,2.0921,2.0783,2.0309,1.904,1.7605,1.6574,1.5286,1.4037,1.3204,1.2708,1.2286,1.1803,1.1469,1.1202,1.1024,1.1169,1.1138,1.0625,0.7933,0.4967,0.1925,-0.4704,-0.8947,-0.8689,-1.011,-1.0967,-1.0655,-1.1403,-1.1611,-1.1024,-1.1281,-1.1213,-1.0759,-1.0759,-1.0719,-1.0624,-1.0624,-1.0454,-1.0254,-1.0254,-1.0154,-0.996,-0.996,-0.9907,-0.98,-0.8985,-0.8645,-0.8428,-0.7389,-0.6966,-0.6858,-0.6145,-0.5706,-0.5433,-0.5003,-0.468,-0.4519,0.0,0.0,0.0,0.0,0.0,0.0,0.0,0.8752,0.8804,0.8804,0.8857,0.9008,0.9256,0.9413,0.9614,0.9865,0.9026,0.0,0.0,0.0,0.0,0.0,0.0,0.0,0.0,0.9655,0.9795,1.0084,1.0194,1.0248,1.0155,1.0171,1.0072,0.9969,0.9814,0.9658,0.0,0.0,0.0,0.0,0.0,0.0,1.0744,0.0,0.0,0.0,0.0,0.0,0.0,0.0,0.0,0.0,0.0,0.0,0.0,0.0,1.5778,1.7175,1.9095,1.9893,2.0117,1.9653,1.8686,1.7613,1.6801,1.5443,1.4134,1.3381,1.2626,1.2007,1.167,1.1262,1.0902,1.0666,1.1235,1.1247,0.9877,0.5998,0.1108,-0.4741,-1.0373,-1.3286,-1.2186,-1.2519,-1.2522,-1.1849,-1.2266,-1.2212,-1.1413,-1.1351,-1.1108,-1.0624,-1.0624,-1.0428,-1.011,-1.0322,-1.017,-0.9608,-0.982,-0.986,-0.9679,-0.9389,-0.9208,-0.9099,-0.8181,-0.7717,0.0,-0.6584,-0.6204,-0.6091,-0.5382,-0.5109,-0.5058,-0.468,-0.4519,-0.4519,0.0,0.0,0.0,0.0,0.0,0.0,0.0,0.8745,0.8804,0.8804,0.8811,0.8804,0.8857,0.9211,0.9465,0.9517,0.0,0.0,0.0,0.0,0.0,0.0,0.0,0.0,0.0,1.0319,1.0326,1.0685,1.0663,1.0471,1.0076,1.0205,1.0012,0.951,0.9361,0.9145,0.0,0.0,0.0,0.0,0.0,0.0,0.0,0.0,0.0,0.0,0.0,0.0,0.0,0.0,0.0,0.0,0.0,0.0,0.0,0.0,0.0,0.0,0.0,1.9456,2.0125,1.9447,1.8565,1.7692,1.7011,1.5484,0.0,1.3351,1.2246,1.136,1.1292,1.0779,1.0277,0.9658,1.1663,1.1987,0.8165,0.3816,-0.2642,-1.2491,-1.3852,-1.3905,-1.3647,-1.3735,-1.3288,-1.1981,-1.1927,-1.1556,-1.071,-1.0654,-1.0577,-1.0564,-1.0577,-1.0205,-0.9372,-0.9858,-0.9637,-0.8859,-0.9414,-0.9639,-0.9619,-0.8854,-0.8425,-0.8143,-0.7346,-0.6829,-0.6475,-0.5706,-0.5433,-0.5378,-0.4732,-0.4519,-0.4519,-0.4519,-0.4519,-0.4519,0.0,0.0,0.0,0.0,0.0,0.0,0.0,0.0,0.0,0.0,0.891,0.9054,0.9361,0.951,0.9821,0.0,0.0,0.0,0.0,0.0,0.0,0.0,0.0,0.0,0.0,1.044,1.0466,1.0228,1.0225,1.0027,0.9637,0.9383,0.9045,0.8685,0.8408,0.809,0.0,0.0,0.0,0.0,0.0,0.0,0.0,0.0,0.0,0.0,1.0266,1.0038,0.0,0.0,0.0,0.0,0.0,0.0,0.0,0.0,1.2201,1.3348,1.4151,0.0,1.751,1.8028,1.7768,1.7256,0.0,0.0,0.0,1.3589,1.2725,1.184,1.0939,1.0189,0.9707,0.957,0.9984,0.8479,0.3098,-0.4615,-1.1213,-1.544,-1.6553,-1.6206,-1.4223,-1.5228,-1.5042,-1.2867,-1.3101,-1.2697,-1.1218,-1.1158,-1.0756,-0.9952,-1.0107,-1.0098,-0.9914,-0.9814,-0.955,-0.9092,-0.926,-0.9225,-0.9011,-0.8233,-0.787,-0.7757,-0.6435,-0.5859,-0.5706,-0.5003,-0.4732,-0.4732,-0.457,-0.4519,-0.4519,-0.4519,-0.4519,-0.4519,0.0,0.0,0.0,0.0,0.0,0.0,0.0,0.0,0.0,0.0,0.0,0.0,0.0,0.0,0.0,0.0,0.0,0.0,0.0,0.0,0.0,0.0,0.0,0.0,1.0763,1.0755,1.0536,1.0092,1.0064,0.9698,0.9035,0.8868,0.8437,0.7808,0.7446,0.7396,0.0,0.0,0.0,0.0,0.8738,0.0,0.0,0.0,0.0,0.0,0.9801,0.9649,0.0,0.9209,0.8925,0.858,0.0,0.0,0.0,0.0,1.0791,1.1807,1.2253,1.3861,1.5449,1.5737,1.6078,1.615,1.5668,0.0,0.0,1.3227,1.233,1.1291,1.0017,0.8699,0.7647,0.727,0.6162,0.3037,-0.3627,-1.0505,-1.5583,-1.7451,-1.7989,-1.7417,-1.5524,-1.6013,-1.5435,-1.2998,-1.3107,-1.2448,-1.0667,-1.0543,-1.0296,-0.9686,-0.9699,-0.9597,-0.9298,-0.9446,-0.9167,-0.8602,-0.888,-0.8736,-0.8262,-0.7509,-0.7015,-0.6627,-0.5546,-0.5058,-0.5003,-0.4625,-0.4519,-0.4519,-0.4519,-0.4519,-0.4519,-0.4519,-0.4522,-0.4525,0.0,0.0,0.0,0.0,0.0,0.0,0.0,0.0,0.0,0.0,0.0,0.0,0.0,0.0,0.0,0.0,0.0,0.0,0.0,0.0,0.0,0.0,0.0,1.1628,1.1469,1.1164,1.0712,1.0131,0.9952,0.9391,0.8431,0.8468,0.7967,0.6984,0.6663,0.6864,0.0,0.0,0.7889,0.8521,0.8573,0.0,0.0,0.0,0.0,0.0,0.0,0.0,0.0,0.9105,0.8641,0.8091,0.8114,0.0,0.0,0.0,0.0,0.0,1.1131,1.2492,1.3628,1.3527,1.4179,1.4638,1.403,0.0,0.0,1.2302,1.1269,1.0134,0.8493,0.6642,0.4927,0.3665,0.0643,-0.4097,-1.1422,-1.5245,-1.7701,-1.8736,-1.853,-1.7889,-1.6715,-1.6262,-1.5157,-1.2939,-1.2597,-1.1715,-0.9914,-0.967,-0.9593,-0.9552,-0.9345,-0.8989,-0.8473,-0.8895,-0.8773,-0.8029,-0.8429,-0.8321,-0.767,-0.6799,-0.6091,-0.5487,-0.4787,-0.4519,-0.4519,-0.4519,-0.4519,-0.4519,-0.4519,-0.4519,-0.4522,-0.4522,-0.4473,-0.4484,0.0,0.0,0.0,0.0,0.0,0.0,0.0,0.0,0.0,0.0,0.0,0.0,0.0,0.0,0.0,0.0,0.0,0.0,0.0,0.0,0.0,0.0,1.1427,1.1477,1.1318,1.1266,1.0912,1.026,0.9705,0.8959,0.8049,0.7624,0.7174,0.6645,0.6411,0.6588,0.7192,0.7408,0.7681,0.8055,0.8315,0.0,0.0,0.0,0.0,0.0,0.0,0.0,0.0,0.8335,0.8135,0.7967,0.7188,0.0,0.0,0.0,0.0,0.0,0.9426,1.025,1.1535,1.3193,1.3332,1.2981,1.2537,1.2341,1.1834,1.0193,0.9595,0.856,0.5818,0.4295,0.2375,-0.0822,-0.6956,-1.3606,-2.0077,-2.0419,-1.9627,-1.8688,-1.8566,-1.7859,-1.6186,-1.6066,-1.5336,-1.3575,-1.2637,-1.1575,-1.0302,-0.9632,-0.9192,-0.8951,-0.9084,-0.9035,-0.8723,-0.8838,-0.8818,-0.8652,-0.8121,-0.783,-0.767,-0.6303,-0.5597,-0.5487,-0.4787,-0.4519,-0.4519,-0.4519,-0.4519,-0.4519,-0.4519,-0.4522,-0.4477,-0.4477,-0.4484,-0.4494,0.0,0.0,0.0,0.0,0.0,0.0,0.0,0.0,0.0,0.0,0.0,0.0,0.0,0.0,0.0,0.0,0.0,0.0,0.0,0.0,0.0,1.0972,1.0971,1.1004,1.1167,1.0956,1.0425,0.9644,0.8862,0.7989,0.6939,0.6271,0.6156,0.6465,0.6157,0.648,0.73,0.73,0.7521,0.7901,0.0,0.0,0.0,0.0,0.0,0.0,0.0,0.0,0.0,0.0,0.8311,0.7937,0.7375,0.0,0.0,0.0,0.0,0.0,0.8292,0.8807,0.9579,1.0643,1.1136,1.1118,1.0054,0.9296,0.8268,0.6424,0.5469,0.4218,0.1789,-0.0047,-0.3021,-0.8541,-1.2538,-1.648,-2.0878,-2.0349,-1.9388,-1.9041,-1.8191,-1.7266,-1.6332,-1.5713,-1.4725,-1.3113,-1.2212,-1.125,-1.0113,-0.9368,-0.8945,-0.8811,-0.8938,-0.8938,-0.8804,-0.8804,-0.8804,-0.8804,-0.8049,-0.7509,-0.7074,-0.5977,-0.5324,-0.4948,-0.4625,-0.4519,-0.4519,-0.4519,-0.4519,-0.4519,-0.4519,-0.4525,-0.448,-0.4487,-0.449,-0.4497,0.0,0.0,0.0,0.0,0.0,0.0,0.0,0.0,0.0,0.0,0.0,0.0,0.0,0.0,0.0,0.0,0.0,0.0,0.0,0.0,1.0112,1.0506,1.036,1.0442,1.0839,1.0382,0.9719,0.882,0.7849,0.6765,0.557,0.5097,0.5388,0.6314,0.6061,0.6588,0.7574,0.73,0.7467,0.7901,0.0,0.0,0.0,0.0,0.0,0.0,0.0,0.0,0.0,0.0,0.0,0.0,0.0,0.0,0.0,0.6751,0.7047,0.7412,0.7516,0.7775,0.8085,0.8158,0.9005,0.9299,0.7201,0.5022,0.3,0.1512,0.0315,-0.0938,-0.2527,-0.4802,-0.8418,-1.453,-1.6425,-1.7955,-2.0507,-2.0053,-1.9546,-1.9709,-1.8089,-1.6905,-1.6629,-1.5431,-1.4099,-1.2822,-1.1956,-1.1044,-1.0087,-0.9263,-0.8804,-0.8804,-0.8804,-0.8804,-0.8804,-0.8646,-0.8533,-0.8533,-0.7777,-0.7074,-0.6312,-0.5601,-0.5003,-0.4519,-0.4519,-0.4519,-0.4519,-0.4519,-0.4519,-0.4522,-0.4522,-0.4473,-0.4428,-0.3699,-0.3875,-0.4501,0.0,0.0,0.0,0.0,0.0,0.0,0.0,0.0,0.0,0.0,0.0,0.0,0.0,0.0,0.0,0.0,0.0,0.0,0.0,0.0,0.9163,0.9302,0.9472,0.9751,1.0075,0.9628,0.8911,0.801,0.6752,0.5392,0.3961,0.448,0.5207,0.6056,0.6381,0.7025,0.7848,0.7574,0.7628,0.7901,0.7901,0.0,0.0,0.0,0.0,0.0,0.0,0.0,0.0,0.0,0.0,0.0,0.0,0.0,0.6715,0.6836,0.7125,0.7328,0.7105,0.7344,0.7527,0.7066,0.7722,0.758,0.3996,-0.0816,-0.4538,-0.466,-0.5387,-0.6193,-0.6687,-0.9152,-1.2148,-1.5452,-1.8091,-2.0364,-2.2194,-2.2246,-2.1757,-2.0756,-1.8915,-1.754,-1.7006,-1.5266,-1.3941,-1.3484,-1.2219,-1.1253,-1.0787,-0.951,-0.8804,-0.8804,-0.8804,-0.8804,-0.8804,-0.8103,-0.7777,-0.7777,-0.702,-0.6308,-0.5542,-0.4897,-0.4574,-0.4519,-0.4519,-0.4519,-0.4519,-0.4519,-0.4525,-0.4477,-0.4477,-0.449,-0.4166,-0.1345,-0.2076,-0.4511,0.0,0.0,0.0,0.0,0.0,0.0,0.0,0.0,0.0,0.0,0.0,0.0,0.0,0.0,0.0,0.0,0.0,0.0,0.0,0.0,0.899,0.9295,0.9222,0.9326,0.963,0.9014,0.8222,0.7328,0.5569,0.4477,0.4069,0.4481,0.5251,0.6262,0.6706,0.73,0.7901,0.7515,0.7456,0.7509,0.7187,0.7246,0.0,0.0,0.0,0.0,0.0,0.0,0.0,0.0,0.6957,0.693,0.647,0.6355,0.6404,0.6538,0.6702,0.6816,0.681,0.7104,0.7302,0.6907,0.5259,0.3037,0.0444,-0.4125,-0.8151,-0.9137,-1.0073,-1.0708,-1.0765,-1.2847,-1.5017,-1.6317,-1.8516,-2.0258,-2.0921,-2.0964,-2.0649,-1.9775,-1.7942,-1.6598,-1.6142,-1.4635,-1.3574,-1.3154,-1.1855,-1.1013,-1.0821,-0.9517,-0.8804,-0.8804,-0.8804,-0.8804,-0.8804,-0.8049,-0.745,-0.702,-0.6253,-0.576,-0.5487,-0.4787,-0.4519,-0.4519,-0.4519,-0.4522,-0.4473,-0.4473,-0.448,-0.449,-0.4497,-0.4507,-0.4113,-0.1119,-0.0727,-0.1959,0.0,0.0,0.0,0.0,0.0,0.0,0.0,0.0,0.0,0.0,0.0,0.0,0.0,0.0,0.0,0.0,0.0,0.0,0.0,0.8527,0.8593,0.8889,0.9002,0.9059,0.9178,0.8764,0.8067,0.7173,0.5288,0.4337,0.4346,0.4936,0.5673,0.657,0.7136,0.7467,0.7628,0.7348,0.7128,0.6907,0.6588,0.6588,0.0,0.0,0.0,0.0,0.0,0.0,0.0,0.0,0.6225,0.6254,0.6136,0.6136,0.6227,0.6404,0.6551,0.6699,0.6823,0.6919,0.6762,0.577,0.2556,-0.1131,-0.3873,-0.8147,-1.1874,-1.3225,-1.3703,-1.3811,-1.3532,-1.4788,-1.5999,-1.6402,-1.819,-1.9496,-1.946,-1.9661,-1.9473,-1.8597,-1.7006,-1.5758,-1.5277,-1.406,-1.3084,-1.2578,-1.1484,-1.072,-1.0517,-0.9413,-0.8804,-0.8804,-0.8804,-0.8699,-0.848,-0.7723,-0.6966,-0.6258,-0.5546,-0.5164,-0.5164,-0.4736,-0.4519,-0.4519,-0.4522,-0.4473,-0.4477,-0.3968,-0.4036,-0.4389,-0.3429,-0.3091,-0.2807,-0.0783,-0.0,-0.028,0.0,0.0,0.0,0.0,0.0,0.0,0.0,0.0,0.0,0.0,0.0,0.0,0.0,0.0,0.0,0.0,0.0,0.0,0.8073,0.7876,0.7753,0.7885,0.8657,0.8951,0.8717,0.8907,0.8545,0.7627,0.6066,0.5105,0.4659,0.5768,0.6542,0.6945,0.7617,0.7628,0.7085,0.7085,0.6756,0.6209,0.6209,0.6209,0.6209,0.0,0.0,0.0,0.0,0.0,0.0,0.0,0.5642,0.6072,0.587,0.5964,0.6227,0.6435,0.6768,0.7077,0.7077,0.6708,0.5707,0.3266,-0.0287,-0.4455,-0.9082,-1.3257,-1.632,-1.7066,-1.6248,-1.527,-1.4803,-1.47,-1.4865,-1.5416,-1.703,-1.8249,-1.8197,-1.8688,-1.859,-1.74,-1.6215,-1.5233,-1.4648,-1.3549,-1.2608,-1.1864,-1.1166,-1.0517,-0.9814,-0.9159,-0.8804,-0.8804,-0.8804,-0.8427,-0.7723,-0.6966,-0.6204,-0.5487,-0.4842,-0.4519,-0.4519,-0.4519,-0.4519,-0.4519,-0.4473,-0.448,-0.4366,-0.279,-0.3079,-0.4169,-0.1177,-0.0,-0.0,-0.0,-0.0,-0.0,0.0,0.0,0.0,0.0,0.0,0.0,0.0,0.0,0.0,0.0,0.0,0.0,0.0,0.0,0.0,0.0,0.0,0.0,0.8343,0.8034,0.8008,0.8293,0.8352,0.8679,0.9465,0.9779,0.9243,0.7902,0.7089,0.6848,0.7065,0.7215,0.75,0.7874,0.78,0.7509,0.7085,0.6647,0.5991,0.5281,0.4948,0.4725,0.4666,0.0,0.0,0.0,0.0,0.0,0.0,0.0,0.0,0.0,0.5652,0.5804,0.5933,0.6319,0.6459,0.6427,0.6159,0.6396,0.5706,0.1478,-0.2594,-0.673,-1.1062,-1.5459,-1.8493,-1.7963,-1.6896,-1.5805,-1.4759,-1.4995,-1.5072,-1.4293,-1.5413,-1.6276,-1.5822,-1.5868,-1.5856,-1.551,-1.4766,-1.4217,-1.4074,-1.2881,-1.203,-1.1814,-1.0762,-1.002,-0.9814,-0.9159,-0.8586,-0.8049,-0.8049,-0.767,-0.6912,-0.6199,-0.5706,-0.5487,-0.4842,-0.4519,-0.4519,-0.4519,-0.4519,-0.4519,-0.4473,-0.3858,-0.279,-0.1285,-0.0939,-0.1246,-0.0333,-0.0,-0.0,-0.0,-0.0,-0.0,0.0,0.0,0.0,0.0,0.0,0.0,0.0,0.0,0.0,0.0,0.0,0.0,0.0,0.0,0.0,0.0,0.0,0.0,0.0,0.0,0.8183,0.8457,0.8396,0.8763,0.9561,0.9923,0.9689,0.8959,0.837,0.8264,0.8516,0.8373,0.849,0.8778,0.8355,0.7877,0.7391,0.6529,0.5773,0.5007,0.4291,0.4012,0.3956,0.0,0.0,0.0,0.0,0.0,0.0,0.0,0.0,0.0,0.5101,0.5458,0.5782,0.627,0.6552,0.6693,0.6327,0.6033,0.466,-0.029,-0.4772,-0.9273,-1.4169,-1.7236,-1.8739,-1.7639,-1.6718,-1.5787,-1.476,-1.4944,-1.4992,-1.4172,-1.4721,-1.5107,-1.4744,-1.4698,-1.4514,-1.4029,-1.3606,-1.3168,-1.2638,-1.1904,-1.1157,-1.0629,-0.9828,-0.9117,-0.8547,-0.8143,-0.7723,-0.7289,-0.7235,-0.6907,-0.6145,-0.5706,-0.5382,-0.5117,-0.4684,-0.4525,-0.4477,-0.4525,-0.4525,-0.4525,-0.4487,-0.3302,-0.1229,-0.0392,-0.0,-0.0,-0.0,0.0728,0.1794,0.1794,0.14,0.0895,0.0,0.0,0.0,0.0,0.0,0.0,0.0,0.0,0.0,0.0,0.0,0.0,0.0,0.0,0.0,0.0,0.0,0.0,0.0,0.0,0.8377,0.8377,0.8748,0.9071,0.9274,0.9542,0.9902,1.0383,0.9761,0.9447,0.9479,0.943,0.9537,0.9762,0.919,0.8547,0.7894,0.6789,0.5878,0.5171,0.4236,0.3796,0.3741,0.3752,0.0,0.0,0.0,0.0,0.0,0.0,0.0,0.0,0.4403,0.5014,0.5717,0.6197,0.6864,0.741,0.7045,0.565,0.309,-0.1931,-0.6918,-1.1941,-1.7207,-1.8076,-1.7491,-1.6591,-1.5872,-1.5276,-1.4698,-1.456,-1.4514,-1.4457,-1.4411,-1.4411,-1.4365,-1.4354,-1.3924,-1.2764,-1.2619,-1.2132,-1.0914,-1.0661,-1.0084,-0.8783,-0.8574,-0.7953,-0.6691,-0.6588,-0.6588,-0.648,-0.648,-0.615,-0.5437,-0.5437,-0.5117,-0.448,-0.4366,-0.4314,-0.4268,-0.4428,-0.4473,-0.4519,-0.4497,-0.2794,-0.0,-0.0,-0.0,-0.0,0.0279,0.2069,0.4514,0.4511,0.3585,0.2389,0.0,0.0,0.0,0.0,0.0,0.0,0.0,0.0,0.0,0.0,0.0,0.0,0.0,0.0,0.0,0.0,0.0,0.0,0.0,0.0,0.8106,0.8313,0.8631,0.8849,0.8885,0.9285,0.9693,1.0109,1.0464,1.0915,1.1487,1.1014,1.0989,1.1266,1.0238,0.9252,0.8298,0.7427,0.6258,0.4952,0.4343,0.3793,0.3186,0.2742,0.2575,0.0,0.0,0.0,0.0,0.0,0.0,0.0,0.4043,0.4487,0.4975,0.5723,0.6225,0.6429,0.5773,0.5287,0.3354,-0.3156,-0.963,-1.4414,-1.4583,-1.4963,-1.5509,-1.6225,-1.5241,-1.4133,-1.4003,-1.3558,-1.3062,-1.2531,-1.2357,-1.2201,-1.1688,-1.1639,-1.1548,-1.1249,-1.1258,-1.1107,-1.0813,-0.982,-0.9044,-0.8731,-0.7688,-0.6902,-0.6642,-0.6588,-0.6312,-0.576,-0.576,-0.5386,-0.4746,-0.4691,-0.4646,-0.4494,-0.3297,-0.2679,-0.2736,-0.3925,-0.4488,-0.4499,-0.4515,-0.279,-0.0,-0.0,-0.0,0.026,0.2615,0.3905,0.4511,0.4504,0.4146,0.3616,0.0,0.0,0.0,0.0,0.0,0.0,0.0,0.0,0.0,0.0,0.0,0.0,0.0,0.0,0.0,0.0,0.0,0.0,0.0,0.0,0.0,0.8262,0.8397,0.8474,0.8362,0.8784,0.9075,0.9126,0.9699,1.0532,1.1719,1.1551,1.1642,1.199,1.0864,1.0077,0.9496,0.8013,0.6902,0.6023,0.4912,0.4133,0.3539,0.2943,0.2565,0.2245,0.2062,0.0,0.0,0.0,0.0,0.0,0.0,0.0,0.4316,0.4981,0.5726,0.6292,0.632,0.6144,0.4439,-0.1636,-0.6585,-1.0031,-1.0229,-1.0927,-1.1608,-1.1986,-1.2425,-1.2715,-1.2434,-1.2092,-1.1747,-1.1366,-1.1299,-1.114,-1.0864,-1.0493,-1.0171,-0.982,-0.9504,-0.9134,-0.8835,-0.8106,-0.7522,-0.7191,-0.6514,-0.5932,-0.5605,-0.5609,-0.5391,-0.5011,-0.5011,-0.4871,-0.449,-0.3767,-0.3743,-0.4513,-0.3694,-0.3316,-0.3324,-0.4158,-0.3698,-0.2347,-0.2336,-0.1433,-0.0,-0.0,0.0678,0.1879,0.3431,0.4124,0.4237,0.4308,0.4181,0.401,0.0,0.0,0.0,0.0,0.0,0.0,0.0,0.0,0.0,0.0,0.0,0.0,0.0,0.0,0.0,0.0,0.0,0.0,0.0,0.0,0.0,0.0,0.8115,0.8055,0.7848,0.8218,0.8281,0.8049,0.8383,0.9323,1.0814,1.1268,1.1661,1.2059,1.1184,1.0673,1.0324,0.8391,0.7413,0.7081,0.5544,0.4662,0.4192,0.3565,0.3044,0.2592,0.2468,0.2284,0.1997,0.178,0.0,0.0,0.0,0.0,0.3619,0.4195,0.5139,0.6192,0.7051,0.695,0.5828,0.216,-0.0697,-0.2987,-0.4521,-0.5844,-0.6542,-0.5964,-0.8726,-1.1048,-1.0527,-1.0332,-1.0238,-1.0238,-1.0136,-1.0084,-1.0084,-0.9541,-0.8964,-0.8416,-0.7776,-0.7256,-0.681,-0.6593,-0.6268,-0.5723,-0.5445,-0.5062,-0.4522,-0.4522,-0.4473,-0.4484,-0.4229,-0.4219,-0.4488,-0.3224,-0.2963,-0.3711,-0.3711,-0.3705,-0.3698,-0.3281,-0.1729,0.0576,0.0159,0.0105,0.0311,0.0521,0.1696,0.3324,0.3534,0.3773,0.3899,0.4123,0.407,0.3999,0.0,0.0,0.0,0.0,0.0,0.0,0.0,0.0,0.0,0.0,0.0,0.0,0.0,0.0,0.0,0.0,0.0,0.0,0.0,0.0,0.0,0.7943,0.7836,0.7777,0.7723,0.7518,0.744,0.75,0.7499,0.7963,0.89,0.991,1.075,1.1327,1.0895,1.014,0.912,0.8242,0.7188,0.616,0.5493,0.4989,0.4534,0.3786,0.3435,0.3301,0.2696,0.2409,0.2181,0.1819,0.1817,0.0,0.0,0.0,0.2951,0.3541,0.4274,0.5045,0.5702,0.6049,0.6704,0.8953,0.6072,0.2736,0.2858,0.1242,-0.0299,-0.0154,-0.4924,-0.9054,-0.8989,-0.8482,-0.8022,-0.8022,-0.7522,-0.7165,-0.7165,-0.7058,-0.7004,-0.6902,-0.6799,-0.6864,-0.7231,-0.6514,-0.6137,-0.6449,-0.5325,-0.4601,-0.449,-0.449,-0.4494,-0.4494,-0.3204,-0.3151,-0.4502,-0.4319,-0.3003,-0.0605,-0.0605,-0.0596,-0.0531,0.1559,0.2718,0.3026,0.0932,0.0604,0.1652,0.2678,0.2706,0.2156,0.3378,0.3889,0.3886,0.3999,0.3955,0.3826,0.0,0.0,0.0,0.0,0.0,0.0,0.0,0.0,0.0,0.0,0.0,0.0,0.0,0.0,0.0,0.0,0.0,0.0,0.0,0.0,0.0,0.7136,0.6932,0.688,0.688,0.6892,0.6756,0.6433,0.656,0.6832,0.73,0.7946,0.8925,1.0105,0.9592,0.8998,0.835,0.7383,0.6733,0.6251,0.5748,0.5486,0.538,0.4642,0.4274,0.4065,0.3324,0.2752,0.2259,0.1771,0.1593,0.1558,0.1271,0.0,0.0,0.0,0.3114,0.4496,0.7556,0.9642,1.1364,1.3218,1.2224,1.0636,0.9978,0.8516,0.6997,0.607,0.3535,0.0255,-0.3702,-0.452,-0.4835,-0.5676,-0.5533,-0.5671,-0.6485,-0.6623,-0.6589,-0.6589,-0.5914,-0.5525,-0.5758,-0.457,-0.3901,-0.4132,-0.3577,-0.3188,-0.3188,-0.3188,-0.3588,-0.4448,-0.3857,-0.3009,-0.1968,-0.1998,-0.0629,0.2036,0.2036,0.164,0.1059,0.2112,0.2962,0.3557,0.2473,0.1944,0.1898,0.3081,0.3298,0.2852,0.3488,0.3748,0.3741,0.3863,0.3799,0.3683,0.0,0.0,0.0,0.0,0.0,0.0,0.0,0.0,0.0,0.0,0.0,0.0,0.0,0.0,0.0,0.0,0.0,0.0,0.0,0.0,0.0,0.6457,0.6211,0.6108,0.6108,0.6319,0.6149,0.5564,0.5783,0.593,0.5996,0.6301,0.7098,0.8281,0.8011,0.7647,0.719,0.6382,0.5971,0.583,0.5831,0.5753,0.5644,0.5448,0.507,0.4553,0.4005,0.329,0.252,0.1778,0.1418,0.1214,0.0726,0.0628,0.0,0.0,0.0,0.4191,0.8308,1.1661,1.4389,1.5955,1.678,1.6987,1.618,1.4961,1.3572,1.2069,1.1226,0.9118,0.3767,0.0836,-0.1295,-0.2774,-0.2828,-0.3217,-0.4743,-0.4765,-0.4721,-0.4901,-0.4015,-0.3352,-0.3352,-0.2339,-0.1503,-0.1113,-0.1058,-0.1058,-0.1058,-0.116,-0.1708,-0.2879,-0.2918,-0.184,0.0448,0.0479,0.1341,0.3149,0.3471,0.3146,0.2237,0.2259,0.2765,0.3588,0.3617,0.3078,0.2337,0.3237,0.3595,0.3592,0.3612,0.3585,0.3636,0.3876,0.3802,0.364,0.0,0.0,0.0,0.0,0.0,0.0,0.0,0.0,0.0,0.0,0.0,0.0,0.0,0.0,0.7629,0.7298,0.0,0.0,0.0,0.0,0.0,0.6304,0.601,0.0,0.5798,0.5717,0.5514,0.5232,0.5217,0.5203,0.5188,0.5588,0.568,0.555,0.6349,0.6173,0.5236,0.5333,0.4854,0.4164,0.552,0.538,0.4521,0.5917,0.5566,0.4412,0.4603,0.4018,0.3094,0.1947,0.1482,0.1168,0.0449,0.0448,0.0671,0.0,0.0,0.0,0.5787,0.9114,1.308,1.7088,1.871,1.9648,2.0849,1.9826,1.8432,1.7651,1.579,1.4141,1.3591,0.7711,0.2464,0.1034,0.1413,0.136,-0.011,0.0274,0.0438,-0.0276,-0.0276,-0.0221,-0.0222,-0.0166,0.0444,0.1839,0.195,0.195,0.195,0.1733,0.1544,0.149,0.1489,0.1526,0.1715,0.1691,0.1789,0.1921,0.3051,0.3551,0.3506,0.3503,0.3547,0.3602,0.3615,0.3549,0.3499,0.3592,0.3588,0.3581,0.3588,0.3588,0.3667,0.4188,0.4056,0.3667,0.0,0.0,0.0,0.0,0.0,0.0,0.0,0.0,0.0,0.0,0.0,0.0,0.0,0.7222,0.669,0.6767,0.631,0.0,0.0,0.0,0.0,0.4744,0.4346,0.4185,0.433,0.4433,0.4521,0.4497,0.4585,0.4714,0.4927,0.4971,0.514,0.5443,0.5561,0.5346,0.4879,0.4792,0.4355,0.3884,0.4924,0.5076,0.4755,0.5158,0.5227,0.4978,0.4607,0.3488,0.2064,0.1291,0.0611,0.0046,-0.0586,-0.0715,-0.0537,-0.0089,0.1557,0.3556,0.5184,0.7017,0.9649,1.4552,1.7716,1.9956,2.1153,2.1696,2.1716,2.0952,1.9323,1.7725,1.6619,1.2027,0.7853,0.6248,0.5168,0.4824,0.5537,0.5058,0.4515,0.4245,0.4245,0.4249,0.4252,0.4252,0.4005,0.3396,0.334,0.3366,0.3362,0.3267,0.3141,0.2985,0.2939,0.2965,0.2933,0.2934,0.2954,0.2948,0.3404,0.3588,0.3588,0.3581,0.3581,0.3585,0.3597,0.3587,0.3581,0.3581,0.3581,0.3581,0.3581,0.3792,0.4136,0.4347,0.4264,0.4136,0.0,0.0,0.0,0.0,0.0,0.0,0.0,0.0,0.0,0.0,0.0,0.0,0.0,0.0,0.5931,0.5995,0.5457,0.5012,0.4741,0.4307,0.3988,0.3918,0.3322,0.3108,0.3229,0.3721,0.3988,0.0,0.0,0.4377,0.4495,0.453,0.4787,0.5188,0.5231,0.5101,0.484,0.4583,0.4184,0.3891,0.5038,0.5079,0.4511,0.5654,0.5539,0.468,0.3611,0.2232,0.0779,-0.0302,-0.0844,-0.1127,-0.1547,-0.164,-0.1432,-0.0716,0.0636,0.2259,0.3842,0.5061,0.6733,1.0218,1.3923,1.7409,1.999,2.1615,2.2644,2.2772,2.1824,2.0589,1.9326,1.6373,1.3189,1.0387,0.8919,0.8362,0.8967,0.8037,0.7235,0.6961,0.6761,0.6603,0.6603,0.6603,0.6103,0.4945,0.4881,0.4819,0.4723,0.4711,0.4526,0.4168,0.4152,0.418,0.4156,0.4156,0.4152,0.4188,0.4188,0.4056,0.388,0.388,0.3751,0.3581,0.3581,0.3595,0.355,0.3602,0.3551,0.3507,0.3774,0.4092,0.443,0.4609,0.4691,0.4691,0.0,0.0,0.0,0.0,0.0,0.0,0.0,0.0,0.0,0.9306,0.0,0.0,0.0,0.0,0.0,0.4874,0.4638,0.4492,0.4492,0.4296,0.4063,0.3831,0.0,0.0,0.0,0.0,0.0,0.0,0.0,0.0,0.0,0.422,0.4434,0.4618,0.5226,0.5313,0.5005,0.4748,0.4351,0.4112,0.5929,0.5385,0.3808,0.7348,0.6589,0.3363,0.1717,0.0443,-0.078,-0.2762,-0.2871,-0.2156,-0.2359,-0.2172,-0.183,-0.1298,-0.0626,0.0268,0.0,0.0,0.0,0.4497,0.7666,1.2152,1.7488,1.968,2.1131,2.3035,2.3105,2.2649,2.2122,2.0719,1.8106,1.3379,1.2612,1.1918,1.0,0.9233,0.8561,0.7811,0.7154,0.6745,0.6745,0.6745,0.6686,0.6681,0.6681,0.6579,0.6288,0.6131,0.5867,0.5382,0.5356,0.5356,0.5356,0.5351,0.5346,0.5346,0.5346,0.5,0.443,0.443,0.4132,0.3615,0.3619,0.3526,0.3434,0.355,0.3483,0.3354,0.4101,0.4382,0.447,0.5034,0.5298,0.5303,0.0,0.0,0.0,0.0,0.0,0.0,0.0,0.0,0.9276,0.0,0.0,0.0,0.6597,0.4405,0.2539,0.1497,0.1328,0.1297,0.1404,0.1405,0.1483,0.1594,0.1508,0.1561,0.0,0.0,0.0,0.0,0.0,0.0,0.0,0.0,0.0,0.4403,0.4705,0.5005,0.5221,0.5226,0.5048,0.4854,0.5704,0.5327,0.4462,0.6009,0.4966,0.2515,0.209,-0.0657,-0.4011,-0.4386,-0.3779,-0.2877,-0.2827,-0.2514,-0.2144,-0.2012,-0.152,-0.085,-0.0134,0.0,0.0,0.0,0.0,0.0,1.1375,1.6144,2.0092,1.935,2.0047,2.0763,2.0623,2.0607,2.0058,1.8315,1.6406,1.4718,1.3346,1.2177,1.1251,1.0614,1.0003,0.9614,0.9614,0.9614,0.9358,0.8755,0.8684,0.8398,0.7663,0.7626,0.7516,0.74,0.7115,0.6969,0.6969,0.6623,0.6475,0.6433,0.6077,0.5786,0.5615,0.4769,0.4448,0.4494,0.3703,0.3622,0.3932,0.3548,0.3283,0.3198,0.3472,0.3868,0.4286,0.4453,0.4834,0.5283,0.0,0.0,0.0,0.0,0.0,0.0,0.8442,0.8312,0.8139,0.0,0.0,0.0,0.3775,0.1954,0.0407,-0.0715,-0.148,-0.1835,-0.1784,-0.1027,-0.0437,-0.0167,0.011,0.0494,0.1007,0.0,0.0,0.0,0.0,0.0,0.0,0.0,0.0,0.0,0.4001,0.4391,0.4908,0.5135,0.5265,0.544,0.6457,0.5971,0.4684,0.5728,0.4848,0.2887,0.1718,-0.0614,-0.3313,-0.4542,-0.458,-0.4037,-0.345,-0.2957,-0.2549,-0.2415,-0.2057,-0.1655,-0.1385,-0.1025,-0.0221,0.1698,0.0,0.0,0.7877,1.1919,1.5487,1.6157,1.7349,1.8485,1.9162,1.9818,2.0276,2.0237,1.8759,1.713,1.577,1.4294,1.3138,1.2619,1.1997,1.1603,1.1603,1.1603,1.1398,1.0893,1.0828,1.0561,0.9893,0.9773,0.9698,0.9698,0.9261,0.8918,0.8668,0.8198,0.784,0.7658,0.7335,0.6859,0.6249,0.56,0.5076,0.464,0.4046,0.3915,0.4151,0.3653,0.3375,0.3343,0.3507,0.3814,0.4129,0.4324,0.4798,0.5376,0.0,0.0,0.0,0.7841,0.7977,0.7866,0.7271,0.709,0.6637,0.0,0.4408,0.2576,-0.0199,-0.0875,-0.1419,-0.22,-0.3661,-0.4539,-0.4415,-0.2905,-0.1845,-0.1453,-0.112,-0.0561,0.0224,0.1171,0.0,0.0,0.0,0.0,0.0,0.0,0.0,0.0,0.0,0.0,0.4168,0.4517,0.4893,0.5473,0.7452,0.6918,0.5027,0.6124,0.5604,0.3997,0.1477,0.0369,-0.0489,-0.3947,-0.5197,-0.5087,-0.3969,-0.3319,-0.2855,-0.2558,-0.2333,-0.2205,-0.2201,-0.2018,-0.1701,-0.1248,-0.0221,0.0,0.5707,0.7335,0.9045,1.2728,1.4425,1.5734,1.7269,1.8187,1.8937,1.9687,1.9391,1.8584,1.7304,1.5721,1.4485,1.3882,1.3361,1.299,1.2905,1.3037,1.3074,1.3037,1.3074,1.2985,1.2679,1.242,1.2298,1.2298,1.1727,1.1146,1.0634,1.0045,0.9503,0.903,0.8907,0.8135,0.6845,0.6655,0.5837,0.4605,0.4493,0.4406,0.4272,0.3822,0.3616,0.3602,0.3858,0.3969,0.4007,0.4413,0.4953,0.5478,0.0,0.0,0.6096,0.6309,0.6133,0.5791,0.5179,0.475,0.4116,0.3063,0.1196,-0.066,-0.228,-0.3201,-0.3738,-0.3902,-0.4559,-0.4682,-0.4084,-0.352,-0.3014,-0.2458,-0.1733,-0.1175,-0.0673,0.0109,0.0747,0.0,0.0,0.0,0.0,0.0,0.0,0.0,0.0,0.2674,0.3296,0.3649,0.3488,0.3139,0.6036,0.7114,0.6913,0.6829,0.6141,0.5118,0.4565,0.245,-0.049,-0.3827,-0.4826,-0.4509,-0.3524,-0.3048,-0.2827,-0.2463,-0.252,-0.2662,-0.2211,-0.2326,-0.2462,-0.2188,-0.2142,0.0,0.1189,0.33,0.5089,0.6419,0.9109,1.1582,1.268,1.4037,1.5373,1.6641,1.6074,1.5896,1.7022,1.6528,1.5648,1.463,1.4744,1.4767,1.4332,1.5091,1.5409,1.4969,1.5365,1.5555,1.5501,1.5447,1.5441,1.5441,1.4489,1.3733,1.3271,1.2287,1.1623,1.1185,1.026,0.952,0.8968,0.7589,0.6613,0.5868,0.5086,0.4854,0.5035,0.4252,0.3685,0.3365,0.3593,0.3665,0.3737,0.4123,0.4744,0.5305,0.0,0.4429,0.4595,0.4882,0.4665,0.4208,0.3466,0.2649,0.1735,0.0687,-0.1571,-0.3531,-0.4738,-0.531,-0.557,-0.5443,-0.5301,-0.5002,-0.4561,-0.3941,-0.3569,-0.3456,-0.2567,-0.1845,-0.1344,-0.0716,-0.0054,0.0,0.0,0.0,0.0,0.0,0.0,0.0,0.0,0.1761,0.2573,0.2192,0.1963,0.2165,0.4603,0.4967,0.4107,0.4643,0.4345,0.3801,0.4005,0.2293,-0.0234,-0.1901,-0.2832,-0.3295,-0.2814,-0.2766,-0.2747,-0.2069,-0.2014,-0.2123,-0.2129,-0.2239,-0.2375,-0.237,-0.2373,0.0,0.0,0.0415,0.2057,0.3186,0.5409,0.7664,0.9359,1.0875,1.2301,1.3541,1.3378,1.3351,1.4039,1.4924,1.5336,1.5081,1.5592,1.6053,1.6366,1.6876,1.707,1.6834,1.7029,1.7289,1.7531,1.733,1.7156,1.706,1.6027,1.5125,1.4312,1.3496,1.2628,1.1687,1.1114,1.0295,0.9228,0.8176,0.7312,0.6601,0.5956,0.5627,0.5554,0.4877,0.4328,0.3923,0.3841,0.3782,0.385,0.4246,0.4762,0.5262,0.2621,0.289,0.3098,0.3363,0.3071,0.2585,0.1828,0.0736,-0.0501,-0.1817,-0.4295,-0.6343,-0.7276,-0.7727,-0.7786,-0.7343,-0.6592,-0.5981,-0.5597,-0.4576,-0.4051,-0.4222,-0.3357,-0.2633,-0.2146,-0.1404,-0.0718,-0.0054,0.0,0.0,0.0,0.0,0.0,0.1424,0.065,0.0872,0.1734,0.0273,-0.0046,0.0433,0.1509,0.1581,0.1123,0.2294,0.2509,0.2138,0.2164,0.1262,-0.0,-0.0,-0.0764,-0.1767,-0.1796,-0.2035,-0.2197,-0.1501,-0.1197,-0.1239,-0.1773,-0.1973,-0.2062,-0.2192,-0.2059,-0.2035,0.0,0.0,0.0,0.1015,0.2509,0.4181,0.6264,0.7852,0.9133,1.0051,1.0381,1.045,1.034,1.2192,1.3959,1.5075,1.6083,1.7083,1.8143,1.8377,1.8569,1.8646,1.8646,1.8806,1.9185,1.8844,1.8533,1.8223,1.73,1.6227,1.5012,1.4436,1.3427,1.1968,1.1858,1.0892,0.9232,0.8774,0.8049,0.7123,0.6862,0.6457,0.5975,0.5619,0.5212,0.4788,0.4312,0.4118,0.4183,0.466,0.5061,0.5401,0.0784,0.1118,0.1213,0.122,0.0842,0.0368,-0.0052,-0.0892,-0.2332,-0.4877,-0.7711,-0.9489,-0.9451,-1.1072,-1.1587,-1.0238,-0.9487,-0.8503,-0.6999,-0.6063,-0.517,-0.4262,-0.3744,-0.3396,-0.3212,-0.2209,-0.1282,-0.0334,0.0,0.0,0.0,0.0,0.0,-0.0363,-0.0233,0.0093,0.0271,-0.1931,-0.3553,-0.4699,-0.599,-0.2897,0.2598,0.288,0.2669,0.2041,0.0779,0.0172,-0.0,-0.0,-0.0109,-0.0276,-0.0259,-0.0264,-0.0381,-0.0688,-0.0488,-0.0296,-0.0961,-0.1478,-0.1839,-0.1837,-0.2194,-0.2511,-0.2438,0.0,-0.171,-0.1263,0.0,0.1467,0.268,0.0,0.0,0.5423,0.582,0.6483,0.748,0.898,1.1104,1.4249,1.6421,1.791,1.8664,1.9459,2.0153,2.0634,2.0667,2.0699,2.0748,2.0699,2.0367,1.9688,1.8963,1.7882,1.6377,1.5728,1.4673,1.3276,1.2808,1.1849,1.0479,0.9892,0.8903,0.7618,0.7589,0.7139,0.6427,0.6358,0.6121,0.5665,0.4852,0.4538,0.4628,0.5446,0.5789,0.5882,-0.0338,-0.0,0.0111,-0.0107,-0.0372,-0.0797,-0.1487,-0.3009,-0.4835,-0.7057,-0.891,-1.0179,-1.0506,-1.1499,-1.1748,-1.0854,-0.9926,-0.9183,-0.8553,-0.7239,-0.6339,-0.6045,-0.5465,-0.4777,-0.4036,-0.3227,-0.2676,-0.2244,-0.1768,0.0,0.0,0.0,0.0,-0.0527,-0.1046,-0.1248,-0.137,-0.3755,-0.5385,-0.655,-0.8146,-0.6392,-0.2878,-0.2974,-0.1935,-0.0326,-0.0111,-0.0,-0.0,-0.0,0.1163,0.2625,0.2605,0.1728,0.059,0.0401,0.0391,0.0337,0.0045,-0.0365,-0.0878,-0.1398,-0.1641,-0.1935,-0.2563,-0.2549,-0.2368,-0.2273,0.0,0.0,0.0,0.0,0.0,0.0,0.3353,0.4264,0.5881,0.7451,0.9641,1.2904,1.4789,1.6674,1.8767,2.0002,2.0765,2.0991,2.118,2.1395,2.1622,2.1569,2.104,1.9992,1.9454,1.8398,1.6728,1.6029,1.5056,1.3897,1.31,1.2124,1.1026,1.0186,0.947,0.8885,0.8507,0.7897,0.7207,0.7207,0.6811,0.6213,0.5836,0.5564,0.5414,0.5758,0.6183,0.6609,-0.11,-0.0795,-0.0612,-0.0977,-0.1188,-0.1726,-0.2904,-0.4846,-0.6758,-0.8469,-1.0043,-1.1209,-1.1626,-1.2355,-1.2628,-1.206,-1.0974,-1.0228,-1.003,-0.8516,-0.7567,-0.7446,-0.6762,-0.5973,-0.4967,-0.4431,-0.4014,-0.3696,0.0,0.0,0.0,0.0,0.0,0.0,-0.2113,-0.2545,-0.2929,-0.5331,-0.7097,-0.8287,-0.9651,-0.9249,-0.767,-0.6724,-0.4907,-0.2569,-0.067,-0.0,0.0112,0.0942,0.2674,0.4507,0.4519,0.3341,0.1978,0.16,0.1302,0.1071,0.0795,0.047,-0.0142,-0.1424,-0.1664,-0.1766,-0.2608,-0.2815,-0.2771,-0.2765,-0.2341,0.0,0.0,0.0,-0.0043,0.0967,0.0,0.3021,0.4774,0.6354,0.8588,1.1808,1.3886,1.6113,1.8679,1.9988,2.0654,2.0555,2.1295,2.181,2.2038,2.2229,2.1694,2.0257,1.9883,1.8808,1.6942,1.6209,1.5328,1.4327,1.3405,1.2448,1.1505,1.0688,1.023,1.0007,0.9351,0.8646,0.7972,0.7993,0.7462,0.6661,0.679,0.6579,0.6213,0.6213,0.6601,0.7118,-0.1659,-0.1288,-0.0953,-0.1232,-0.1677,-0.2619,-0.4542,-0.6143,-0.7629,-0.8919,-1.1745,-1.353,-1.3058,-1.4775,-1.5675,-1.4949,-1.3632,-1.2418,-1.1314,-0.9978,-0.8725,-0.7566,-0.7173,-0.6733,-0.617,-0.5838,-0.5081,-0.3865,-0.3677,0.0,0.0,0.0,0.0,0.0,-0.3523,-0.3781,-0.4412,-0.6799,-0.9052,-1.1033,-1.1946,-1.1233,-0.9269,-0.5329,-0.4066,-0.4039,-0.1061,-0.0,0.0444,0.3353,0.4446,0.4487,0.4492,0.4429,0.4177,0.2899,0.2387,0.1945,0.0964,0.0687,0.0095,-0.2241,-0.2643,-0.2474,-0.2598,-0.2815,-0.299,-0.299,-0.2679,-0.2435,-0.2605,-0.1939,-0.1013,0.0084,0.1303,0.0,0.0,0.5572,0.7786,1.1243,1.4686,1.7252,1.8404,1.9369,1.9769,1.936,2.1213,2.2248,2.1932,2.2891,2.2629,2.0844,2.0573,1.944,1.7296,1.6541,1.5684,1.4665,1.394,1.3047,1.2061,1.177,1.127,1.0633,1.0032,0.9353,0.8684,0.8739,0.8096,0.7109,0.7501,0.7413,0.7059,0.7059,0.708,0.7148,-0.1687,-0.1733,-0.1781,-0.1976,-0.2442,-0.3398,-0.5408,-0.7112,-0.8918,-1.0949,-1.324,-1.4768,-1.5116,-1.5743,-1.5781,-1.4883,-1.4442,-1.3498,-1.1722,-1.1518,-1.0803,-0.9214,-0.8511,-0.7797,-0.6889,-0.6388,-0.5597,-0.4417,-0.4831,-0.5023,0.0,0.0,0.0,0.0,-0.3466,-0.3982,-0.499,-0.6313,-0.8207,-1.0272,-1.0812,-1.0093,-0.8509,-0.6416,-0.5163,-0.4353,-0.3355,-0.1677,0.0447,0.3495,0.4522,0.449,0.4484,0.4318,0.3997,0.347,0.2876,0.215,0.1213,0.0815,0.0457,-0.0482,-0.1394,-0.206,-0.2127,-0.2277,-0.2565,-0.3098,-0.261,-0.2205,-0.2497,-0.2057,-0.1273,-0.0219,0.0619,0.1775,0.0,0.5727,0.8054,1.0458,1.3459,1.565,1.6439,1.7713,1.8592,1.8824,2.0605,2.1859,2.2276,2.3621,2.3479,2.1533,2.1179,2.0032,1.7932,1.6496,1.5694,1.5488,1.3939,1.3083,1.2862,1.2081,1.1584,1.1314,1.0766,0.9913,0.8936,0.9311,0.8443,0.6973,0.7779,0.751,0.6668,0.6977,0.7275,0.7559,-0.1744,-0.1992,-0.2217,-0.251,-0.3173,-0.4278,-0.6161,-0.8419,-1.0624,-1.2474,-1.4418,-1.5676,-1.5946,-1.5935,-1.5523,-1.4582,-1.459,-1.3891,-1.221,-1.2298,-1.1614,-1.0017,-0.9372,-0.8497,-0.7213,-0.6681,-0.5923,-0.4948,-0.5328,-0.5308,0.0,0.0,0.0,0.0,-0.3388,-0.3939,-0.5324,-0.5801,-0.7426,-0.9591,-0.9923,-0.9161,-0.7695,-0.6931,-0.5617,-0.4168,-0.3788,-0.2068,0.0391,0.2858,0.4042,0.4487,0.4477,0.4348,0.4107,0.4012,0.3199,0.2092,0.0996,0.0581,0.0421,0.0301,-0.045,-0.1294,-0.1748,-0.1912,-0.2162,-0.2656,-0.2701,-0.2542,-0.2315,-0.1685,-0.1013,-0.0358,0.0447,0.1557,0.0,0.5348,0.7272,0.898,1.1564,1.3607,1.4597,1.5786,1.6819,1.756,1.971,2.1351,2.2152,2.3906,2.3964,2.195,2.1616,2.0462,1.8368,1.6978,1.6197,1.6011,1.4487,1.3633,1.3378,1.2609,1.2182,1.1989,1.1424,1.0607,0.9648,0.9699,0.8815,0.746,0.813,0.7633,0.6612,0.7121,0.7471,0.7754,-0.1813,-0.21,-0.2443,-0.3035,-0.4095,-0.5407,-0.6966,-1.0208,-1.2708,-1.3423,-1.5332,-1.6393,-1.5747,-1.5639,-1.5225,-1.4264,-1.417,-1.3685,-1.2691,-1.2193,-1.1384,-0.9956,-0.9719,-0.8799,-0.7153,-0.6747,-0.6106,-0.5372,-0.5186,-0.5184,0.0,0.0,0.0,0.0,-0.3259,-0.3759,-0.5265,-0.5293,-0.6721,-0.9115,-0.9413,-0.8522,-0.7048,-0.6723,-0.5387,-0.3526,-0.2536,-0.1169,0.0445,0.1839,0.3294,0.4477,0.4522,0.4519,0.4522,0.449,0.3413,0.1898,0.0392,-0.0,-0.0,-0.0,-0.0,-0.0303,-0.1458,-0.1709,-0.1711,-0.172,-0.2678,-0.3166,-0.1994,-0.1031,-0.0344,-0.0313,0.0627,0.1875,0.3416,0.4405,0.5503,0.6872,0.9151,1.1271,1.2866,1.3679,1.4523,1.5604,1.8612,2.0715,2.1507,2.3767,2.4128,2.2139,2.1905,2.0802,1.8713,1.7897,1.7098,1.6302,1.55,1.4579,1.3615,1.3394,1.3054,1.2594,1.1943,1.1344,1.0685,0.9918,0.9126,0.8406,0.8465,0.7812,0.6896,0.7466,0.7705,0.7783,-0.1767,-0.2793,-0.4179,-0.5946,-0.682,-0.7838,-0.955,-1.2755,-1.5128,-1.5528,-1.7213,-1.8089,-1.72,-1.6059,-1.5032,-1.4191,-1.4081,-1.3317,-1.1581,-1.255,-1.2216,-0.9968,-0.9583,-0.866,-0.7158,-0.6837,-0.6093,-0.47,-0.5329,-0.509,-0.4123,0.0,0.0,0.0,-0.2549,-0.2759,-0.3633,-0.3638,-0.5016,-0.7269,-0.805,-0.7687,-0.6643,-0.6603,-0.528,-0.3319,-0.2483,0.0167,0.3423,0.3758,0.4147,0.4477,0.4522,0.4519,0.4522,0.448,0.3408,0.1896,0.0391,-0.0,-0.0,-0.0,-0.0,-0.0104,-0.0406,-0.0604,-0.0761,-0.0782,-0.1011,-0.1277,-0.1336,-0.0669,-0.0184,-0.036,0.0223,0.1067,0.2211,0.2822,0.3633,0.49,0.6093,0.7812,1.0361,1.1645,1.2873,1.4132,1.7025,1.9287,2.0644,2.3025,2.3929,2.3005,2.2301,2.1356,2.0101,1.8374,1.7149,1.6443,1.5528,1.473,1.4024,1.3539,1.3227,1.3056,1.1854,1.0868,1.0102,0.9636,0.8516,0.7155,0.7852,0.777,0.7261,0.7249,0.7619,0.8195,-0.1882,-0.3577,-0.5445,-0.7292,-0.8885,-1.0213,-1.1108,-1.3826,-1.598,-1.6448,-1.7424,-1.7802,-1.6995,-1.5527,-1.4212,-1.335,-1.3122,-1.232,-1.0712,-1.1191,-1.0812,-0.9146,-0.8675,-0.7968,-0.6765,-0.6554,-0.582,-0.4474,-0.4425,-0.414,-0.3648,0.0,0.0,0.0,-0.1435,-0.1452,-0.208,-0.2709,-0.3897,-0.551,-0.7173,-0.7131,0.0,-0.6707,-0.5671,-0.3776,-0.334,-0.0334,0.3591,0.4268,0.4487,0.4525,0.4519,0.4519,0.4519,0.4477,0.3858,0.2901,0.1395,0.0949,0.0946,0.0982,0.0489,-0.0,-0.0,-0.0106,-0.0213,-0.0217,-0.0212,-0.0259,-0.0368,-0.0,0.0097,-0.0648,-0.0045,0.0758,0.1375,0.1621,0.1984,0.2718,0.3161,0.4391,0.6902,0.8996,1.093,1.2659,1.552,1.7912,1.9575,2.163,2.2814,2.2955,2.1285,2.048,2.0726,1.8898,1.7539,1.6671,1.6223,1.5379,1.4188,1.3768,1.3393,1.3057,1.1879,1.1129,1.0651,0.9796,0.8776,0.7703,0.7362,0.7394,0.7623,0.7306,0.766,0.8336,-0.2338,-0.4464,-0.6515,-0.7967,-1.0461,-1.2154,-1.2081,-1.4249,-1.6027,-1.6417,-1.6562,-1.6334,-1.5686,-1.4179,-1.2885,-1.2055,-1.1469,-1.0834,-0.9909,-0.9313,-0.8644,-0.8047,-0.7535,-0.6972,-0.6306,-0.5837,-0.5173,-0.4201,-0.3066,-0.2821,0.0,0.0,0.0,0.0,-0.005,-0.015,-0.0695,-0.2391,-0.3442,-0.419,-0.6842,-0.7012,-0.5764,-0.6949,-0.6082,-0.4154,-0.3993,-0.1283,0.2456,0.3981,0.448,0.4519,0.4519,0.4519,0.4519,0.4473,0.4477,0.4196,0.2845,0.251,0.2512,0.2512,0.1562,0.0558,0.0335,0.0112,-0.0,-0.0,-0.0,0.0108,0.0554,0.0739,0.0449,-0.0675,-0.0,0.0681,0.0815,0.0656,0.0567,0.0725,0.0765,0.0,0.322,0.6131,0.884,1.1074,1.415,1.6553,1.7983,1.9686,2.0692,2.0979,1.9063,1.8542,1.9582,1.8992,1.8005,1.668,1.696,1.6054,1.4107,1.3984,1.3491,1.2672,1.1858,1.1498,1.1393,0.999,0.9279,0.8902,0.7103,0.7049,0.7907,0.7526,0.7831,0.8477,-0.4286,-0.5864,-0.7565,-0.9639,-1.0947,-1.2059,-1.3202,-1.5266,-1.616,-1.4746,-1.5213,-1.5097,-1.37,-1.2065,-1.1003,-1.0814,-0.9658,-0.8883,-0.8685,-0.9408,-0.9265,-0.8051,-0.698,-0.6421,-0.6302,-0.4517,-0.3301,-0.2797,-0.2773,-0.2316,0.0,0.0,0.0121,0.102,0.0981,0.08,0.0222,-0.293,-0.4292,-0.4599,-0.7835,-0.8034,-0.648,-0.7171,-0.5391,-0.2456,-0.1226,0.0501,0.2456,0.3981,0.448,0.4519,0.4519,0.4519,0.4519,0.4519,0.4473,0.4421,0.4193,0.4089,0.4095,0.4095,0.3925,0.336,0.212,0.0893,-0.0,-0.0,-0.0,-0.0,0.0108,0.0881,0.1405,0.1095,0.0643,0.0394,0.0541,-0.0,-0.0398,-0.0198,0.0344,0.0737,0.0787,0.3948,0.6927,0.9202,1.3128,1.5211,1.4776,1.7035,1.6732,1.3129,1.5388,1.5383,1.277,1.7023,1.7944,1.551,1.6258,1.5567,1.3624,1.3981,1.3298,1.1803,1.1253,1.0601,0.986,0.926,0.8755,0.8322,0.7743,0.7628,0.7749,0.7855,0.8453,0.9209,-0.5464,-0.6893,-0.8326,-0.9769,-1.0625,-1.1434,-1.2288,-1.2926,-1.3621,-1.4535,-1.4363,-1.3648,-1.2409,-1.0809,-0.9685,-0.9227,-0.8173,-0.7517,-0.7517,-0.7581,-0.689,-0.5352,-0.4719,-0.3958,-0.3081,-0.4192,-0.3525,-0.0892,-0.0822,-0.0879,-0.1055,0.0192,0.0992,0.1441,0.1744,0.1417,0.0491,-0.2967,-0.4704,-0.5315,-0.7649,-0.8057,-0.7234,-0.7083,-0.5478,-0.2912,0.0948,0.2796,0.3524,0.4262,0.4477,0.4519,0.4519,0.4519,0.4519,0.4519,0.4522,0.4525,0.4525,0.4473,0.448,0.448,0.4484,0.4317,0.3577,0.285,0.2124,0.1283,0.0559,-0.0,-0.0,0.1062,0.2175,0.2958,0.2192,0.1356,0.0752,0.0102,-0.0051,0.0706,0.0755,0.075,0.0932,0.237,0.419,0.6335,1.1339,1.3524,1.181,1.3219,1.2374,0.8693,0.7647,0.6857,0.6182,0.9979,1.1576,1.0992,1.4652,1.5213,1.3036,1.3221,1.2622,1.1342,1.0527,1.004,0.975,0.888,0.8575,0.8585,0.7879,0.7818,0.8146,0.8453,0.8917,0.9369,-0.6308,-0.762,-0.8748,-0.9352,-1.0033,-1.0606,-1.0831,-1.0309,-1.0908,-1.3746,-1.2858,-1.1675,-1.0914,-0.961,-0.8484,-0.7762,-0.6915,-0.6396,-0.64,-0.5767,-0.477,-0.3353,-0.2532,-0.1441,-0.0,-0.3239,-0.3031,0.0943,0.1211,0.0598,-0.0716,0.0775,0.144,0.1481,0.188,0.1385,0.0164,-0.2989,-0.4905,-0.6024,-0.7281,-0.7681,-0.7351,-0.6447,-0.5452,-0.3769,0.1958,0.4216,0.4494,0.448,0.4525,0.4519,0.4519,0.4519,0.4519,0.4519,0.4625,0.4736,0.4736,0.4846,0.4897,0.4732,0.4688,0.4695,0.4532,0.4484,0.415,0.2959,0.1505,0.0447,0.0448,0.1696,0.306,0.4234,0.3672,0.2722,0.1727,0.1145,0.1,0.1445,0.1373,0.1501,0.2059,0.1832,0.2513,0.4484,0.9898,1.1646,0.8188,0.8877,0.7225,0.2566,-0.0642,-0.1867,-0.096,0.2596,0.499,0.6227,1.178,1.3735,1.2498,1.2344,1.1689,1.0651,0.9891,0.9684,0.9766,0.868,0.8577,0.902,0.8153,0.8146,0.8682,0.9034,0.9304,0.9449,-0.6887,-0.7752,-0.8644,-0.9062,-0.9572,-0.9833,-0.9493,-0.9707,-1.0027,-1.0508,-0.9625,-0.8811,-0.8385,-0.7521,-0.6915,-0.685,-0.6009,-0.5495,-0.5505,-0.5452,-0.5329,-0.5135,-0.2025,-0.0203,-0.0,-0.0405,0.0405,0.2485,0.222,0.1476,0.0267,0.0716,0.1203,0.1651,0.086,0.0057,-0.0907,-0.3498,-0.5188,-0.6218,-0.7022,-0.687,-0.5991,-0.4956,-0.4588,-0.3881,0.0724,0.3302,0.4494,0.4525,0.4519,0.4519,0.4519,0.4519,0.4519,0.4519,0.4948,0.5433,0.5433,0.5873,0.6258,0.5597,0.5433,0.5218,0.4625,0.4473,0.448,0.4311,0.307,0.2007,0.2009,0.3231,0.4252,0.4234,0.4308,0.4287,0.4168,0.3841,0.2748,0.0443,0.2047,0.3329,0.3437,0.3267,0.3921,0.5631,0.9996,0.9601,0.2808,0.4283,0.0546,-0.995,-0.7223,-0.6878,-0.9605,-0.1653,0.2735,0.3516,0.6781,0.9667,1.2128,1.169,1.0605,0.9061,0.9543,0.9481,0.898,0.8559,0.8669,0.9103,0.9184,0.9139,0.9068,0.9274,0.9571,0.9802,-0.6837,-0.7252,-0.7833,-0.8568,-0.873,-0.8639,-0.8644,-0.8277,-0.8057,-0.8379,-0.8554,-0.83,-0.753,-0.699,-0.6461,-0.5947,-0.5627,-0.5369,-0.5369,-0.5393,-0.4922,-0.383,-0.1345,0.101,0.3167,0.3236,0.3297,0.3424,0.3426,0.282,0.1608,0.1193,0.0327,-0.0969,-0.0947,-0.1454,-0.2386,-0.511,-0.6311,-0.6358,-0.6805,-0.6934,-0.6685,-0.5083,-0.336,-0.1456,0.1227,0.3188,0.4494,0.4525,0.4519,0.457,0.4948,0.5109,0.5164,0.5605,0.5932,0.6145,0.6145,0.6367,0.6534,0.6258,0.5814,0.5404,0.5038,0.4725,0.4443,0.4358,0.3914,0.3577,0.3583,0.4089,0.446,0.4402,0.4436,0.4508,0.4511,0.3566,0.2808,0.2565,0.1857,0.1553,0.1806,0.2887,0.358,0.3656,0.8268,0.7732,0.0125,-0.1775,-0.6342,-1.4441,-1.4439,-1.5062,-1.6736,-1.1473,-0.7116,-0.3677,0.1536,0.5289,0.7726,0.955,0.9655,0.8402,0.8663,0.8606,0.8289,0.8251,0.8507,0.8988,0.9169,0.9374,0.9604,0.9664,0.979,0.988,-0.5779,-0.6123,-0.6722,-0.7826,-0.7808,-0.7666,-0.7773,-0.7162,-0.678,-0.6968,-0.7481,-0.7491,-0.6691,-0.641,-0.6075,-0.5425,-0.5369,-0.5166,-0.4622,-0.5119,-0.4381,-0.2012,-0.0672,0.1212,0.3777,0.4864,0.5062,0.4367,0.437,0.3828,0.2815,0.1742,0.0067,-0.2032,-0.2036,-0.2781,-0.4136,-0.6021,-0.6531,-0.6129,-0.6201,-0.6384,-0.6454,-0.5061,-0.2074,0.1401,0.2011,0.3186,0.4543,0.4739,0.4787,0.4897,0.5378,0.5651,0.5923,0.6421,0.675,0.6912,0.6912,0.6912,0.6912,0.6912,0.6157,0.5445,0.5373,0.4885,0.4382,0.4324,0.4399,0.4477,0.4484,0.448,0.446,0.4419,0.444,0.4501,0.4409,0.3465,0.2815,0.2954,0.1163,-0.0273,-0.074,0.096,0.1936,0.1459,0.4445,0.3659,-0.2426,-0.6295,-1.1484,-1.8409,-1.9902,-2.0681,-2.0895,-1.751,-1.364,-0.9247,-0.2914,0.125,0.3473,0.73,0.875,0.818,0.8055,0.8031,0.8078,0.809,0.8376,0.8819,0.8845,0.9201,0.9667,0.9667,0.9566,0.9453,-0.3688,-0.4279,-0.5262,-0.6624,-0.6957,-0.7069,-0.6829,-0.6777,-0.6583,-0.6352,-0.6022,-0.5728,-0.5466,-0.5428,-0.5428,-0.5428,-0.5428,-0.4622,-0.2878,-0.4436,-0.3768,-0.0202,-0.0,-0.0,0.0067,0.3574,0.5406,0.5396,0.4846,0.4298,0.3747,0.2344,0.0884,-0.0558,-0.2026,-0.3997,-0.6216,-0.563,-0.5435,-0.5398,-0.5081,-0.4779,-0.4518,-0.4514,-0.0782,0.4225,0.2738,0.3183,0.4588,0.5277,0.5483,0.5483,0.5487,0.5982,0.6588,0.6588,0.7128,0.767,0.767,0.767,0.767,0.767,0.6476,0.5326,0.5446,0.4824,0.4237,0.4429,0.4515,0.4519,0.4519,0.4519,0.4416,0.422,0.4368,0.4416,0.4234,0.4214,0.3125,0.0389,-0.0217,-0.1429,-0.4072,-0.2557,-0.1161,-0.0417,-0.178,-0.345,-0.5347,-0.8392,-1.4231,-2.3335,-2.2869,-2.2128,-2.1391,-1.7214,-1.3974,-1.1697,-0.6222,-0.2314,0.032,0.5279,0.7842,0.8375,0.7975,0.8062,0.8479,0.8201,0.8301,0.8573,0.8384,0.8625,0.9113,0.9113,0.8786,0.8399,-0.1123,-0.1352,-0.2723,-0.637,-0.6903,-0.6366,-0.487,-0.4608,-0.447,-0.4185,-0.4054,-0.388,-0.3602,-0.4684,-0.5386,-0.5386,-0.5393,-0.5122,-0.4573,-0.2757,-0.2288,-0.3641,0.1074,0.3096,0.1878,0.4167,0.5382,0.5372,0.5096,0.4831,0.4637,0.4167,0.2854,0.0834,-0.0557,-0.2021,-0.342,-0.3704,-0.3737,-0.3638,-0.4774,-0.4967,-0.4054,0.0056,0.2805,0.4455,0.3922,0.4082,0.4588,0.5277,0.5814,0.6367,0.6848,0.7176,0.7456,0.7937,0.8268,0.8427,0.8427,0.8103,0.783,0.8321,0.6844,0.5449,0.5972,0.5108,0.4237,0.4433,0.4519,0.4519,0.4519,0.4519,0.4501,0.4402,0.4433,0.4501,0.4406,0.4412,0.3704,0.1719,-0.3032,-0.5675,-0.4474,-0.5612,-0.5841,-0.4284,-0.6132,-0.7788,-0.8716,-1.4463,-1.9591,-2.3649,-2.3026,-2.2244,-2.1417,-1.7107,-1.4091,-1.2307,-0.869,-0.4366,0.0545,0.3652,0.5684,0.6791,0.7209,0.7478,0.7639,0.7969,0.8077,0.8076,0.8241,0.8411,0.855,0.855,0.8449,0.8324,-0.0,-0.0,-0.0969,-0.3939,-0.5731,-0.6415,-0.5131,-0.3433,-0.2455,-0.3003,-0.312,-0.2979,-0.2711,-0.3684,-0.4363,-0.4375,-0.4375,-0.4651,-0.5336,-0.2014,-0.0403,-0.1273,0.2347,0.4169,0.3756,0.4837,0.5376,0.5369,0.5292,0.5163,0.5176,0.5167,0.4401,0.2924,0.2112,0.0983,-0.0347,-0.0895,-0.1317,-0.1719,-0.231,-0.1995,-0.0782,0.2406,0.399,0.4497,0.4484,0.4639,0.4959,0.566,0.6416,0.7128,0.7883,0.8103,0.8209,0.8646,0.8804,0.8804,0.8804,0.8268,0.7883,0.8593,0.7054,0.5311,0.5488,0.4817,0.4204,0.4287,0.4341,0.4382,0.4382,0.4426,0.4519,0.4519,0.4519,0.4519,0.4519,0.4484,0.3574,0.1157,-0.4835,-0.816,-0.6668,-0.7889,-0.8287,-0.7132,-0.9067,-1.086,-1.2036,-1.7059,-2.1043,-2.3504,-2.2882,-2.183,-2.0408,-1.6649,-1.3847,-1.2071,-0.9017,-0.4809,0.0331,0.2418,0.4337,0.603,0.6587,0.7013,0.7341,0.7563,0.7654,0.7656,0.7667,0.7776,0.7964,0.7964,0.7826,0.7734,-0.0,-0.0,-0.0,-0.0,-0.3637,-0.6599,-0.6599,-0.2834,-0.0707,-0.2596,-0.2855,-0.2786,-0.2563,-0.2289,-0.2155,-0.2147,-0.214,-0.2882,-0.452,-0.1606,0.1737,0.5192,0.3749,0.3675,0.5296,0.5352,0.5352,0.5362,0.5362,0.5428,0.5432,0.5378,0.5375,0.5382,0.5386,0.4433,0.2847,0.2504,0.1555,0.0429,0.1662,0.3115,0.434,0.2907,0.3239,0.448,0.4477,0.4959,0.5597,0.6367,0.7074,0.783,0.8586,0.8857,0.8857,0.8804,0.8804,0.8804,0.8804,0.8268,0.7883,0.862,0.7078,0.5157,0.4282,0.4223,0.424,0.41,0.4192,0.4246,0.4197,0.4365,0.4519,0.4519,0.4519,0.4515,0.4505,0.4408,0.2883,-0.1038,-0.5779,-0.9152,-1.0196,-0.9474,-0.8969,-0.9159,-1.0785,-1.2748,-1.5045,-1.6696,-1.9281,-2.3037,-2.2468,-2.0972,-1.8627,-1.5839,-1.3319,-1.1042,-0.7577,-0.4029,-0.0478,0.1506,0.3658,0.5838,0.6082,0.6632,0.7375,0.7053,0.7083,0.7313,0.6799,0.6912,0.7363,0.7344,0.7019,0.6749,-0.0,-0.0,-0.0,-0.0,-0.0953,-0.1683,-0.1683,-0.0729,-0.0157,-0.0707,-0.0703,-0.0689,-0.0659,0.1811,0.3476,0.3511,0.3496,0.3293,0.2889,0.2344,0.292,0.4909,0.4687,0.4632,0.4918,0.4971,0.5081,0.5189,0.5304,0.5428,0.5428,0.5399,0.5416,0.542,0.54,0.519,0.4739,0.4421,0.3959,0.3381,0.2556,0.3113,0.4442,0.4089,0.4193,0.4477,0.4525,0.4952,0.5597,0.6367,0.7074,0.783,0.8586,0.9159,0.9465,0.8956,0.8804,0.8804,0.8804,0.8268,0.7835,0.8377,0.748,0.6223,0.5344,0.5263,0.5295,0.4767,0.4794,0.4759,0.4299,0.4365,0.4519,0.4519,0.4519,0.4481,0.4481,0.3329,0.1222,-0.2087,-0.6585,-0.9926,-1.1197,-1.1204,-1.1305,-1.1888,-1.2118,-1.329,-1.5655,-1.6692,-1.8876,-2.2484,-2.1631,-1.9988,-1.7579,-1.5129,-1.222,-0.8916,-0.6423,-0.4409,-0.2794,0.0049,0.2345,0.4167,0.537,0.6135,0.6535,0.6783,0.6953,0.6989,0.6718,0.6778,0.7001,0.684,0.6712,0.6699,0.1843,0.1531,0.1413,0.1413,0.0597,-0.0,-0.0,-0.0,0.0707,0.2594,0.2646,0.2131,0.1314,0.2952,0.4515,0.5356,0.4648,0.4512,0.5336,0.4383,0.4183,0.4974,0.5024,0.4944,0.4867,0.486,0.4955,0.5033,0.5563,0.5834,0.5837,0.6367,0.6601,0.6601,0.6148,0.5913,0.5837,0.5178,0.4787,0.4581,0.3603,0.3747,0.4487,0.4477,0.4525,0.4525,0.4842,0.5382,0.6091,0.6853,0.7616,0.8315,0.9047,0.9517,0.9762,0.971,0.971,0.9666,0.9361,0.8988,0.8547,0.8025,0.7333,0.6574,0.5692,0.5592,0.5552,0.5181,0.5056,0.4895,0.4598,0.4531,0.4519,0.4519,0.4519,0.4525,0.4488,0.2081,-0.0474,-0.2661,-0.7413,-1.0793,-1.1426,-1.1994,-1.2557,-1.3022,-1.3343,-1.4175,-1.5737,-1.6626,-1.8297,-2.0894,-1.9941,-1.8238,-1.5846,-1.2893,-1.0051,-0.7348,-0.5565,-0.4109,-0.2887,-0.035,0.1803,0.3564,0.4896,0.5753,0.6224,0.6697,0.6908,0.6891,0.6774,0.674,0.674,0.6651,0.6762,0.705,0.4476,0.3816,0.3635,0.3623,0.2084,0.0811,0.0487,0.0478,0.1726,0.5361,0.564,0.4886,0.3279,0.3121,0.3733,0.5269,0.4025,0.3754,0.5322,0.5237,0.5071,0.5051,0.4965,0.4874,0.485,0.4874,0.4944,0.5062,0.5887,0.6408,0.6532,0.7458,0.7861,0.7861,0.7085,0.6612,0.627,0.543,0.4932,0.4752,0.4584,0.4577,0.4639,0.4629,0.4736,0.4897,0.5437,0.6145,0.6858,0.7509,0.8209,0.891,0.9465,0.971,0.9909,1.0618,1.0864,1.0805,1.0054,0.9723,0.922,0.7729,0.7164,0.6754,0.5906,0.5844,0.5858,0.5569,0.5269,0.5063,0.4989,0.4655,0.4457,0.4426,0.4467,0.4345,0.3984,0.079,-0.2189,-0.4041,-0.8485,-1.1426,-1.1577,-1.2478,-1.3092,-1.32,-1.4134,-1.4909,-1.5461,-1.6273,-1.7359,-1.8692,-1.7837,-1.6137,-1.3619,-1.0185,-0.7708,-0.6247,-0.4894,-0.3476,-0.2,-0.0174,0.1708,0.3626,0.465,0.5505,0.6201,0.6697,0.6911,0.6944,0.6911,0.6824,0.6689,0.6633,0.6968,0.7559,0.6418,0.6198,0.6061,0.5858,0.5547,0.471,0.2915,0.2617,0.2891,0.3519,0.4844,0.5566,0.505,0.4983,0.5124,0.5393,0.5166,0.5096,0.5379,0.5226,0.5081,0.4958,0.4809,0.4667,0.4591,0.466,0.5013,0.5644,0.5943,0.6393,0.699,0.7145,0.722,0.722,0.7104,0.6661,0.6021,0.578,0.5285,0.468,0.458,0.4842,0.5328,0.5324,0.571,0.6312,0.6367,0.6912,0.7563,0.767,0.8209,0.8804,0.891,0.9361,0.9909,1.0618,1.1216,1.1437,1.0401,0.9369,0.8339,0.7654,0.7602,0.7574,0.6924,0.7318,0.7575,0.6597,0.6081,0.5691,0.5311,0.4598,0.4131,0.4207,0.4237,0.353,0.1488,-0.0521,-0.3799,-0.9082,-1.0101,-1.1065,-1.2655,-1.3032,-1.3213,-1.3282,-1.382,-1.4367,-1.4893,-1.5017,-1.54,-1.6078,-1.5817,-1.4094,-1.0868,-0.8464,-0.6752,-0.572,-0.4311,-0.3005,-0.1787,0.0023,0.1974,0.3961,0.4756,0.5422,0.5991,0.6642,0.6996,0.713,0.6977,0.698,0.7066,0.6723,0.7117,0.7896,0.6863,0.6726,0.6516,0.6447,0.6321,0.5984,0.5012,0.4813,0.4756,0.4686,0.5271,0.5666,0.5509,0.5428,0.5376,0.5376,0.5432,0.5428,0.5369,0.5148,0.4989,0.4921,0.4694,0.4591,0.4519,0.4916,0.5286,0.5617,0.6668,0.7359,0.7712,0.8247,0.8487,0.8493,0.801,0.7587,0.7118,0.6209,0.5775,0.5677,0.5199,0.5437,0.6091,0.6091,0.6312,0.6642,0.7074,0.7396,0.7777,0.8156,0.8533,0.8857,0.9211,0.9562,0.9909,1.0618,1.0922,1.0931,1.0423,0.9113,0.7818,0.7558,0.7724,0.7829,0.753,0.7814,0.7924,0.7401,0.6568,0.5873,0.578,0.4939,0.425,0.4093,0.336,0.2024,-0.0141,-0.2067,-0.4965,-0.9448,-1.027,-1.0847,-1.185,-1.2254,-1.2574,-1.2889,-1.3353,-1.3607,-1.3631,-1.3602,-1.3478,-1.315,-1.3032,-1.1635,-0.8783,-0.7152,-0.5739,-0.4578,-0.3733,-0.252,-0.0936,0.0428,0.225,0.4358,0.4864,0.5467,0.6106,0.6676,0.7029,0.718,0.7096,0.7114,0.7221,0.7408,0.7919,0.8627,0.6881,0.6658,0.6461,0.6427,0.6339,0.6274,0.6274,0.6281,0.624,0.6112,0.5865,0.5708,0.5654,0.5471,0.5428,0.5428,0.5428,0.5411,0.5311,0.5064,0.4918,0.4918,0.4794,0.4732,0.4732,0.5382,0.576,0.576,0.7307,0.8189,0.8361,0.9147,0.9479,0.9479,0.8769,0.8312,0.8017,0.6778,0.6406,0.6534,0.5982,0.6199,0.6858,0.6858,0.6966,0.7182,0.7777,0.7937,0.8049,0.8593,0.8804,0.891,0.9413,0.9562,0.9695,1.0319,1.0238,0.996,1.0041,0.886,0.7538,0.7406,0.7752,0.8036,0.7746,0.793,0.8108,0.7856,0.6742,0.5912,0.6263,0.5225,0.4023,0.3246,0.1816,0.0144,-0.1576,-0.4018,-0.6519,-0.893,-1.0054,-1.0715,-1.0928,-1.1329,-1.179,-1.2196,-1.2666,-1.2766,-1.2422,-1.2375,-1.1757,-1.052,-1.0341,-0.9251,-0.7118,-0.6028,-0.4849,-0.3583,-0.2952,-0.1767,-0.0048,0.0961,0.253,0.4473,0.4981,0.5579,0.6242,0.6752,0.7096,0.7287,0.7287,0.7287,0.7371,0.7965,0.8623,0.929,0.6746,0.6583,0.643,0.6298,0.6345,0.6264,0.6264,0.6264,0.6257,0.6247,0.5986,0.58,0.5786,0.5532,0.5428,0.5428,0.5428,0.5301,0.5155,0.5003,0.4918,0.4918,0.5239,0.5433,0.5433,0.615,0.6529,0.6529,0.7359,0.8074,0.8732,0.8811,0.8871,0.8871,0.8818,0.8366,0.7753,0.7586,0.7198,0.6588,0.6534,0.6966,0.7616,0.7616,0.8049,0.8646,0.8699,0.8699,0.8752,0.8804,0.8804,0.8811,0.8857,0.8857,0.8954,0.9363,0.9104,0.8706,0.8928,0.8445,0.7741,0.7181,0.7829,0.8349,0.7314,0.8087,0.8739,0.7739,0.6549,0.5919,0.6616,0.5078,0.2973,0.0895,-0.0595,-0.1908,-0.3162,-0.6513,-0.8972,-0.9248,-0.9894,-1.0469,-1.0861,-1.0941,-1.1025,-1.1092,-1.1549,-1.1847,-1.1852,-1.1465,-1.0454,-0.8745,-0.8271,-0.7364,-0.5945,-0.4985,-0.4083,-0.322,-0.1778,-0.0515,0.0578,0.165,0.2798,0.4004,0.503,0.5756,0.6259,0.6907,0.7332,0.7575,0.7575,0.7575,0.7617,0.8047,0.8737,0.9566,0.8484,0.8317,0.8245,0.8174,0.7629,0.7249,0.7249,0.7249,0.6984,0.6204,0.6511,0.6679,0.6503,0.6348,0.64,0.699,0.6531,0.6132,0.5895,0.5728,0.5478,0.5262,0.5843,0.6204,0.6204,0.6907,0.7289,0.7289,0.8049,0.8533,0.8804,0.8804,0.8804,0.8804,0.8804,0.8646,0.8374,0.7883,0.7777,0.7937,0.745,0.7723,0.8374,0.8374,0.854,0.8804,0.8804,0.8804,0.8804,0.8804,0.8804,0.8857,0.9316,0.9159,0.8849,0.9184,0.8872,0.8467,0.8892,0.8199,0.7363,0.753,0.8144,0.8675,0.8586,0.8692,0.8757,0.833,0.6824,0.5636,0.585,0.4142,0.1661,-0.1603,-0.3155,-0.4184,-0.487,-0.6917,-0.8462,-0.8865,-0.9448,-0.986,-1.0018,-1.0028,-1.0042,-1.0069,-1.0508,-1.0679,-1.0438,-0.9545,-0.8257,-0.6497,-0.6285,-0.5955,-0.5446,-0.3745,-0.24,-0.1382,-0.0804,0.0128,0.1378,0.2495,0.3515,0.4432,0.5184,0.5866,0.648,0.6852,0.7237,0.7605,0.7605,0.7679,0.7901,0.8879,0.9471,0.9899,0.9531,0.9366,0.9296,0.9296,0.8689,0.8237,0.8237,0.8237,0.796,0.7155,0.7441,0.7654,0.7449,0.727,0.7372,0.7962,0.7122,0.6553,0.6369,0.625,0.616,0.6209,0.6686,0.6966,0.6966,0.767,0.7943,0.7723,0.8427,0.8804,0.8804,0.8804,0.8804,0.8804,0.8804,0.8804,0.8752,0.8262,0.8321,0.8752,0.8262,0.8368,0.8804,0.8804,0.8804,0.8804,0.9061,0.9106,0.9145,0.9195,0.9327,0.9496,0.984,0.9539,0.9127,0.9287,0.8891,0.8501,0.8877,0.8273,0.7648,0.8028,0.8553,0.8999,0.9199,0.9079,0.8837,0.8521,0.7111,0.5797,0.5227,0.3131,0.0459,-0.2692,-0.426,-0.5335,-0.5923,-0.6881,-0.7769,-0.839,-0.8918,-0.9239,-0.9239,-0.9239,-0.9187,-0.9103,-0.9387,-0.9291,-0.8656,-0.7713,-0.6537,-0.5055,-0.4471,-0.4087,-0.3851,-0.2205,-0.0864,0.0187,0.0601,0.14,0.2559,0.3374,0.4142,0.4866,0.5467,0.6088,0.6718,0.6996,0.7345,0.7709,0.7929,0.8093,0.8364,0.9695,1.0189,1.0339,0.9531,0.9443,0.9296,0.9296,0.9296,0.9301,0.9301,0.9301,0.9296,0.9296,0.8902,0.8624,0.8624,0.823,0.8027,0.8027,0.7062,0.6365,0.6233,0.6435,0.6912,0.767,0.7723,0.7723,0.7723,0.8427,0.8427,0.7723,0.8427,0.8804,0.8804,0.8804,0.8804,0.8804,0.8804,0.8804,0.8804,0.8804,0.8804,0.8804,0.8804,0.8804,0.8804,0.8804,0.8804,0.891,0.9562,0.9814,0.9864,1.0116,1.0475,1.0747,1.0352,0.9982,0.9686,0.9694,0.9236,0.8716,0.8716,0.8716,0.8716,0.8716,0.9119,0.9359,0.8837,0.9119,0.9199,0.8118,0.7426,0.6518,0.4986,0.2146,-0.0482,-0.2023,-0.3635,-0.5029,-0.6056,-0.667,-0.721,-0.7829,-0.8349,-0.8675,-0.8667,-0.8667,-0.8558,-0.8231,-0.8198,-0.7682,-0.6528,-0.6104,-0.5498,-0.461,-0.2888,-0.1646,-0.0889,-0.0299,0.0426,0.124,0.2558,0.3514,0.4096,0.4244,0.4591,0.5145,0.5891,0.6468,0.6937,0.7408,0.7724,0.7974,0.8649,0.8905,0.907,1.0339,1.0798,1.0902,1.144,1.1453,1.1403,1.1403,1.0795,1.034,1.034,1.034,0.9974,0.9069,0.9373,0.9541,0.9293,0.9068,0.9064,0.9445,0.8595,0.7886,0.7427,0.74,0.7723,0.8427,0.848,0.848,0.848,0.8699,0.8699,0.848,0.8699,0.8804,0.8804,0.8804,0.8804,0.8804,0.8804,0.8804,0.8804,0.8804,0.8804,0.8804,0.8804,0.8804,0.8804,0.8804,0.8804,0.891,0.9562,0.9814,0.9864,1.0116,1.0262,1.0376,1.0221,1.0086,1.003,1.025,0.9837,0.9359,0.9716,0.9843,0.9716,0.9359,0.9399,0.9558,0.9755,0.9637,0.9399,0.9079,0.7949,0.6693,0.5706,0.2971,0.0308,-0.1282,-0.3328,-0.4898,-0.548,-0.6404,-0.7121,-0.7487,-0.7694,-0.7718,-0.7514,-0.7498,-0.7451,-0.7386,-0.7127,-0.6444,-0.5102,-0.5279,-0.4616,-0.2827,-0.194,-0.0921,0.0352,0.0823,0.1455,0.2264,0.2936,0.3424,0.3703,0.43,0.4866,0.5422,0.6171,0.6722,0.7146,0.7454,0.7988,0.8619,0.883,0.9173,0.9713,1.0499,1.0798,1.0902,1.2305,1.2305,1.2305,1.2305,1.1768,1.1391,1.1391,1.1298,1.0949,1.013,1.0305,1.0368,1.0128,0.9941,0.9869,1.008,0.9166,0.8323,0.7859,0.7751,0.8049,0.8752,0.8804,0.8804,0.8804,0.8804,0.8804,0.8804,0.8804,0.8804,0.8804,0.8804,0.8804,0.8804,0.8804,0.8804,0.8804,0.8804,0.8804,0.8804,0.8804,0.8956,0.9211,0.9211,0.9361,0.9666,1.0364,1.061,1.0596,1.072,1.0725,1.0798,1.0966,1.0858,1.0704,1.0702,1.0307,0.9883,1.0196,1.0428,1.0495,1.0176,1.0089,1.0137,1.0283,1.0186,0.9981,0.9597,0.8529,0.7314,0.621,0.3842,0.1403,-0.0748,-0.2882,-0.4499,-0.5221,-0.564,-0.6061,-0.6455,-0.6453,-0.6357,-0.6176,-0.6162,-0.6115,-0.5994,-0.578,-0.5028,-0.3539,-0.37,-0.3029,-0.1252,-0.0428,0.0378,0.1122,0.2081,0.2668,0.2854,0.3381,0.3806,0.4151,0.4738,0.5485,0.6313,0.6589,0.7103,0.7746,0.7997,0.842,0.895,0.9458,0.989,1.0339,1.0947,1.1206,1.1246,1.2305,1.2305,1.2305,1.2305,1.2305,1.2291,1.2265,1.2037,1.185,1.1797,1.1323,1.0982,1.0955,1.0722,1.0434,1.0107,0.8959,0.8141,0.7794,0.7777,0.8103,0.8752,0.8804,0.8804,0.8804,0.8804,0.8804,0.8804,0.8804,0.8804,0.8804,0.8804,0.8804,0.8804,0.8804,0.8804,0.8804,0.8804,0.8804,0.8804,0.8804,0.9211,0.9814,0.9814,1.0218,1.0864,1.1566,1.1814,1.1795,1.1657,1.1557,1.1567,1.1973,1.1807,1.142,1.1016,1.0615,1.0322,1.0351,1.0687,1.1019,1.1019,1.1084,1.1019,1.0544,1.0725,1.0753,0.9825,0.9119,0.8203,0.6493,0.4705,0.2567,-0.0349,-0.2374,-0.3974,-0.5062,-0.4633,-0.4423,-0.5039,-0.4934,-0.484,-0.4824,-0.4697,-0.4499,-0.4192,-0.4105,-0.3416,-0.191,-0.1617,-0.0958,0.0132,0.1517,0.2081,0.175,0.3407,0.3892,0.3165,0.3851,0.4498,0.5107,0.5442,0.6287,0.7476,0.7178,0.7634,0.8614,0.8881,0.9025,0.919,1.0354,1.0842,1.0962,1.158,1.1805,1.179,1.2305,1.2305,1.2305,1.2305,1.2305,1.2225,1.1997,1.1911,1.1703,1.1243,1.1076,1.0909,1.0681,1.0658,1.0409,0.9826,0.9128,0.8658,0.854,0.854,0.8646,0.8804,0.8804,0.8804,0.8804,0.8804,0.8804,0.8804,0.8804,0.8804,0.8804,0.8804,0.8804,0.8804,0.8804,0.8804,0.8804,0.8804,0.8804,0.8804,0.8804,0.9211,0.9814,0.9814,1.0218,1.0864,1.1566,1.1814,1.1795,1.1657,1.1155,1.0635,1.1055,1.0898,1.0605,1.084,1.0615,1.039,1.0764,1.0905,1.1019,1.1019,1.1579,1.2054,1.159,1.1244,1.0943,1.0705,0.9619,0.8277,0.6975,0.4951,0.2696,0.0219,-0.1973,-0.3596,-0.433,-0.4404,-0.4538,-0.4954,-0.4567,-0.4247,-0.4204,-0.3142,-0.2438,-0.2359,-0.1788,-0.115,-0.0463,0.0495,0.1186,0.1547,0.3078,0.3836,0.3785,0.4359,0.4309,0.358,0.4456,0.495,0.5126,0.5981,0.6771,0.7521,0.7951,0.8585,0.93,0.9579,0.9965,1.0428,1.0693,1.1111,1.161,1.1745,1.1805,1.1826,1.1911,1.1997,1.2051,1.1911,1.1997,1.1997,1.1703,1.1536,1.1343,1.1035,1.0875,1.0728,1.0645,1.0624,1.0383,0.9733,0.9145,0.8804,0.8804,0.8804,0.8804,0.8804,0.8804,0.8804,0.8804,0.8804,0.8804,0.8804,0.8804,0.8804,0.8804,0.8804,0.8804,0.8804,0.8804,0.8804,0.8804,0.8804,0.9008,0.9249,0.905,0.9679,1.073,1.0344,1.0708,1.1477,1.1667,1.1565,1.1433,1.1795,1.1299,1.0654,1.1084,1.0928,1.0586,1.0605,1.0449,1.0351,1.0611,1.0829,1.1057,1.1319,1.1957,1.2246,1.1292,1.1255,1.1244,1.0764,0.9627,0.8347,0.7048,0.524,0.3159,0.0828,-0.0641,-0.1765,-0.2648,-0.2553,-0.2483,-0.2698,-0.2379,-0.2146,-0.2093,-0.1383,-0.0955,-0.0926,-0.0033,0.0658,0.0924,0.2282,0.3106,0.3248,0.4253,0.4809,0.4876,0.552,0.5585,0.5076,0.5571,0.6024,0.6407,0.7127,0.8003,0.8949,0.8962,0.9409,1.0122,1.0267,1.0514,1.0827,1.1141,1.1491,1.1805,1.1805,1.1876,1.2064,1.147,1.1623,1.1787,1.1676,1.17,1.176,1.1594,1.1209,1.0975,1.0922,1.0708,1.0624,1.0624,1.053,1.0194,0.9653,0.9118,0.8804,0.8804,0.8804,0.8804,0.8804,0.8804,0.8804,0.8804,0.8804,0.8804,0.8804,0.8804,0.8804,0.8804,0.8804,0.8804,0.8804,0.8804,0.8804,0.8804,0.8804,0.9131,0.9658,0.9348,1.014,1.1495,1.0858,1.1239,1.207,1.1734,1.1279,1.1025,1.1713,1.1465,1.0869,1.1273,1.1094,1.0732,1.0381,1.0283,1.0322,1.039,1.0764,1.1244,1.17,1.221,1.2246,1.0878,1.1217,1.1553,1.0621,0.9545,0.8408,0.7056,0.5569,0.3779,0.1544,0.107,0.053,-0.0649,-0.0366,-0.0,-0.0,0.0273,0.0431,0.0331,0.0497,0.0629,0.0728,0.1621,0.2246,0.2433,0.3774,0.4608,0.4789,0.5255,0.559,0.5783,0.6739,0.7152,0.7073,0.7111,0.7415,0.7925,0.8333,0.924,1.0456,0.9952,1.0196,1.0962,1.0962,1.0962,1.1022,1.158,1.1805,1.1805,1.1805,1.2037,1.2437,1.143,1.1456,1.1676,1.2383,1.1936,1.158,1.2051,1.1462,1.0902,1.0648,1.0651,1.0624,1.0624,1.0107,0.9666,0.9269,0.8998,0.8804,0.8804,0.8804,0.8804,0.8804,0.8804,0.8804,0.8804,0.8804,0.8804,0.8804,0.8804,0.8804,0.8804,0.8804,0.8804,0.8804,0.8804,0.8804,0.8804,0.8804,0.9013,0.9296,0.921,0.9803,1.0759,1.0651,1.1053,1.1685,1.1626,1.1279,1.0928,1.1045,1.0771,1.0381,1.0479,1.041,1.0352,1.0303,1.0283,1.04,1.0802,1.1282,1.17,1.1774,1.2473,1.2838,1.1847,1.17,1.1627,1.1019,0.979,0.8492,0.7494,0.5986,0.4347,0.2659,0.2354,0.1977,0.0921,0.0755,0.0768,0.0768,0.1676,0.2137,0.1605,0.2452,0.3237,0.3761,0.3756,0.3876,0.4237,0.4795,0.5269,0.5622,0.637,0.6958,0.7386,0.7824,0.8355,0.8942,0.9226,0.8995,0.8346,0.8799,0.9548,1.0506,1.0594,1.1016,1.167,1.167,1.167,1.167,1.176,1.1805,1.1805,1.1805,1.234,1.3031,1.0975,1.1069,1.1262,1.1493,1.1341,1.1215,1.129,1.0999,1.0701,1.0645,1.0624,1.0624,1.0624,1.0033,0.9566,0.921,0.8971,0.8804,0.8804,0.8804,0.8804,0.8804,0.8804,0.8804,0.8804,0.8804,0.8804,0.8804,0.8804,0.8804,0.8804,0.8804,0.8804,0.8804,0.8804,0.8804,0.8798,0.8985,0.932,0.9729,0.9616,1.0204,1.1101,1.0597,1.0778,1.1162,1.0928,1.0723,1.0596,1.083,1.0625,1.0322,1.0557,1.0469,1.0283,1.0283,1.0283,1.0361,1.0534,1.0981,1.1431,1.1737,1.233,1.2685,1.2282,1.2174,1.2066,1.1542,1.0298,0.8974,0.7879,0.6465,0.5137,0.4211,0.3675,0.3388,0.3378,0.2937,0.2704,0.2949,0.3431,0.3732,0.3707,0.3943,0.4333,0.4808,0.4744,0.4859,0.5248,0.5861,0.6408,0.6845,0.7395,0.7866,0.8305,0.8842,0.9248,0.9574,1.0133,1.0177,0.9747,1.0142,1.0656,1.123,1.1314,1.1536,1.1805,1.1805,1.1805,1.1835,1.2209,1.2583,1.2951,1.3084,1.3273,1.341]},{"header":{"parameterUnit":"m.s-1","parameterCategory":1,"la1":30.6,"la2":28.766,"lo1":-90.7593,"lo2":-88.6598,"dy":0.0162,"dx":0.0183,"nx":116,"ny":114,"refTime":"2023-05-20T00:00:00:Z","depth":0,"parameterNumber":3,"parameterNumberName":"V-component_of_WINDS"},"data":[0.0,0.0,0.0,0.0,0.0,0.0,0.0,0.0,0.0,0.0,0.0,0.0,0.0,0.0,0.0,0.0,0.0,0.0,0.0,0.0,0.0,0.0,0.0,0.0,0.0,0.0,0.0,0.0,0.0,0.0,0.0,0.0,0.0,0.0,0.0,0.0,0.0,0.0,0.0,0.0,0.0,0.0,0.0,0.0,0.0,0.0,0.0,0.0,0.0,0.0,0.0,0.0,0.0,0.0,0.0,0.0,0.0,0.0,0.0,0.0,0.0,0.0,0.0,0.0,0.0,0.0,0.0,0.0,0.0,0.0,0.0,0.0,0.0,0.0,0.0,0.0,0.0,0.0,0.0,0.0,0.0,0.0,0.0,0.0,0.0,0.0,0.0,0.0,0.0,0.0,0.0,0.0,0.0,0.0,0.0,0.0,0.0,0.0,0.0,0.0,0.0,0.0,0.0,0.0,0.0,0.0,0.0,0.0,0.0,0.0,0.0,0.0,0.0,0.0,0.0,0.0,0.0,0.0,0.0,0.0,0.0,0.0,0.0,0.0,0.0,0.0,0.0,0.0,0.0,0.0,0.0,0.0,0.0,0.0,0.0,0.0,0.0,0.0,0.0,0.0,0.0,0.0,0.0,0.0,0.0,0.0,0.0,0.0,0.0,0.0,0.0,0.0,0.0,0.0,0.0,0.0,0.0,0.0,0.0,0.0,0.0,0.0,0.0,0.0,0.0,0.0,0.0,0.0,0.0,0.0,0.0,0.0,0.0,0.0,0.0,0.0,0.0,0.0,0.0,0.0,0.0,0.0,0.0,0.0,0.0,0.0,0.0,0.0,0.0,0.0,0.0,0.0,0.0,0.0,0.0,0.0,0.0,0.0,0.0,0.0,0.0,0.0,0.0,0.0,0.0,0.0,0.0,0.0,0.0,0.0,0.0,0.0,0.0,0.0,0.0,0.0,0.0,0.0,0.0,0.0,0.0,0.0,0.0,0.0,0.0,0.0,0.0,0.0,0.0,0.0,0.0,0.0,0.0,0.0,0.0,0.0,0.0,0.0,0.0,0.0,0.0,0.0,0.0,0.0,0.0,0.0,0.0,0.0,0.0,0.0,0.0,0.0,0.0,0.0,0.0,0.0,0.0,0.0,0.0,0.0,0.0,0.0,0.0,0.0,0.0,0.0,0.0,0.0,0.0,0.0,0.0,0.0,0.0,0.0,0.0,0.0,0.0,0.0,0.0,0.0,0.0,0.0,0.0,0.0,0.0,0.0,0.0,0.0,0.0,0.0,0.0,0.0,0.0,0.0,0.0,0.0,0.0,0.0,0.0,0.0,0.0,0.0,0.0,0.0,0.0,0.0,0.0,0.0,0.0,0.0,0.0,0.0,0.0,0.0,0.0,0.0,0.0,0.0,0.0,0.0,0.0,0.0,0.0,0.0,0.0,0.0,0.0,0.0,0.0,0.0,0.0,0.0,0.0,0.0,0.0,0.0,0.0,0.0,0.0,0.0,0.0,0.0,0.0,0.0,0.0,0.0,0.0,0.0,0.0,0.0,0.0,0.0,0.0,0.0,0.0,0.0,0.0,0.0,0.0,0.0,0.0,0.0,0.0,0.0,0.0,0.0,0.0,0.0,0.0,0.0,0.0,0.0,0.0,0.0,0.0,0.0,0.0,0.0,0.0,0.0,0.0,0.0,0.0,0.0,0.0,0.0,0.0,0.0,0.0,0.0,0.0,0.0,0.0,0.0,0.0,0.0,0.0,0.0,0.0,0.0,0.0,0.0,0.0,0.0,0.0,0.0,0.0,0.0,0.0,0.0,0.0,0.0,0.0,0.0,0.0,0.0,0.0,0.0,0.0,0.0,0.0,0.0,0.0,0.0,0.0,0.0,0.0,0.0,0.0,0.0,0.0,0.0,0.0,0.0,0.0,0.0,0.0,0.0,0.0,0.0,0.0,0.0,0.0,0.0,0.0,0.0,0.0,0.0,0.0,0.0,0.0,0.0,0.0,0.0,0.0,0.0,0.0,0.0,0.0,0.0,0.0,0.0,0.0,0.0,0.0,0.0,0.0,0.0,0.0,0.0,0.0,0.0,0.0,0.0,0.0,0.0,0.0,0.0,0.0,0.0,0.0,0.0,0.0,0.0,0.0,0.0,0.0,0.0,0.0,0.0,0.0,0.0,0.0,0.0,0.0,0.0,0.0,0.0,0.0,0.0,0.0,0.0,0.0,0.0,0.0,0.0,0.0,0.0,0.0,0.0,0.0,0.0,0.0,0.0,0.0,0.0,0.0,0.0,0.0,0.0,0.0,0.0,0.0,0.0,0.0,0.0,0.0,0.0,0.0,0.0,0.0,0.0,0.0,0.0,0.0,0.0,0.0,0.0,0.0,0.0,0.0,0.0,0.0,0.0,0.0,0.0,0.0,0.0,0.0,0.0,0.0,0.0,0.0,0.0,0.0,0.0,0.0,0.0,0.0,0.0,0.0,0.0,0.0,0.0,0.0,0.0,0.0,0.0,0.0,0.0,0.0,0.0,0.0,0.0,0.0,0.0,0.0,0.0,0.0,0.0,0.0,0.0,0.0,0.0,0.0,0.0,0.0,0.0,0.0,0.0,0.0,0.0,0.0,0.0,0.0,0.0,0.0,0.0,0.0,0.0,0.0,0.0,0.0,0.0,0.0,0.0,0.0,0.0,0.0,0.0,0.0,0.0,0.0,0.0,0.0,0.0,0.0,0.0,0.0,0.0,0.0,0.0,0.0,0.0,0.0,0.0,0.0,0.0,0.0,0.0,0.0,0.0,0.0,0.0,0.0,0.0,0.0,0.0,0.0,0.0,0.0,0.0,0.0,0.0,0.0,0.0,0.0,0.0,0.0,0.0,0.0,0.0,0.0,0.0,0.0,0.0,0.0,0.0,0.0,0.0,0.0,0.0,0.0,0.0,0.0,0.0,0.0,0.0,0.0,0.0,0.0,0.0,0.0,0.0,0.0,0.0,0.0,0.0,0.0,0.0,0.0,0.0,0.0,0.0,0.0,0.0,0.0,0.0,0.0,0.0,0.0,0.0,0.0,0.0,0.0,0.0,0.0,0.0,0.0,0.0,0.0,0.0,0.0,0.0,0.0,0.0,0.0,0.0,0.0,0.0,0.0,0.0,0.0,0.0,0.0,0.0,0.0,0.0,0.0,0.0,0.0,0.0,0.0,0.0,0.0,0.0,0.0,0.0,0.0,0.0,0.0,0.0,0.0,0.0,0.0,0.0,0.0,0.0,0.0,0.0,0.0,0.0,0.0,0.0,0.0,0.0,0.0,0.0,0.0,0.0,0.0,0.0,0.0,0.0,0.0,0.0,0.0,0.0,0.0,0.0,0.0,0.0,0.0,0.0,0.0,0.0,0.0,0.0,0.0,0.0,0.0,0.0,0.0,0.0,0.0,0.0,0.0,0.0,0.0,0.0,0.0,0.0,0.0,0.0,0.0,0.0,0.0,0.0,0.0,0.0,0.0,0.0,0.0,0.0,0.0,0.0,0.0,0.0,0.0,0.0,0.0,0.0,0.0,0.0,0.0,0.0,0.0,0.0,0.0,0.0,0.0,0.0,0.0,0.0,0.0,0.0,0.0,0.0,0.0,0.0,0.0,0.0,0.0,0.0,0.0,0.0,0.0,0.0,0.0,0.0,0.0,0.0,0.0,0.0,0.0,0.0,0.0,0.0,0.0,0.0,0.0,0.0,0.0,0.0,0.0,0.0,0.0,0.0,0.0,0.0,0.0,0.0,0.0,0.0,0.0,0.0,0.0,0.0,0.0,0.0,0.0,0.0,0.0,0.0,0.0,0.0,0.0,0.0,0.0,0.0,0.0,0.0,0.0,0.0,0.0,0.0,0.0,0.0,0.0,0.0,0.0,0.0,0.0,0.0,0.0,0.0,0.0,0.0,0.0,0.0,0.0,0.0,0.0,0.0,0.0,0.0,0.0,0.0,0.0,0.0,0.0,0.0,0.0,0.0,0.0,0.0,0.0,0.0,0.0,0.0,0.0,0.0,0.0,0.0,0.0,0.0,0.0,0.0,0.0,0.0,0.0,0.0,0.0,0.0,0.0,0.0,0.0,0.0,0.0,0.0,0.0,0.0,0.0,0.0,0.0,0.0,0.0,0.0,0.0,0.0,0.0,0.0,0.0,0.0,0.0,0.0,0.0,0.0,0.0,0.0,0.0,0.0,0.0,0.0,0.0,0.0,0.0,0.0,0.0,0.0,0.0,0.0,0.0,0.0,0.0,0.0,0.0,0.0,0.0,0.0,0.0,0.0,0.0,0.0,0.0,0.0,0.0,0.0,0.0,0.0,0.0,0.0,0.0,0.0,0.0,0.0,0.0,0.0,0.0,0.0,0.0,0.0,0.0,0.0,0.0,0.0,0.0,0.0,0.0,0.0,0.0,0.0,0.0,0.0,0.0,0.0,0.0,0.0,0.0,0.0,0.0,0.0,0.0,0.0,0.0,0.0,0.0,0.0,0.0,0.0,0.0,0.0,0.0,0.0,0.0,0.0,0.0,0.0,0.0,0.0,0.0,0.0,0.0,0.0,0.0,0.0,0.0,0.0,0.0,0.0,0.0,0.0,0.0,0.0,0.0,0.0,0.0,0.0,0.0,0.0,0.0,0.0,0.0,0.0,0.0,0.0,0.0,0.0,0.0,0.0,0.0,0.0,0.0,0.0,0.0,0.0,0.0,0.0,0.0,0.0,0.0,0.0,0.0,0.0,0.0,0.0,0.0,0.0,0.0,0.0,0.0,0.0,0.0,0.0,0.0,0.0,0.0,0.0,0.0,0.0,0.0,0.0,0.0,0.0,0.0,0.0,0.0,0.0,0.0,0.0,0.0,0.0,0.0,0.0,0.0,0.0,0.0,0.0,0.0,0.0,0.0,0.0,0.0,0.0,0.0,0.0,0.0,0.0,0.0,0.0,0.0,0.0,0.0,0.0,0.0,0.0,0.0,0.0,0.0,0.0,0.0,0.0,0.0,0.0,0.0,0.0,0.0,0.0,0.0,0.0,0.0,0.0,0.0,0.0,0.0,0.0,0.0,0.0,0.0,0.0,0.0,0.0,0.0,0.0,0.0,0.0,0.0,0.0,0.0,0.0,0.0,0.0,0.0,0.0,0.0,0.0,0.0,0.0,0.0,0.0,0.0,0.0,0.0,0.0,0.0,0.0,0.0,0.0,0.0,0.0,0.0,0.0,0.0,0.0,0.0,0.0,0.0,0.0,0.0,0.0,0.0,0.0,0.0,0.0,0.0,0.0,0.0,0.0,0.0,0.0,0.0,0.0,0.0,0.0,0.0,0.0,0.0,0.0,0.0,0.0,0.0,0.0,0.0,0.0,0.0,0.0,0.0,0.0,0.0,0.0,0.0,0.0,0.0,0.0,0.0,0.0,0.0,0.0,0.0,0.0,0.0,0.0,0.0,0.0,0.0,0.0,0.0,0.0,0.0,0.0,0.0,0.0,0.0,0.0,0.0,0.0,0.0,0.0,0.0,0.0,0.0,0.0,0.0,0.0,0.0,0.0,0.0,0.0,0.0,0.0,0.0,0.0,0.0,0.0,0.0,0.0,0.0,0.0,0.0,0.0,0.0,0.0,0.0,0.0,0.0,0.0,0.0,0.0,0.0,0.0,0.0,0.0,0.0,0.0,0.0,0.0,0.0,0.0,0.0,0.0,0.0,0.0,0.0,0.0,0.0,0.0,0.0,0.0,0.0,0.0,0.0,0.0,0.0,0.0,0.0,0.0,0.0,0.0,0.0,0.0,0.0,0.0,0.0,0.0,0.0,0.0,0.0,0.0,0.0,0.0,0.0,0.0,0.0,0.0,0.0,0.0,0.0,0.0,0.0,0.0,0.0,0.0,0.0,0.0,0.0,0.0,0.0,0.0,0.0,0.0,0.0,0.0,0.0,0.0,0.0,0.0,0.0,0.0,0.0,0.0,0.0,0.0,0.0,0.0,0.0,0.0,0.0,0.0,0.0,0.0,0.0,0.0,0.0,0.0,0.0,0.0,0.0,0.0,0.0,0.0,0.0,0.0,0.0,0.0,0.0,0.0,0.0,0.0,0.0,0.0,-1.986,-1.9425,0.0,0.0,0.0,0.0,0.0,0.0,0.0,0.0,0.0,0.0,0.0,0.0,0.0,0.0,0.0,0.0,0.0,0.0,0.0,0.0,0.0,0.0,0.0,0.0,0.0,0.0,0.0,0.0,0.0,0.0,0.0,0.0,0.0,0.0,0.0,0.0,0.0,0.0,0.0,0.0,0.0,0.0,0.0,0.0,0.0,0.0,0.0,0.0,0.0,0.0,0.0,0.0,0.0,0.0,0.0,0.0,0.0,0.0,0.0,0.0,0.0,0.0,0.0,0.0,0.0,0.0,0.0,0.0,0.0,0.0,0.0,0.0,0.0,0.0,0.0,0.0,0.0,0.0,0.0,0.0,0.0,0.0,0.0,0.0,0.0,0.0,0.0,0.0,0.0,0.0,0.0,0.0,0.0,0.0,0.0,0.0,0.0,0.0,0.0,0.0,0.0,0.0,0.0,0.0,0.0,0.0,0.0,0.0,0.0,0.0,0.0,0.0,0.0,0.0,-2.1314,-2.1002,0.0,0.0,0.0,0.0,0.0,0.0,0.0,0.0,0.0,0.0,0.0,0.0,0.0,0.0,0.0,0.0,0.0,0.0,0.0,0.0,0.0,0.0,0.0,0.0,0.0,0.0,0.0,0.0,0.0,0.0,0.0,0.0,0.0,0.0,0.0,0.0,0.0,0.0,0.0,0.0,0.0,0.0,0.0,0.0,0.0,0.0,0.0,0.0,0.0,0.0,0.0,0.0,0.0,0.0,0.0,0.0,0.0,0.0,0.0,0.0,0.0,0.0,0.0,0.0,0.0,0.0,0.0,0.0,0.0,0.0,0.0,0.0,0.0,0.0,0.0,0.0,0.0,0.0,0.0,0.0,0.0,0.0,0.0,0.0,0.0,0.0,0.0,0.0,0.0,0.0,0.0,0.0,0.0,0.0,0.0,0.0,0.0,0.0,0.0,0.0,0.0,0.0,0.0,0.0,0.0,0.0,0.0,0.0,-2.2127,-2.2424,-2.2919,-2.401,-2.4545,-2.4614,-2.334,-2.3098,-2.3601,-2.3105,0.0,0.0,0.0,0.0,0.0,0.0,0.0,0.0,0.0,0.0,0.0,0.0,0.0,0.0,0.0,0.0,0.0,0.0,0.0,0.0,0.0,0.0,-2.4578,-2.4746,-2.4771,-2.4836,0.0,0.0,0.0,0.0,0.0,0.0,0.0,0.0,0.0,0.0,0.0,0.0,-2.1936,-2.2215,-2.2212,-2.2001,-2.3704,0.0,0.0,0.0,0.0,0.0,0.0,0.0,0.0,0.0,0.0,0.0,0.0,0.0,0.0,0.0,0.0,0.0,0.0,0.0,0.0,0.0,0.0,0.0,0.0,0.0,0.0,0.0,0.0,0.0,0.0,0.0,0.0,0.0,0.0,0.0,0.0,0.0,0.0,0.0,0.0,0.0,0.0,0.0,-2.4773,-2.3732,0.0,0.0,0.0,0.0,0.0,0.0,0.0,0.0,0.0,0.0,0.0,0.0,0.0,-2.1272,-2.1793,-2.275,-2.3007,-2.2634,-2.455,-2.548,-2.562,-2.6471,-2.7199,-2.7782,-2.758,0.0,-2.5301,-2.577,0.0,0.0,0.0,0.0,0.0,0.0,0.0,0.0,0.0,0.0,0.0,0.0,0.0,0.0,0.0,0.0,0.0,0.0,0.0,0.0,0.0,-2.4623,-2.4707,-2.495,-2.4974,-2.5031,0.0,0.0,0.0,0.0,0.0,0.0,0.0,0.0,0.0,0.0,-2.3143,-2.2937,-2.2851,-2.2607,-2.2745,-2.334,-2.483,-2.5063,-2.4354,-2.5257,0.0,0.0,0.0,0.0,0.0,0.0,0.0,0.0,0.0,0.0,0.0,0.0,0.0,0.0,0.0,0.0,0.0,0.0,0.0,0.0,0.0,0.0,0.0,0.0,0.0,0.0,0.0,0.0,0.0,0.0,0.0,0.0,0.0,0.0,0.0,0.0,0.0,0.0,0.0,-2.4896,-2.4238,-2.2792,-2.2477,-2.189,0.0,0.0,0.0,0.0,0.0,0.0,0.0,0.0,0.0,-2.3516,-2.3244,-2.3649,-2.4901,-2.5418,-2.5673,-2.5781,-2.6789,-2.7455,-2.7781,-2.8629,-2.9168,-2.9463,-2.9576,-2.8921,-2.7838,-2.7329,-2.6323,-2.4991,0.0,0.0,0.0,0.0,-2.315,-2.3898,0.0,0.0,0.0,0.0,0.0,0.0,0.0,0.0,0.0,0.0,0.0,0.0,-2.4731,-2.4968,-2.5201,-2.5442,-2.5477,-2.556,-2.5741,0.0,0.0,0.0,0.0,0.0,0.0,0.0,0.0,-2.3602,-2.3362,-2.3309,-2.3498,-2.3264,-2.359,-2.4461,-2.5879,-2.5831,-2.4762,-2.5945,-2.6065,0.0,0.0,0.0,0.0,0.0,0.0,0.0,0.0,0.0,0.0,0.0,0.0,0.0,0.0,0.0,0.0,0.0,0.0,0.0,0.0,0.0,0.0,0.0,0.0,0.0,0.0,0.0,0.0,0.0,0.0,0.0,0.0,0.0,0.0,0.0,0.0,0.0,0.0,-2.4407,-2.3824,-2.2144,-2.2172,-2.1797,0.0,0.0,0.0,0.0,0.0,0.0,-2.3063,-2.3305,-2.4137,-2.5704,-2.5673,-2.613,-2.727,-2.7589,-2.7825,-2.7931,-2.8493,-2.8946,-2.938,-3.0208,-3.0497,-3.0367,-3.0476,-3.0058,-2.925,-2.8248,-2.7004,-2.5667,-2.4915,-2.4643,-2.4563,-2.4138,-2.4487,-2.5307,0.0,0.0,0.0,0.0,0.0,0.0,0.0,0.0,0.0,0.0,0.0,-2.4712,-2.479,-2.5655,-2.6274,-2.6411,-2.6486,-2.6571,-2.6718,-2.6016,-2.5583,0.0,0.0,0.0,0.0,0.0,0.0,-2.4444,-2.443,-2.3861,-2.2806,-2.382,-2.4358,-2.4461,-2.6247,-2.7057,-2.7022,-2.7127,-2.7382,-2.7634,0.0,0.0,0.0,0.0,0.0,0.0,0.0,0.0,0.0,0.0,0.0,0.0,0.0,0.0,0.0,0.0,0.0,0.0,0.0,0.0,0.0,0.0,0.0,0.0,0.0,0.0,0.0,0.0,0.0,0.0,0.0,0.0,0.0,0.0,0.0,0.0,0.0,0.0,0.0,-2.1991,-2.2454,0.0,0.0,0.0,0.0,-2.2895,-2.5191,-2.6165,-2.5204,-2.6989,-2.8068,-2.8,-2.8028,-2.7778,-2.7193,-2.8339,-2.8339,-2.7248,-2.9277,-3.024,-3.0269,-3.1087,-3.1108,-3.0496,-3.0522,-2.9804,-2.8652,-2.8577,-2.7712,-2.6453,-2.6371,-2.6357,-2.6285,-2.5652,-2.6287,-2.733,0.0,0.0,0.0,0.0,0.0,0.0,0.0,0.0,0.0,-2.4738,-2.4779,-2.5073,-2.5701,-2.6193,-2.6764,-2.7468,-2.7049,-2.6789,-2.6916,-2.6097,0.0,0.0,0.0,0.0,0.0,0.0,-2.5319,-2.5588,-2.4974,-2.4576,-2.4327,-2.4721,-2.5105,-2.5481,-2.6623,-2.7401,-2.7998,-2.8237,-2.7881,-2.7126,-2.7228,-2.6854,0.0,0.0,0.0,0.0,0.0,0.0,0.0,0.0,0.0,0.0,0.0,0.0,0.0,0.0,0.0,0.0,0.0,0.0,0.0,0.0,0.0,0.0,0.0,0.0,0.0,0.0,0.0,0.0,0.0,0.0,0.0,0.0,0.0,0.0,0.0,0.0,0.0,-2.408,-2.3859,0.0,-2.295,-2.4159,-2.499,-2.4941,-2.7058,-2.8211,-2.7677,-2.8349,-2.9003,-2.9547,-2.9103,-2.9228,-2.9959,-2.9988,-2.9988,-2.9973,-3.0749,-3.1087,-3.1073,-3.0947,-3.0731,-3.0447,-2.9639,-2.9026,-2.8562,-2.8113,-2.7358,-2.651,-2.651,-2.651,-2.6424,-2.5761,-2.6147,-2.6841,0.0,0.0,0.0,0.0,0.0,0.0,0.0,0.0,0.0,-2.4388,-2.4884,-2.5537,-2.6198,-2.6924,-2.7672,-2.8413,-2.7721,-2.7288,-2.7369,-2.626,0.0,0.0,0.0,0.0,0.0,-2.5977,-2.5876,-2.6492,-2.5458,-2.5045,-2.5205,-2.5373,-2.5579,-2.5809,-2.6735,-2.7402,-2.7879,-2.8661,-2.8502,-2.7699,-2.7913,-2.7622,-2.7081,0.0,0.0,0.0,0.0,0.0,0.0,0.0,0.0,0.0,0.0,0.0,0.0,0.0,0.0,0.0,0.0,0.0,0.0,0.0,0.0,0.0,0.0,0.0,0.0,0.0,0.0,0.0,0.0,0.0,0.0,0.0,0.0,0.0,0.0,-2.7387,-2.7319,-2.6087,-2.5785,-2.5395,-2.4788,-2.5907,-2.6691,-2.673,-2.8732,-2.9889,-2.9803,-3.0262,-3.082,-3.1375,-3.0758,-3.0798,-3.152,-3.1069,-3.1069,-3.152,-3.1747,-3.183,-3.1809,-3.1201,-3.0637,-3.0098,-2.9057,-2.8472,-2.8218,-2.7754,-2.7306,-2.6878,-2.6878,-2.6878,-2.6834,-2.6382,-2.6391,-2.6546,0.0,0.0,0.0,0.0,0.0,0.0,0.0,0.0,-2.4623,-2.3539,-2.4922,-2.605,-2.6186,-2.7809,-2.8974,-2.916,-2.85,-2.8085,-2.8065,-2.6509,0.0,0.0,0.0,0.0,-2.7393,-2.694,-2.683,-2.7087,-2.5902,-2.5294,-2.5249,-2.5766,-2.5796,-2.5426,-2.6736,-2.7098,-2.6861,-2.8346,-2.9216,-2.9512,-2.8737,-2.8865,-2.9401,0.0,0.0,0.0,0.0,0.0,0.0,0.0,0.0,0.0,0.0,0.0,0.0,0.0,0.0,0.0,0.0,0.0,0.0,0.0,0.0,0.0,0.0,0.0,0.0,0.0,0.0,0.0,0.0,0.0,0.0,0.0,0.0,0.0,-2.904,-2.937,-2.9301,-2.7929,-2.8179,-2.8182,-2.767,-2.7996,-2.8269,-2.8316,-3.0135,-3.1258,-3.136,-3.2721,-3.3537,-3.3614,-3.2971,-3.2315,-3.1663,-3.1561,-3.1561,-3.1663,-3.2315,-3.2572,-3.2474,-3.1831,-3.0789,-2.9484,-2.8858,-2.8188,-2.7625,-2.7625,-2.761,-2.7595,-2.7595,-2.7595,-2.758,-2.755,-2.7115,-2.6537,0.0,0.0,0.0,0.0,0.0,0.0,0.0,0.0,-2.4511,-2.3583,-2.4858,-2.589,-2.5973,-2.7599,-2.8753,-2.8965,-2.8216,-2.7571,-2.7186,-2.6099,0.0,0.0,0.0,0.0,-2.7611,-2.7022,-2.6648,-2.6525,-2.58,-2.5733,-2.6281,-2.6437,-2.6748,-2.721,-2.7572,-2.7812,-2.7958,-2.8407,-2.8789,-2.918,-2.923,-2.9247,-2.9249,0.0,0.0,0.0,0.0,0.0,0.0,0.0,0.0,0.0,0.0,0.0,0.0,0.0,0.0,0.0,0.0,0.0,0.0,0.0,0.0,0.0,0.0,0.0,0.0,0.0,0.0,0.0,0.0,0.0,0.0,0.0,-3.1987,-3.2939,-3.1233,-3.1887,-3.2268,-3.1642,-3.1166,-3.0599,-2.9924,-3.0192,-3.0366,-3.0456,-3.1564,-3.245,-3.2924,-3.3324,-3.3566,-3.3598,-3.295,-3.2736,-3.3054,-3.253,-3.253,-3.3054,-3.2701,-3.2498,-3.2426,-3.0829,-2.989,-2.9453,-2.8344,-2.779,-2.7625,-2.7625,-2.729,-2.6856,-2.6856,-2.7134,-2.7332,-2.6352,-2.5846,-2.5648,0.0,0.0,0.0,0.0,0.0,0.0,0.0,0.0,-2.4392,-2.3484,-2.4731,-2.5871,-2.6258,-2.7255,-2.8115,-2.8722,-2.7992,-2.7199,-2.6592,0.0,0.0,0.0,0.0,-2.7405,-2.7642,-2.6962,-2.6533,-2.642,-2.5692,-2.5832,-2.681,-2.6393,-2.6685,-2.7603,-2.7725,-2.796,-2.8306,-2.875,-2.9071,-2.931,-2.9562,-2.9514,-2.9429,-3.0452,-3.0621,-3.048,-3.167,-3.2566,-3.307,-3.2311,0.0,0.0,0.0,0.0,0.0,0.0,0.0,0.0,0.0,0.0,0.0,0.0,0.0,0.0,0.0,0.0,0.0,0.0,0.0,0.0,0.0,0.0,0.0,0.0,-3.471,-3.5557,-3.4525,-3.4926,-3.518,-3.4622,-3.4188,-3.3754,-3.3369,-3.3201,-3.3023,-3.2761,-3.3216,-3.3657,-3.4003,-3.4562,-3.4742,-3.4464,-3.4315,-3.4202,-3.4037,-3.3333,-3.3189,-3.355,-3.3145,-3.2739,-3.2371,-3.0955,-3.0147,-2.9767,-2.8537,-2.7826,-2.7567,-2.7304,-2.6913,-2.6516,0.0,0.0,0.0,0.0,-2.5823,-2.5956,0.0,0.0,0.0,0.0,0.0,0.0,0.0,0.0,-2.4246,-2.3316,-2.4579,-2.5857,-2.6507,-2.673,-2.7214,-2.8201,-2.753,-2.6817,0.0,0.0,0.0,-2.6525,-2.7418,-2.7785,-2.7517,-2.6773,-2.6403,-2.6431,-2.5522,-2.5701,-2.688,-2.5982,-2.6139,-2.7211,-2.7545,-2.7875,-2.8203,-2.9249,-2.9696,-2.9713,-2.9712,-2.9735,-2.9869,-3.0975,-3.1569,-3.2001,-3.3471,-3.4209,-3.4542,-3.4842,0.0,0.0,0.0,0.0,0.0,0.0,0.0,0.0,0.0,0.0,0.0,0.0,0.0,0.0,0.0,0.0,0.0,0.0,0.0,0.0,0.0,0.0,0.0,0.0,-3.7661,-3.8547,-3.8259,-3.8203,-3.7851,-3.6841,-3.6827,-3.687,-3.679,-3.6268,-3.5578,-3.486,-3.4876,-3.4964,-3.4916,-3.6173,0.0,0.0,0.0,-3.6243,-3.5055,-3.4219,-3.3779,-3.369,-3.3449,-3.299,-3.2273,-3.1598,-3.0929,-3.0251,-2.9009,-2.8124,-2.7566,-2.6929,-2.6565,-2.6404,-2.658,-2.6535,-2.6346,-2.6381,-2.66,-2.6817,0.0,0.0,0.0,0.0,0.0,0.0,0.0,0.0,-2.4132,-2.3299,-2.4506,-2.5259,-2.4763,-2.5628,-2.6258,-2.6246,-2.5857,-2.5744,0.0,0.0,-2.5056,-2.7266,-2.6907,-2.6734,-2.6947,-2.6582,-2.6062,-2.5382,-2.5029,-2.5333,-2.6185,-2.6001,-2.6374,-2.7213,-2.7939,-2.8292,-2.8402,-2.9302,-2.9696,-2.9713,-2.9877,-3.0227,-3.0753,-3.1656,-3.2448,-3.3167,-3.4188,-3.5571,-3.6721,-3.5486,-3.6086,-3.7283,-3.6727,-3.6317,0.0,0.0,0.0,0.0,0.0,0.0,0.0,0.0,0.0,0.0,0.0,0.0,0.0,0.0,0.0,0.0,0.0,0.0,0.0,-3.7447,-3.8881,-3.9969,-4.0475,-4.0558,-3.9794,-3.7796,-3.7562,-3.7374,-3.6838,-3.6662,-3.6325,-3.5562,-3.6055,-3.6587,-3.7016,-3.7818,-3.8469,-3.8807,-3.8315,-3.7918,-3.7679,-3.587,-3.4949,-3.4936,-3.332,0.0,-3.2256,-3.1083,-3.0425,-3.0218,-2.893,-2.8306,-2.8217,-2.7431,-2.6725,-2.6275,-2.6671,-2.6539,-2.6199,-2.7141,-2.7157,-2.6825,0.0,0.0,0.0,0.0,0.0,0.0,0.0,0.0,-2.4155,-2.375,-2.4339,-2.4737,-2.4577,-2.4798,-2.4853,-2.4582,-2.4062,0.0,0.0,-2.4801,-2.5032,-2.6921,-2.6338,-2.6141,-2.6541,-2.6053,-2.5609,-2.5253,-2.5072,-2.5409,-2.62,-2.5688,-2.6355,-2.7959,-2.8061,-2.8572,-2.9391,-2.9924,-3.0147,-3.0147,-3.0265,-3.0486,-3.0837,-3.1653,-3.2438,-3.3315,-3.4647,-3.6315,-3.7827,-3.7389,-3.8185,-3.9377,-3.9466,-3.8897,-3.7956,0.0,0.0,0.0,0.0,0.0,0.0,0.0,0.0,0.0,0.0,0.0,0.0,0.0,0.0,-3.625,-3.7395,0.0,-3.9328,-4.1292,-4.1894,-4.2275,-4.2636,-4.2696,-4.1783,-3.9257,-3.9197,-3.9135,-3.852,-3.8683,-3.8556,-3.7787,-3.8089,-3.8391,-3.8579,-3.9534,-3.9767,-3.9022,-3.9236,-3.8861,-3.7813,-3.6147,-3.5122,-3.474,-3.3066,-3.2127,-3.1732,-3.1046,-3.074,-3.0666,-2.9337,-2.8608,-2.8238,-2.7074,-2.6416,-2.6168,-2.6614,-2.6455,-2.6082,-2.6942,-2.7012,-2.6742,0.0,0.0,0.0,0.0,0.0,0.0,0.0,0.0,0.0,-2.419,-2.419,-2.433,-2.4679,-2.3967,-2.3318,-2.2914,0.0,0.0,0.0,-2.4685,-2.4856,-2.6015,-2.5498,-2.5424,-2.5919,-2.5388,-2.5187,-2.5343,-2.5274,-2.5577,-2.6193,-2.5371,-2.6193,-2.8313,-2.8007,-2.8701,-3.017,-3.0648,-3.0749,-3.0634,-3.0962,-3.1011,-3.0923,-3.1502,-3.2259,-3.3154,-3.4737,-3.6449,-3.8089,-3.889,-3.9746,-4.0713,-4.1763,-4.1247,-4.0039,-3.875,-3.8492,0.0,0.0,0.0,0.0,0.0,0.0,0.0,0.0,-3.7508,-3.7308,-3.8021,-3.8711,-3.9777,-4.1675,-4.2154,-4.2953,-4.5077,-4.4868,-4.4432,-4.4387,-4.4432,-4.3547,-4.1165,-4.1128,-4.1076,-4.0483,-4.0844,-4.0774,-4.0008,-4.0095,-4.0096,-3.9996,-4.1081,-4.1013,-3.9417,-4.0077,-3.9662,-3.7988,-3.613,-3.4913,-3.4321,-3.2821,-3.1765,-3.119,-3.119,-3.119,-3.1117,-2.9779,-2.8708,-2.7815,-2.664,-2.6165,-2.6191,-2.6539,-2.647,-2.6191,-2.6556,-2.6691,-2.6691,0.0,0.0,0.0,0.0,0.0,0.0,0.0,0.0,0.0,-2.419,-2.419,-2.415,-2.4024,-2.3031,-2.2003,0.0,0.0,0.0,-2.3542,-2.2815,-2.3088,-2.482,-2.4166,-2.4008,-2.4591,-2.4713,-2.4869,-2.5138,-2.5297,-2.5429,-2.552,-2.539,-2.5931,-2.7045,-2.7756,-2.8598,-2.9609,-3.1113,-3.13,-3.073,-3.2286,-3.2461,-3.1754,-3.1851,-3.2404,-3.3299,-3.4263,-3.5699,-3.7257,-3.7983,-3.8824,-3.9836,-4.1496,-4.2361,-4.2207,-3.9197,-3.8861,-3.8385,-3.3474,-3.3548,-3.5507,-3.7553,-3.8046,-3.9103,0.0,-4.2347,-4.1271,-4.3278,-4.4339,-4.4952,-4.5235,-4.5249,-4.5517,-4.6451,-4.578,-4.5166,-4.5121,-4.5121,-4.4792,-4.3768,-4.3147,-4.2449,-4.1692,-4.1664,-4.1389,-4.0636,-4.1195,-4.1481,-4.1302,-4.2098,-4.2684,-4.2919,-4.1672,-4.0903,-4.0653,-3.686,-3.4889,-3.4783,-3.2448,-3.1275,-3.119,-3.119,-3.119,-3.1117,-2.9779,-2.8301,-2.6859,-2.6829,-2.672,-2.6624,-2.6691,-2.6657,-2.6624,-2.6691,-2.6691,-2.6691,0.0,0.0,0.0,0.0,0.0,0.0,0.0,0.0,0.0,0.0,0.0,-2.4094,-2.3816,-2.2736,0.0,0.0,0.0,0.0,-2.2435,-2.166,-2.1865,-2.3399,-2.2745,-2.2702,-2.351,-2.3658,-2.4024,-2.4686,-2.4822,-2.4964,-2.511,-2.5233,-2.6028,-2.7394,-2.7883,-2.9131,-3.0905,-3.1592,-3.1984,-3.218,-3.2904,-3.2982,-3.2669,-3.2669,-3.3202,-3.3861,-3.3176,-3.4327,0.0,-3.6539,-3.7589,-3.9062,-4.0809,-4.1235,-4.074,-3.8858,-3.8559,-3.8607,-3.7474,-3.7343,-3.8108,-4.0602,-4.161,-4.2437,-4.4191,-4.3694,-4.3216,-4.4417,-4.5262,-4.5806,-4.5806,-4.6146,-4.6701,-4.7484,-4.7262,-4.7166,-4.7628,-4.7738,-4.7259,-4.5932,-4.5965,-4.5151,-4.2725,-4.2548,-4.2502,-4.2176,-4.2632,-4.3018,-4.3299,-4.3138,-4.2835,-4.2397,-4.0804,-3.9871,-3.9698,-3.6331,-3.4717,-3.4888,-3.2626,-3.1411,-3.119,-3.119,-3.0717,-2.9888,-2.9324,-2.8185,-2.6708,-2.6754,-2.6756,-2.6691,-2.6691,-2.6841,-2.7019,-2.6791,-2.6841,-2.7051,0.0,0.0,0.0,0.0,0.0,0.0,0.0,0.0,0.0,0.0,0.0,0.0,0.0,0.0,0.0,0.0,0.0,0.0,0.0,-2.0858,-2.0855,-2.1907,-2.1436,-2.1499,-2.2272,-2.2652,-2.3211,-2.3995,-2.4214,-2.4448,-2.4779,-2.5147,-2.6163,-2.7718,-2.8328,-2.9738,-3.1709,-3.2173,-3.2617,-3.3014,-3.3488,-3.3527,-3.3304,-3.3304,-3.3691,-3.4061,-3.2658,-3.3496,-3.5263,-3.5178,-3.6018,-3.7351,-3.8802,-3.8949,-3.8424,-3.7322,-3.6853,-3.7057,-3.8899,-3.9447,-4.0045,-4.2394,-4.4025,-4.4963,-4.4692,-4.4573,-4.4627,-4.4954,-4.5654,-4.6182,-4.6182,-4.6765,-4.7448,-4.8017,-4.7988,-4.8031,-4.8447,-4.8673,-4.8268,-4.6844,-4.7221,-4.6607,-4.403,-4.3864,-4.3841,-4.3587,-4.3811,-4.4046,-4.424,-4.363,-4.2776,-4.1642,-4.0179,-3.9295,-3.9019,-3.6181,-3.4842,-3.5079,-3.3002,-3.177,-3.1334,-3.1048,-3.0192,-2.9011,-2.8755,-2.7909,-2.6691,-2.6691,-2.6758,-2.6873,-2.6873,-2.7115,-2.7409,-2.7147,-2.721,-2.7487,0.0,0.0,0.0,0.0,0.0,0.0,0.0,0.0,0.0,0.0,0.0,0.0,0.0,0.0,0.0,0.0,0.0,0.0,0.0,-2.0365,-2.0017,-2.0258,-2.0239,-2.041,-2.0766,-2.1837,-2.2601,-2.2934,-2.3533,-2.4025,-2.4444,-2.523,-2.6249,-2.7487,-2.9118,-3.0321,-3.1224,-3.2863,-3.3107,-3.2578,-3.4205,-3.4337,-3.3599,-3.3599,-3.3615,-3.3578,-3.3196,0.0,-3.4398,-3.4133,-3.4042,-3.4163,-3.485,-3.5609,-3.5894,-3.4223,-3.3194,-3.302,-3.5106,-3.7398,-3.9658,-4.1478,-4.393,-4.5834,-4.5772,-4.5804,-4.5861,-4.5844,-4.6546,-4.716,-4.716,-4.7548,-4.7876,-4.7914,-4.7468,-4.6872,-4.6127,-4.6615,-4.6751,-4.5949,-4.5854,-4.5827,-4.5743,-4.5714,-4.5383,-4.461,-4.458,-4.4221,-4.3384,-4.3309,-4.2776,-4.1651,-4.0728,-4.0129,-3.9863,-3.6999,-3.5562,-3.5562,-3.3461,-3.223,-3.1718,-3.0657,-2.9719,-2.8941,-2.8197,-2.7402,-2.6691,-2.6691,-2.6939,-2.7272,-2.7272,-2.753,-2.7869,-2.7869,-2.7869,-2.7869,0.0,0.0,0.0,0.0,0.0,0.0,0.0,0.0,0.0,0.0,0.0,0.0,0.0,0.0,0.0,0.0,-2.2019,0.0,0.0,-2.0237,-1.972,-1.9793,-1.8772,-1.8593,-1.942,-1.9386,-2.0048,-2.1454,-2.1642,-2.2514,-2.3939,-2.4343,-2.5474,-2.7193,-2.8368,-2.9842,-3.1495,-3.2555,-3.3355,-3.3994,-3.4523,-3.46,-3.4278,-3.3595,-3.333,-3.316,0.0,0.0,-3.2126,-3.2045,-3.1991,-3.2122,-3.2919,-3.2957,-3.2598,-3.1994,-3.1995,-3.2845,-3.576,-3.7783,-3.96,-4.1867,-4.3788,-4.5113,-4.508,-4.5508,-4.5909,-4.5908,-4.4792,-4.3812,-4.3812,-4.3947,-4.4245,-4.482,-4.6183,-4.7256,-4.7567,-4.7848,-4.7671,-4.6827,-4.7231,-4.7119,-4.5912,-4.5532,-4.5204,-4.4938,-4.514,-4.488,-4.4,-4.3243,-4.2318,-4.1167,-3.9548,-3.8581,-3.8315,-3.6241,-3.5066,-3.4785,-3.2928,-3.169,-3.1045,-3.0401,-2.9414,-2.8197,-2.7943,-2.7385,-2.6691,-2.6691,-2.6939,-2.7303,-2.7303,-2.7689,-2.8237,-2.8237,-2.8412,-2.8583,0.0,0.0,0.0,0.0,0.0,0.0,0.0,0.0,0.0,0.0,0.0,0.0,0.0,0.0,0.0,0.0,0.0,-2.2321,0.0,0.0,-1.9673,-1.9495,-1.8398,-1.8037,-1.8478,-1.8365,-1.8877,-2.0115,-2.02,-2.1183,-2.2996,-2.3409,-2.4705,-2.6732,-2.7901,-2.9467,-3.1209,-3.1983,-3.279,-3.3531,-3.3531,-3.3364,-3.3072,-3.2408,-3.1996,0.0,0.0,0.0,-2.9941,-3.0223,-3.0546,-3.0903,-3.1409,-3.1389,-3.1125,-3.0824,-3.1476,-3.2935,-3.5803,-3.7389,-3.8822,-4.1418,-4.2829,-4.367,-4.3969,-4.4781,-4.5376,-4.5073,-4.3475,-4.205,-4.1768,-4.1988,-4.2183,-4.21,-4.4195,-4.6021,-4.6533,-4.661,-4.6631,-4.6684,-4.7216,-4.7109,-4.5924,-4.5533,-4.532,-4.5282,-4.5188,-4.4705,-4.375,-4.2432,-4.1119,-3.9876,-3.8303,-3.7339,-3.7055,-3.5535,-3.4375,-3.3527,-3.2705,-3.1753,-3.07,-3.0318,-2.9455,-2.82,-2.7958,-2.7579,-2.7115,-2.7115,-2.7348,-2.7689,-2.7689,-2.8084,-2.8615,-2.8615,-2.8773,-2.8952,0.0,0.0,0.0,0.0,0.0,0.0,0.0,0.0,0.0,0.0,0.0,0.0,0.0,0.0,0.0,0.0,0.0,0.0,0.0,0.0,0.0,-1.9405,-1.9045,-1.8612,-1.8068,-1.8669,-1.9067,-1.9104,-1.9286,-2.0146,-2.1708,-2.2449,-2.3911,-2.6016,-2.7582,-2.8985,-3.0248,-3.101,-3.1271,-3.1207,-3.1239,-3.0814,-3.0206,-3.0206,0.0,0.0,0.0,-2.851,-2.7956,-2.8808,-2.9699,-3.0409,-3.0226,-3.0729,-3.1317,-3.0683,-3.1581,-3.3179,-3.5179,-3.624,-3.7435,-4.0113,-4.1112,-4.1649,-4.2437,-4.3609,-4.4283,-4.3404,-4.2546,-4.1735,-4.0964,-4.1607,-4.1709,-4.0019,-4.187,-4.3487,-4.3368,-4.3336,-4.3947,-4.5601,-4.5877,-4.5872,-4.582,-4.5819,-4.5738,-4.5547,-4.4759,-4.3788,-4.2658,-4.1036,-3.9437,-3.7932,-3.7143,-3.657,-3.6229,-3.5,-3.3575,-3.2058,-3.2798,-3.23,-3.0728,-3.0315,-2.969,-2.8894,-2.8216,-2.7897,-2.7897,-2.7897,-2.8102,-2.8394,-2.8394,-2.8658,-2.8994,-2.8938,-2.892,-2.892,0.0,0.0,0.0,0.0,0.0,0.0,0.0,0.0,0.0,0.0,0.0,0.0,0.0,0.0,0.0,0.0,0.0,0.0,0.0,0.0,0.0,0.0,0.0,0.0,0.0,0.0,0.0,-1.9177,-1.9029,-1.9789,-2.1401,-2.1414,-2.2216,-2.3748,-2.4709,-2.5875,-2.7145,-2.7383,-2.7981,-2.876,0.0,-2.8963,-2.8903,0.0,0.0,0.0,0.0,-2.7479,-2.7159,-2.8566,-2.9386,-2.9773,-2.9423,-2.9861,-3.0729,-3.174,-3.2732,-3.3897,-3.568,-3.643,-3.71,-3.8587,-3.9296,-3.9639,-3.9849,-4.1151,-4.2028,-4.1013,-3.9746,-3.8744,-3.8373,-3.934,-4.0187,-4.0232,-4.3059,-4.5241,-4.5228,-4.52,-4.5376,-4.583,-4.5975,-4.5994,-4.5893,-4.5871,-4.5565,-4.4833,-4.4288,-4.3578,-4.2658,-4.1161,-3.957,-3.7951,-3.7516,-3.6675,-3.5349,-3.4421,-3.3451,-3.2437,-3.2343,-3.147,-2.99,-2.9508,-2.8877,-2.818,-2.7986,-2.7897,-2.7897,-2.7897,-2.8102,-2.8394,-2.8394,-2.8658,-2.892,-2.8338,-2.8117,-2.8029,0.0,0.0,0.0,0.0,0.0,0.0,0.0,0.0,0.0,0.0,0.0,0.0,0.0,0.0,0.0,0.0,0.0,0.0,0.0,0.0,0.0,0.0,0.0,0.0,0.0,0.0,0.0,0.0,0.0,0.0,-2.1075,-2.0834,-2.1462,-2.2923,-2.3312,-2.4214,-2.5319,-2.5394,0.0,0.0,0.0,0.0,0.0,0.0,0.0,0.0,-2.6597,-2.6759,-2.7206,-2.7684,-2.8943,-3.0273,-3.008,-3.0686,-3.1628,-3.2192,-3.3031,-3.4009,-3.4945,-3.5311,-3.5669,-3.6603,-3.7126,-3.7425,-3.7485,-3.8626,-3.9294,-3.8023,-3.6804,-3.5944,-3.5761,-3.7403,-3.8748,-3.8665,-4.194,-4.4478,-4.4418,-4.4453,-4.4781,-4.5557,-4.5852,-4.5987,-4.5918,-4.5585,-4.5134,-4.454,-4.3752,-4.2883,-4.1898,-3.9902,-3.8282,-3.7229,-3.6325,-3.5347,-3.4215,-3.3945,-3.314,-3.1801,-3.212,-3.122,-2.9355,-2.9449,-2.9098,-2.8378,-2.8378,-2.8378,-2.8378,-2.8378,-2.829,-2.8167,-2.853,-2.8377,-2.7934,-2.7842,-2.7613,-2.737,0.0,0.0,0.0,0.0,0.0,0.0,0.0,0.0,0.0,0.0,0.0,0.0,0.0,0.0,0.0,0.0,0.0,0.0,0.0,0.0,0.0,0.0,0.0,0.0,0.0,0.0,0.0,0.0,-1.9506,0.0,0.0,0.0,0.0,0.0,0.0,0.0,0.0,0.0,0.0,0.0,0.0,0.0,0.0,0.0,0.0,0.0,-2.4778,-2.5965,-2.7314,-2.6554,-2.851,-3.1263,-3.1188,-3.2054,-3.2979,-3.2265,-3.2806,-3.3634,-3.3707,-3.3707,-3.3899,-3.4697,-3.5118,-3.5315,-3.5244,-3.6083,-3.6422,-3.4718,-3.4033,-3.3673,-3.3658,-3.5875,-3.7509,-3.6919,-3.9941,-4.2424,-4.262,-4.268,-4.3328,-4.5071,-4.5491,-4.5667,-4.5737,-4.4998,-4.4426,-4.4206,-4.3003,-4.1812,-4.0802,-3.8265,-3.6615,-3.6119,-3.4614,-3.3597,-3.311,-3.346,-3.2657,-3.0721,-3.178,-3.1121,-2.9012,-2.9732,-2.9659,-2.8994,-2.8994,-2.8994,-2.8994,-2.8994,-2.8539,-2.786,-2.8576,-2.7956,-2.6709,-2.7298,-2.7206,-2.6767,0.0,0.0,0.0,0.0,0.0,0.0,0.0,0.0,0.0,0.0,-2.4526,-2.4497,0.0,0.0,0.0,0.0,0.0,0.0,0.0,0.0,0.0,0.0,0.0,0.0,0.0,-2.1469,-2.1258,-2.1258,-2.0847,-2.0766,0.0,0.0,0.0,0.0,0.0,0.0,0.0,0.0,0.0,0.0,0.0,0.0,0.0,0.0,0.0,0.0,-2.3276,-2.41,-2.5421,-2.5579,-2.8339,-3.1567,-3.0803,-3.151,-3.258,-3.2456,-3.2574,-3.2809,-3.3196,-3.3302,-3.3465,-3.4166,-3.4375,-3.4116,-3.2919,-3.3721,-3.4068,-3.1685,-3.2229,-3.3291,-3.3771,-3.5169,-3.6885,-3.8748,-3.9954,-4.1301,-4.3231,-4.2977,-4.3246,-4.4927,-4.4671,-4.4479,-4.4873,-4.4133,-4.3317,-4.2576,-4.1343,-4.0423,-3.9936,-3.8509,-3.6931,-3.5275,-3.4302,-3.345,-3.271,-3.2763,-3.1983,-3.0314,-3.0534,-3.0063,-2.8994,-2.9122,-2.9122,-2.8994,-2.8994,-2.8994,-2.8994,-2.8994,-2.8539,-2.7805,-2.7952,-2.753,-2.6785,-2.6265,-2.6094,-2.6086,0.0,0.0,0.0,0.0,0.0,0.0,0.0,-2.4508,-2.4642,-2.4673,-2.4723,-2.4657,-2.4545,-2.4464,-2.4375,0.0,0.0,0.0,0.0,0.0,0.0,0.0,0.0,0.0,0.0,-2.2459,-2.233,-2.2275,0.0,-2.1622,-2.1562,-2.1164,-2.0959,-2.091,-2.0681,-2.0736,-2.098,-2.0531,0.0,-2.1322,-2.147,-2.1795,0.0,0.0,0.0,0.0,0.0,-2.2817,-2.419,-2.3888,-2.5918,-2.8661,-2.9193,-2.9732,-3.0278,-3.0636,-3.108,-3.1649,-3.2203,-3.261,-3.2965,-3.3533,-3.3358,-3.272,-3.1376,-3.1575,-3.1486,-2.951,-3.0091,-3.1182,-3.1795,-3.3407,-3.509,-3.6463,-3.8164,-3.9937,-4.1619,-4.1783,-4.2265,-4.3736,-4.3528,-4.3233,-4.3109,-4.247,-4.1697,-4.0864,-3.9816,-3.9227,-3.9237,-3.7587,-3.5948,-3.4412,-3.4009,-3.3421,-3.2614,-3.2614,-3.1806,-3.021,-3.021,-2.9787,-2.8994,-2.8994,-2.8994,-2.8994,-2.8994,-2.8778,-2.8374,-2.8374,-2.764,-2.6597,-2.7126,-2.6635,-2.5668,-2.5809,-2.5687,-2.5422,0.0,0.0,0.0,0.0,0.0,0.0,0.0,-2.4493,-2.4642,-2.4757,-2.4842,-2.4837,-2.4716,-2.4512,-2.4375,0.0,0.0,0.0,0.0,0.0,0.0,0.0,0.0,0.0,0.0,0.0,0.0,-2.2985,-2.259,0.0,0.0,0.0,0.0,0.0,-2.1368,-2.1181,-2.1039,-2.0795,-2.0994,0.0,0.0,-2.1792,0.0,0.0,0.0,0.0,0.0,-2.1743,-2.2772,-2.2245,-2.3117,-2.4735,-2.6424,-2.7176,-2.7562,-2.8094,-2.9008,-2.9964,-3.0666,-3.1496,-3.2228,-3.2541,-3.2247,-3.1459,-2.9892,-2.9753,-2.9472,-2.7901,-2.8331,-2.9173,-2.9692,-3.1259,-3.2686,-3.3342,-3.5302,-3.7422,-3.9386,-3.984,-4.0559,-4.2174,-4.2133,-4.1761,-4.1181,-4.0607,-4.0001,-3.9354,-3.8247,-3.7792,-3.8156,-3.6295,-3.4705,-3.3568,-3.3532,-3.3073,-3.21,-3.21,-3.1366,-2.9953,-2.9953,-2.9622,-2.8994,-2.8994,-2.8994,-2.8975,-2.8833,-2.8374,-2.7787,-2.7603,-2.6686,-2.5478,-2.6263,-2.5762,-2.4669,-2.5449,-2.5446,-2.5057,0.0,0.0,0.0,0.0,0.0,0.0,0.0,-2.4444,-2.4642,-2.4707,-2.4823,-2.4934,-2.5044,-2.4813,-2.4645,0.0,0.0,0.0,0.0,0.0,0.0,0.0,0.0,0.0,0.0,0.0,0.0,-2.3247,-2.3102,0.0,0.0,0.0,0.0,0.0,0.0,-2.1675,-2.1538,-2.1615,0.0,0.0,0.0,0.0,0.0,0.0,0.0,0.0,0.0,-2.0624,-2.0538,-2.1385,-2.1218,-2.0887,-2.1888,-2.3638,-2.5299,-2.5492,-2.6404,-2.7474,-2.8223,-2.9696,-3.098,-3.0803,-3.1102,-3.0754,-2.8011,-2.8468,-2.8873,-2.685,-2.7656,-2.8761,-2.8816,-2.8998,-2.9693,-3.1367,-3.135,-3.2724,-3.7199,-3.7356,-3.799,-4.0666,-4.039,-3.9857,-3.9624,-3.8943,-3.8475,-3.8338,-3.652,-3.5623,-3.6135,-3.5004,-3.3833,-3.2742,-3.2724,-3.1971,-3.0448,-3.043,-2.9989,-2.9104,-2.9104,-2.9067,-2.8994,-2.8994,-2.8994,-2.8957,-2.8227,-2.786,-2.7732,-2.7016,-2.619,-2.5421,-2.5496,-2.5224,-2.4775,-2.4884,-2.5063,-2.5274,0.0,0.0,0.0,0.0,0.0,0.0,-2.4247,-2.4392,-2.4526,-2.4629,-2.4719,-2.4794,-2.4842,-2.4723,-2.4663,-2.466,0.0,0.0,0.0,0.0,0.0,0.0,0.0,0.0,0.0,0.0,-2.3685,-2.3535,-2.3319,0.0,0.0,0.0,0.0,0.0,0.0,-2.2254,-2.2186,-2.2136,0.0,0.0,0.0,0.0,0.0,0.0,0.0,0.0,0.0,0.0,-1.9242,-1.9626,-1.956,-1.9257,-1.9061,-1.9707,-2.0854,-2.2761,-2.3925,-2.4787,-2.5758,-2.7099,-2.8298,-2.8445,-2.8812,-2.8622,-2.6801,-2.7452,-2.7966,-2.6265,-2.7281,-2.8322,-2.7835,-2.7901,-2.8088,-2.8201,-2.8711,-3.0248,-3.3633,-3.4339,-3.5372,-3.7686,-3.7641,-3.7097,-3.6221,-3.5876,-3.5426,-3.4764,-3.388,-3.3374,-3.3435,-3.3004,-3.2502,-3.1905,-3.188,-3.1347,-3.021,-3.021,-2.9806,-2.8994,-2.8994,-2.8994,-2.8994,-2.8994,-2.8994,-2.8957,-2.8154,-2.753,-2.7016,-2.6209,-2.5401,-2.4706,-2.4945,-2.4936,-2.4832,-2.5031,-2.5201,-2.5303,0.0,0.0,0.0,0.0,0.0,-2.4209,-2.4266,-2.4338,-2.4444,-2.453,-2.4629,-2.4673,-2.4707,-2.466,-2.4629,-2.466,-2.4564,0.0,0.0,0.0,0.0,0.0,0.0,0.0,0.0,0.0,-2.3792,-2.3602,-2.3412,-2.3217,0.0,0.0,-2.2876,-2.2842,0.0,0.0,0.0,0.0,0.0,0.0,0.0,0.0,0.0,0.0,0.0,0.0,0.0,0.0,0.0,0.0,0.0,-1.8702,-1.7731,-1.7399,0.0,-1.9754,-2.1021,-2.1934,-2.2949,-2.4414,-2.5696,-2.5944,-2.6396,-2.6393,-2.5242,-2.5945,-2.6527,-2.5376,-2.6402,-2.7264,-2.6461,-2.6525,-2.647,-2.5858,-2.6867,-2.8478,-3.0667,-3.1846,-3.3102,-3.4786,-3.4888,-3.4517,-3.3692,-3.3531,-3.3051,-3.2072,-3.1826,-3.1541,-3.1113,-3.1005,-3.1001,-3.1035,-3.1035,-3.065,-2.9861,-2.9861,-2.9567,-2.8994,-2.8994,-2.8994,-2.8994,-2.8994,-2.8865,-2.8613,-2.7787,-2.6979,-2.619,-2.5445,-2.4801,-2.4321,-2.467,-2.4814,-2.4896,-2.5118,-2.5253,-2.5303,0.0,0.0,0.0,0.0,0.0,0.0,-2.419,-2.4321,-2.4411,-2.4389,-2.4526,-2.4642,-2.4692,-2.4707,-2.4676,-2.4615,-2.441,0.0,0.0,0.0,0.0,0.0,0.0,0.0,0.0,0.0,-2.3664,-2.3407,-2.3336,-2.3193,-2.2995,-2.2995,-2.2952,-2.2893,0.0,0.0,0.0,0.0,0.0,0.0,0.0,0.0,0.0,0.0,0.0,0.0,0.0,0.0,0.0,0.0,0.0,0.0,0.0,-1.739,0.0,0.0,-1.7435,-1.8949,-1.9797,-2.1757,-2.354,-2.3554,-2.4081,-2.4311,-2.3104,-2.3769,-2.4479,-2.3926,-2.4768,-2.5385,-2.4582,-2.4491,-2.4622,-2.4874,-2.5867,-2.7175,-2.8805,-3.0189,-3.1343,-3.224,-3.2349,-3.2441,-3.2694,-3.2407,-3.1882,-3.1089,-3.077,-3.0273,-2.9468,-2.9175,-2.9402,-3.0191,-3.021,-2.9843,-2.9012,-2.8994,-2.8994,-2.8994,-2.8994,-2.8994,-2.8994,-2.8994,-2.8576,-2.7769,-2.6961,-2.6153,-2.5368,-2.4762,-2.4495,-2.4528,-2.4716,-2.4877,-2.501,-2.501,-2.5141,-2.5303,0.0,0.0,0.0,0.0,0.0,0.0,0.0,-2.4228,-2.4266,-2.4266,-2.4266,-2.421,-2.4098,-2.4079,-2.4002,-2.3844,-2.4248,0.0,0.0,0.0,0.0,0.0,0.0,0.0,0.0,0.0,-2.3479,-2.2722,-2.324,-2.3468,-2.3412,-2.3399,-2.3382,-2.3312,-2.3359,-2.3427,0.0,0.0,0.0,0.0,0.0,0.0,-2.2968,0.0,0.0,0.0,0.0,0.0,0.0,0.0,0.0,0.0,0.0,0.0,0.0,-1.5288,-1.5904,-1.6927,-1.737,-1.8591,-1.9809,-2.0045,-2.1333,-2.2432,-2.1895,-2.3095,-2.4191,-2.3699,-2.4542,-2.5191,-2.447,-2.4456,-2.458,-2.4617,-2.4508,-2.5165,-2.7323,-2.8365,-2.9289,-3.0388,-3.1012,-3.1203,-3.081,-3.0435,-2.9929,-2.9274,-2.8948,-2.8739,-2.8718,-2.8639,-2.8834,-2.936,-2.936,-2.925,-2.8994,-2.8994,-2.8723,-2.8172,-2.8172,-2.7897,-2.7365,-2.7365,-2.7218,-2.6924,-2.628,-2.5838,-2.556,-2.4944,-2.47,-2.4731,-2.4877,-2.4962,-2.5022,-2.5152,-2.5253,-2.5303,0.0,0.0,0.0,0.0,0.0,0.0,0.0,-2.4209,-2.419,-2.419,-2.417,-2.4094,-2.3958,-2.3896,-2.3795,-2.3671,-2.3983,0.0,0.0,0.0,0.0,0.0,0.0,0.0,0.0,-2.3166,-2.2937,-2.2256,-2.2763,-2.3017,-2.3079,-2.3392,-2.3584,-2.3628,-2.3692,-2.3756,0.0,0.0,0.0,0.0,0.0,0.0,-2.3307,0.0,0.0,0.0,0.0,0.0,0.0,0.0,0.0,0.0,0.0,0.0,0.0,0.0,-1.5236,-1.5601,-1.574,-1.6399,-1.7106,-1.7695,-1.9098,-2.0351,-2.0473,-2.1851,-2.3065,-2.2946,-2.3746,-2.4349,-2.3927,-2.4014,-2.4201,-2.4241,-2.4371,-2.4967,-2.6417,-2.7338,-2.8201,-2.9109,-2.9913,-3.0194,-2.9602,-2.9314,-2.8972,-2.843,-2.821,-2.8255,-2.8608,-2.8633,-2.8749,-2.8994,-2.8994,-2.9044,-2.9156,-2.875,-2.8327,-2.7904,-2.754,-2.709,-2.6594,-2.6698,-2.6554,-2.624,-2.5948,-2.5641,0.0,-2.5007,-2.4883,-2.4891,-2.5053,-2.5111,-2.5141,-2.5253,-2.5303,-2.5303,0.0,0.0,0.0,0.0,0.0,0.0,0.0,-2.419,-2.419,-2.419,-2.4208,-2.419,-2.417,-2.3996,-2.3876,-2.3855,0.0,0.0,0.0,0.0,0.0,0.0,0.0,0.0,0.0,-2.2642,-2.2144,-2.1908,-2.1984,-2.2076,-2.2238,-2.3057,-2.3588,-2.3837,-2.3917,-2.3979,0.0,0.0,0.0,0.0,0.0,0.0,0.0,0.0,0.0,0.0,0.0,0.0,0.0,0.0,0.0,0.0,0.0,0.0,0.0,0.0,0.0,0.0,0.0,-1.5133,-1.5513,-1.6536,-1.7464,-1.8321,-1.9059,-2.027,0.0,-2.1895,-2.2554,-2.3035,-2.3025,-2.3248,-2.3495,-2.3756,-2.5012,-2.6003,-2.6096,-2.7155,-2.8079,-2.8389,-2.9206,-2.9483,-2.8935,-2.8959,-2.8823,-2.8396,-2.827,-2.8424,-2.8837,-2.8879,-2.8865,-2.8828,-2.8865,-2.902,-2.9279,-2.823,-2.7791,-2.7884,-2.6958,-2.6484,-2.6429,-2.6654,-2.6321,-2.5632,-2.5831,-2.5488,-2.4814,-2.4962,-2.5022,-2.5034,-2.5224,-2.5303,-2.5303,-2.5303,-2.5303,-2.5303,0.0,0.0,0.0,0.0,0.0,0.0,0.0,0.0,0.0,0.0,-2.4151,-2.4056,-2.3917,-2.3837,-2.371,0.0,0.0,0.0,0.0,0.0,0.0,0.0,0.0,0.0,0.0,-2.2909,-2.2445,-2.1088,-2.1803,-2.226,-2.2431,-2.2793,-2.3411,-2.4191,-2.4248,-2.4355,0.0,0.0,0.0,0.0,0.0,0.0,0.0,0.0,0.0,0.0,-2.1048,-2.0355,0.0,0.0,0.0,0.0,0.0,0.0,0.0,0.0,-1.6191,-1.5492,-1.5511,0.0,-1.4955,-1.6376,-1.7083,-1.7791,0.0,0.0,0.0,-2.1748,-2.2265,-2.2505,-2.2306,-2.2487,-2.2869,-2.3539,-2.3664,-2.445,-2.6676,-2.8338,-2.9211,-2.8886,-3.0016,-3.0004,-2.7914,-2.849,-2.8743,-2.8071,-2.7162,-2.6922,-2.7592,-2.7616,-2.7482,-2.716,-2.7769,-2.8125,-2.819,-2.7334,-2.6599,-2.6036,-2.579,-2.5346,-2.4759,-2.4967,-2.4961,-2.4791,-2.5106,-2.5127,-2.4962,-2.5152,-2.5224,-2.5224,-2.5274,-2.5303,-2.5303,-2.5303,-2.5303,-2.5303,0.0,0.0,0.0,0.0,0.0,0.0,0.0,0.0,0.0,0.0,0.0,0.0,0.0,0.0,0.0,0.0,0.0,0.0,0.0,0.0,0.0,0.0,0.0,0.0,-2.2565,-2.2676,-2.2089,-2.0807,-2.1339,-2.153,-2.1414,-2.2369,-2.318,-2.3852,-2.4356,-2.4575,0.0,0.0,0.0,0.0,-2.4172,0.0,0.0,0.0,0.0,0.0,-2.1139,-2.0693,0.0,-2.0443,-1.9929,-1.927,0.0,0.0,0.0,0.0,-1.7186,-1.6553,-1.6712,-1.5667,-1.4789,-1.5806,-1.6649,-1.7547,-1.8672,0.0,0.0,-2.1375,-2.1793,-2.2042,-2.1728,-2.2225,-2.2691,-2.2712,-2.3825,-2.5189,-2.6649,-2.7014,-2.7403,-2.8201,-2.8649,-2.8703,-2.8152,-2.8303,-2.8134,-2.7406,-2.6725,-2.6543,-2.6908,-2.6936,-2.6822,-2.6612,-2.6649,-2.6914,-2.7391,-2.6491,-2.5886,-2.5523,-2.5076,-2.4671,-2.4339,-2.4561,-2.4666,-2.4733,-2.5018,-2.5141,-2.5152,-2.5264,-2.5303,-2.5303,-2.5303,-2.5303,-2.5303,-2.5303,-2.5322,-2.5341,0.0,0.0,0.0,0.0,0.0,0.0,0.0,0.0,0.0,0.0,0.0,0.0,0.0,0.0,0.0,0.0,0.0,0.0,0.0,0.0,0.0,0.0,0.0,-2.2944,-2.3003,-2.2391,-2.1721,-2.1005,-2.0982,-2.0726,-2.0354,-2.1917,-2.2974,-2.3577,-2.444,-2.4749,0.0,0.0,-2.4462,-2.4229,-2.421,0.0,0.0,0.0,0.0,0.0,0.0,0.0,0.0,-2.1066,-2.0732,-2.0281,-2.0083,0.0,0.0,0.0,0.0,0.0,-1.7987,-1.6729,-1.5403,-1.5699,-1.6529,-1.7522,-1.8284,0.0,0.0,-2.0884,-2.1305,-2.1609,-2.1425,-2.2069,-2.2454,-2.1902,-2.4542,-2.662,-2.6426,-2.5497,-2.5397,-2.7008,-2.6961,-2.7157,-2.8236,-2.8026,-2.7485,-2.6676,-2.6559,-2.6468,-2.6341,-2.6389,-2.6355,-2.6245,-2.5676,-2.5741,-2.647,-2.565,-2.5299,-2.5463,-2.4654,-2.4339,-2.4512,-2.4727,-2.4891,-2.501,-2.5214,-2.5303,-2.5303,-2.5303,-2.5303,-2.5303,-2.5303,-2.5303,-2.5322,-2.5322,-2.537,-2.5428,0.0,0.0,0.0,0.0,0.0,0.0,0.0,0.0,0.0,0.0,0.0,0.0,0.0,0.0,0.0,0.0,0.0,0.0,0.0,0.0,0.0,0.0,-2.3045,-2.302,-2.3077,-2.2972,-2.2623,-2.2003,-2.1419,-2.1234,-2.1387,-2.1832,-2.2927,-2.4586,-2.479,-2.4804,-2.4676,-2.4613,-2.4549,-2.4429,-2.4321,0.0,0.0,0.0,0.0,0.0,0.0,0.0,0.0,-2.0373,-2.039,-2.0226,-1.9748,0.0,0.0,0.0,0.0,0.0,-1.8301,-1.8302,-1.8194,-1.7911,-1.7613,-1.7704,-1.8942,-1.9464,-1.9891,-2.067,-2.0933,-2.1188,-2.1714,-2.135,-2.1254,-2.2153,-2.446,-2.6276,-2.6764,-2.7847,-2.803,-2.6566,-2.7786,-2.7898,-2.5653,-2.6872,-2.7385,-2.6358,-2.591,-2.5547,-2.5181,-2.5424,-2.5254,-2.4593,-2.5127,-2.5165,-2.4634,-2.4448,-2.4393,-2.4431,-2.4448,-2.4461,-2.4512,-2.4818,-2.4986,-2.501,-2.5214,-2.5303,-2.5303,-2.5303,-2.5303,-2.5303,-2.5303,-2.5322,-2.539,-2.539,-2.5428,-2.5486,0.0,0.0,0.0,0.0,0.0,0.0,0.0,0.0,0.0,0.0,0.0,0.0,0.0,0.0,0.0,0.0,0.0,0.0,0.0,0.0,0.0,-2.3265,-2.2746,-2.2687,-2.3151,-2.323,-2.2744,-2.1661,-2.1528,-2.1368,-2.1198,-2.2421,-2.3383,-2.4129,-2.4693,-2.4832,-2.4645,-2.4645,-2.4599,-2.45,0.0,0.0,0.0,0.0,0.0,0.0,0.0,0.0,0.0,0.0,-2.1371,-2.0949,-2.0262,0.0,0.0,0.0,0.0,0.0,-1.8735,-1.878,-1.8903,-1.9201,-1.9484,-1.9853,-2.0499,-2.1003,-2.1261,-2.1013,-2.0958,-2.0967,-2.0978,-2.1328,-2.2198,-2.3952,-2.3705,-2.3867,-2.544,-2.5241,-2.5153,-2.5733,-2.6222,-2.6211,-2.5513,-2.615,-2.616,-2.5057,-2.4901,-2.4686,-2.4266,-2.4563,-2.4575,-2.4208,-2.4557,-2.4557,-2.419,-2.419,-2.419,-2.419,-2.441,-2.4561,-2.467,-2.4898,-2.5046,-2.5163,-2.5264,-2.5303,-2.5303,-2.5303,-2.5303,-2.5303,-2.5303,-2.5341,-2.5409,-2.5447,-2.5466,-2.5505,0.0,0.0,0.0,0.0,0.0,0.0,0.0,0.0,0.0,0.0,0.0,0.0,0.0,0.0,0.0,0.0,0.0,0.0,0.0,0.0,-2.3396,-2.3458,-2.2602,-2.2392,-2.2982,-2.2914,-2.2353,-2.1292,-2.142,-2.1295,-2.0972,-2.2756,-2.3572,-2.3563,-2.4536,-2.4804,-2.4582,-2.4645,-2.4615,-2.45,0.0,0.0,0.0,0.0,0.0,0.0,0.0,0.0,0.0,0.0,0.0,0.0,0.0,0.0,0.0,-1.9468,-1.9363,-1.9184,-1.9081,-1.9124,-1.9398,-2.0318,-2.096,-2.1386,-2.1522,-2.1972,-2.2043,-2.0961,-2.0623,-2.0467,-2.0214,-2.1221,-2.2667,-2.4423,-2.271,-2.1976,-2.4224,-2.3069,-2.2784,-2.5001,-2.4784,-2.4712,-2.5484,-2.543,-2.4921,-2.3863,-2.4112,-2.4093,-2.362,-2.3976,-2.419,-2.419,-2.419,-2.419,-2.419,-2.4247,-2.4266,-2.4266,-2.4478,-2.467,-2.4855,-2.5005,-2.5152,-2.5303,-2.5303,-2.5303,-2.5303,-2.5303,-2.5303,-2.5322,-2.5322,-2.537,-2.5438,-2.5514,-2.5548,-2.5524,0.0,0.0,0.0,0.0,0.0,0.0,0.0,0.0,0.0,0.0,0.0,0.0,0.0,0.0,0.0,0.0,0.0,0.0,0.0,0.0,-2.3113,-2.3919,-2.3009,-2.2425,-2.2367,-2.1625,-2.1381,-2.1568,-2.1094,-2.1039,-2.1374,-2.2269,-2.3012,-2.3631,-2.4454,-2.4704,-2.4517,-2.4582,-2.4566,-2.45,-2.45,0.0,0.0,0.0,0.0,0.0,0.0,0.0,0.0,0.0,0.0,0.0,0.0,0.0,-1.9501,-1.9438,-1.9314,-1.9216,-1.9259,-1.9774,-2.0539,-2.1588,-2.1216,-2.0686,-2.105,-2.0765,-2.026,-1.9791,-1.9423,-1.9345,-1.9985,-2.0555,-2.1042,-2.1365,-2.156,-2.2321,-2.4221,-2.4491,-2.4484,-2.4627,-2.4875,-2.4818,-2.4287,-2.4431,-2.4269,-2.3473,-2.3981,-2.3996,-2.3265,-2.3837,-2.419,-2.419,-2.419,-2.419,-2.419,-2.4393,-2.4478,-2.4478,-2.4685,-2.4836,-2.4998,-2.5192,-2.5293,-2.5303,-2.5303,-2.5303,-2.5303,-2.5303,-2.5341,-2.539,-2.539,-2.5466,-2.5581,-2.5668,-2.5658,-2.5582,0.0,0.0,0.0,0.0,0.0,0.0,0.0,0.0,0.0,0.0,0.0,0.0,0.0,0.0,0.0,0.0,0.0,0.0,0.0,0.0,-2.3118,-2.3901,-2.2542,-2.197,-2.2413,-2.1762,-2.1279,-2.0984,-2.1154,-2.1292,-2.1433,-2.2786,-2.3443,-2.3577,-2.4388,-2.4645,-2.45,-2.458,-2.4578,-2.4561,-2.4657,-2.466,0.0,0.0,0.0,0.0,0.0,0.0,0.0,0.0,-2.0945,-2.1016,-1.9913,-1.956,-1.9564,-1.9541,-1.9464,-1.9383,-1.9365,-1.9924,-2.0765,-2.1742,-2.2118,-2.2314,-2.2593,-2.2258,-2.1515,-2.0283,-1.9769,-1.9722,-2.0246,-2.0761,-2.1052,-2.0885,-2.13,-2.1915,-2.2632,-2.2778,-2.2933,-2.3359,-2.3702,-2.3594,-2.284,-2.3421,-2.3511,-2.2784,-2.3267,-2.3483,-2.3206,-2.3855,-2.419,-2.419,-2.419,-2.419,-2.419,-2.441,-2.4559,-2.4685,-2.485,-2.4949,-2.501,-2.5214,-2.5303,-2.5303,-2.5303,-2.5322,-2.537,-2.537,-2.5409,-2.5466,-2.5505,-2.5563,-2.5609,-2.562,-2.5615,-2.5609,0.0,0.0,0.0,0.0,0.0,0.0,0.0,0.0,0.0,0.0,0.0,0.0,0.0,0.0,0.0,0.0,0.0,0.0,0.0,-2.296,-2.2831,-2.3617,-2.2421,-2.187,-2.2159,-2.1421,-2.0879,-2.0541,-2.0823,-2.1082,-2.1359,-2.2732,-2.3404,-2.3493,-2.4286,-2.4615,-2.4566,-2.461,-2.4654,-2.4697,-2.4804,-2.4804,0.0,0.0,0.0,0.0,0.0,0.0,0.0,0.0,-2.0685,-2.0779,-1.9916,-1.9609,-1.9601,-1.9564,-1.9722,-1.9878,-1.9815,-2.0237,-2.0968,-2.2111,-2.2433,-2.253,-2.2838,-2.2537,-2.1756,-2.0172,-1.9661,-1.9633,-2.0062,-2.0447,-2.0663,-2.062,-2.0833,-2.1183,-2.1612,-2.1456,-2.1627,-2.246,-2.267,-2.2609,-2.2229,-2.272,-2.2892,-2.246,-2.2908,-2.3253,-2.3346,-2.3896,-2.419,-2.419,-2.419,-2.4228,-2.4284,-2.4495,-2.47,-2.4869,-2.5018,-2.5099,-2.5099,-2.5243,-2.5303,-2.5303,-2.5322,-2.537,-2.539,-2.5415,-2.5483,-2.5544,-2.5611,-2.5635,-2.5628,-2.5633,-2.5625,-2.5623,0.0,0.0,0.0,0.0,0.0,0.0,0.0,0.0,0.0,0.0,0.0,0.0,0.0,0.0,0.0,0.0,0.0,0.0,-2.2958,-2.224,-2.2201,-2.3064,-2.2849,-2.2294,-2.144,-2.0364,-2.001,-2.0398,-1.9999,-2.0285,-2.1233,-2.191,-2.2628,-2.3446,-2.416,-2.4566,-2.4707,-2.4707,-2.4779,-2.4902,-2.4902,-2.4902,-2.4902,0.0,0.0,0.0,0.0,0.0,0.0,0.0,-2.0345,-2.0832,-1.9976,-1.9662,-1.9601,-1.9513,-2.0082,-2.0699,-2.0699,-2.08,-2.1299,-2.2873,-2.1932,-2.0738,-2.1267,-2.1011,-2.0335,-1.9037,-1.8691,-1.8773,-1.9291,-1.9419,-1.9637,-2.0273,-2.0028,-2.0179,-2.1496,-2.1123,-2.1105,-2.2171,-2.2114,-2.2164,-2.2556,-2.2438,-2.2398,-2.2669,-2.3021,-2.3346,-2.3692,-2.4016,-2.419,-2.419,-2.419,-2.4303,-2.4495,-2.47,-2.4883,-2.501,-2.5203,-2.5303,-2.5303,-2.5303,-2.5303,-2.5303,-2.537,-2.5409,-2.5409,-2.5473,-2.5538,-2.56,-2.5676,-2.5703,-2.5703,-2.5703,-2.5703,-2.5703,0.0,0.0,0.0,0.0,0.0,0.0,0.0,0.0,0.0,0.0,0.0,0.0,0.0,0.0,0.0,0.0,0.0,0.0,-2.2923,-2.2225,-2.2152,-2.2941,-2.2337,-2.2317,-2.2991,-2.1964,-2.1006,-2.0188,-2.0157,-2.0919,-2.2409,-2.271,-2.3254,-2.4056,-2.4368,-2.4561,-2.4707,-2.4808,-2.4955,-2.5115,-2.5163,-2.5186,-2.5177,0.0,0.0,0.0,0.0,0.0,0.0,0.0,0.0,0.0,-1.9876,-1.9751,-1.9712,-1.9592,-1.9731,-1.9927,-1.9991,-2.0919,-2.1865,-2.1825,-2.1917,-2.1674,-2.0374,-1.9697,-1.915,-1.8439,-1.8848,-1.9345,-1.9497,-1.9808,-2.0092,-2.0225,-2.0177,-2.037,-2.1092,-2.1058,-2.1042,-2.1347,-2.1585,-2.1788,-2.188,-2.231,-2.2625,-2.2695,-2.3212,-2.3606,-2.3692,-2.4016,-2.4247,-2.441,-2.441,-2.4512,-2.4716,-2.4864,-2.4962,-2.501,-2.5203,-2.5303,-2.5303,-2.5303,-2.5303,-2.5303,-2.537,-2.5432,-2.5473,-2.5593,-2.5295,-2.4812,-2.5447,-2.5703,-2.5703,-2.5703,-2.5703,-2.5703,0.0,0.0,0.0,0.0,0.0,0.0,0.0,0.0,0.0,0.0,0.0,0.0,0.0,0.0,0.0,0.0,0.0,0.0,0.0,0.0,-2.2483,-2.2923,-2.2758,-2.2829,-2.3226,-2.2157,-2.1384,-2.0852,-2.0717,-2.1389,-2.2776,-2.285,-2.3327,-2.4116,-2.4266,-2.4425,-2.4556,-2.4799,-2.5006,-2.5171,-2.5303,-2.5329,-2.5337,0.0,0.0,0.0,0.0,0.0,0.0,0.0,0.0,0.0,-1.9904,-1.9849,-1.9838,-2.0038,-2.0317,-2.06,-2.1022,-2.194,-2.2651,-2.2166,-2.1748,-2.095,-1.9061,-1.8564,-1.8577,-1.8669,-1.9317,-1.9936,-2.013,-2.0382,-2.054,-2.0524,-2.0543,-2.0698,-2.0959,-2.0991,-2.1118,-2.1397,-2.1668,-2.1915,-2.2224,-2.2626,-2.3003,-2.3188,-2.3581,-2.3906,-2.4137,-2.4338,-2.4495,-2.4607,-2.4623,-2.4697,-2.4877,-2.4962,-2.5053,-2.5149,-2.5273,-2.5341,-2.539,-2.5341,-2.5341,-2.5341,-2.5447,-2.551,-2.5595,-2.5661,-2.5391,-2.4961,-2.5488,-2.5673,-2.566,-2.566,-2.5645,-2.5629,0.0,0.0,0.0,0.0,0.0,0.0,0.0,0.0,0.0,0.0,0.0,0.0,0.0,0.0,0.0,0.0,0.0,0.0,0.0,0.0,-2.3015,-2.3015,-2.3711,-2.3631,-2.2668,-2.1685,-2.148,-2.2139,-2.1544,-2.1726,-2.2605,-2.2625,-2.3025,-2.3714,-2.3941,-2.4137,-2.4296,-2.4689,-2.4962,-2.5138,-2.5312,-2.5401,-2.541,-2.5487,0.0,0.0,0.0,0.0,0.0,0.0,0.0,0.0,-2.0069,-1.9926,-1.9939,-2.0591,-2.1284,-2.1988,-2.2865,-2.3309,-2.3469,-2.324,-2.1451,-1.9391,-1.7974,-1.7997,-1.8593,-1.9426,-2.0043,-2.055,-2.0991,-2.1086,-2.1118,-2.1134,-2.1165,-2.1165,-2.1197,-2.118,-2.1442,-2.2107,-2.219,-2.246,-2.3141,-2.3259,-2.3472,-2.3969,-2.4044,-2.4298,-2.4756,-2.4804,-2.4804,-2.4832,-2.4832,-2.4896,-2.5041,-2.5041,-2.5149,-2.5409,-2.5409,-2.5438,-2.5505,-2.5438,-2.537,-2.5303,-2.5505,-2.5511,-2.5371,-2.5527,-2.5547,-2.5488,-2.5545,-2.558,-2.5601,-2.5582,-2.5511,-2.5396,0.0,0.0,0.0,0.0,0.0,0.0,0.0,0.0,0.0,0.0,0.0,0.0,0.0,0.0,0.0,0.0,0.0,0.0,0.0,0.0,-2.305,-2.2997,-2.3712,-2.3986,-2.3764,-2.3422,-2.3256,-2.3249,-2.2187,-2.2013,-2.2666,-2.2834,-2.2911,-2.2972,-2.3406,-2.3792,-2.41,-2.4484,-2.4869,-2.5182,-2.5274,-2.5382,-2.5485,-2.5556,-2.5574,0.0,0.0,0.0,0.0,0.0,0.0,0.0,-2.0324,-2.0031,-1.9955,-1.9957,-2.0522,-2.1195,-2.1545,-2.2673,-2.3492,-2.2455,-2.1132,-2.0115,-2.0258,-2.0222,-2.003,-1.9682,-2.0503,-2.1352,-2.146,-2.1698,-2.1955,-2.2262,-2.2293,-2.2356,-2.2694,-2.272,-2.2788,-2.2937,-2.2954,-2.3028,-2.3189,-2.3563,-2.3871,-2.3988,-2.4383,-2.4678,-2.479,-2.4804,-2.4855,-2.4949,-2.4949,-2.5072,-2.5301,-2.5311,-2.5379,-2.5486,-2.5471,-2.5485,-2.5498,-2.55,-2.513,-2.4572,-2.5284,-2.449,-2.2812,-2.4141,-2.4316,-2.3807,-2.4372,-2.5009,-2.5582,-2.5543,-2.5109,-2.4559,0.0,0.0,0.0,0.0,0.0,0.0,0.0,0.0,0.0,0.0,0.0,0.0,0.0,0.0,0.0,0.0,0.0,0.0,0.0,0.0,0.0,-2.3657,-2.4045,-2.4266,-2.4284,-2.4135,-2.3797,-2.3317,-2.2575,-2.2458,-2.2876,-2.2917,-2.2849,-2.2669,-2.3165,-2.3454,-2.3653,-2.4299,-2.4678,-2.4847,-2.4692,-2.4696,-2.4788,-2.4865,-2.4927,-2.5036,-2.5483,0.0,0.0,0.0,0.0,0.0,0.0,0.0,-2.0088,-2.0356,-2.0646,-2.1073,-2.1859,-2.2537,-2.2834,-2.201,-2.1372,-2.1031,-2.1326,-2.1679,-2.1832,-2.1403,-2.1739,-2.2135,-2.2317,-2.2504,-2.2686,-2.2923,-2.2912,-2.2968,-2.3165,-2.3293,-2.3392,-2.3563,-2.3671,-2.3795,-2.3949,-2.4227,-2.4414,-2.4473,-2.4743,-2.4949,-2.5024,-2.5043,-2.5091,-2.519,-2.519,-2.5058,-2.4832,-2.4833,-2.4679,-2.4351,-2.435,-2.4365,-2.4423,-2.5186,-2.512,-2.4379,-2.4832,-2.4294,-2.3164,-2.4043,-2.3916,-2.3225,-2.4034,-2.4321,-2.4341,-2.4745,-2.4331,-2.3647,0.0,0.0,0.0,0.0,0.0,0.0,0.0,0.0,0.0,0.0,0.0,0.0,0.0,0.0,0.0,0.0,0.0,0.0,0.0,0.0,0.0,0.0,-2.443,-2.4429,-2.4517,-2.421,-2.3713,-2.3049,-2.2722,-2.2648,-2.28,-2.2601,-2.24,-2.2211,-2.2555,-2.2758,-2.2919,-2.3695,-2.406,-2.4098,-2.3776,-2.3706,-2.3774,-2.3856,-2.3928,-2.4158,-2.5054,-2.4856,-2.4038,-2.3272,0.0,0.0,0.0,0.0,-2.0265,-2.0852,-2.1001,-2.1245,-2.2536,-2.2383,-2.1752,-2.1454,-2.1278,-2.1256,-2.1502,-2.2395,-2.3197,-2.3271,-2.3031,-2.2904,-2.3234,-2.3343,-2.3406,-2.3406,-2.345,-2.3472,-2.3472,-2.3614,-2.3818,-2.41,-2.4293,-2.4495,-2.4764,-2.4823,-2.4907,-2.5038,-2.508,-2.516,-2.5322,-2.5322,-2.537,-2.5428,-2.5274,-2.4879,-2.4216,-2.4082,-2.3702,-2.3102,-2.3102,-2.3064,-2.3025,-2.4508,-2.4725,-2.3977,-2.4277,-2.414,-2.3728,-2.3881,-2.3513,-2.2924,-2.3644,-2.3488,-2.2992,-2.3687,-2.3379,-2.2677,0.0,0.0,0.0,0.0,0.0,0.0,0.0,0.0,0.0,0.0,0.0,0.0,0.0,0.0,0.0,0.0,0.0,0.0,0.0,0.0,0.0,-2.4445,-2.4479,-2.4478,-2.4495,-2.3843,-2.3417,-2.3254,-2.2412,-2.1877,-2.1619,-2.1131,-2.0761,-2.0541,-2.0707,-2.1022,-2.1484,-2.1899,-2.2287,-2.2593,-2.2664,-2.274,-2.2796,-2.2932,-2.2987,-2.3125,-2.4127,-2.3922,-2.3179,-2.3112,-2.2466,0.0,0.0,0.0,-2.0354,-2.0339,-2.0776,-2.1426,-2.225,-2.1448,-2.0329,-2.0109,-1.9404,-1.9161,-2.0663,-2.1879,-2.2869,-2.3496,-2.3673,-2.3742,-2.3725,-2.3953,-2.4152,-2.4152,-2.4414,-2.4582,-2.4582,-2.4613,-2.4629,-2.4678,-2.4727,-2.4749,-2.4807,-2.4965,-2.508,-2.5163,-2.5325,-2.5447,-2.5466,-2.5466,-2.5486,-2.5486,-2.4754,-2.4348,-2.4293,-2.3592,-2.3205,-2.3097,-2.3097,-2.2746,-2.2103,-2.3014,-2.2965,-2.2236,-2.3732,-2.3078,-2.099,-2.1809,-2.2041,-2.1886,-2.1949,-2.234,-2.2915,-2.2975,-2.2427,-2.1696,0.0,0.0,0.0,0.0,0.0,0.0,0.0,0.0,0.0,0.0,0.0,0.0,0.0,0.0,0.0,0.0,0.0,0.0,0.0,0.0,0.0,-2.3899,-2.3979,-2.3994,-2.3994,-2.3645,-2.2993,-2.207,-2.1625,-2.1027,-2.0331,-2.0045,-2.0164,-2.0605,-2.0806,-2.1069,-2.1334,-2.175,-2.2021,-2.2163,-2.1834,-2.2002,-2.241,-2.2076,-2.2249,-2.2765,-2.328,-2.3256,-2.2936,-2.2508,-2.2091,-2.1604,-2.0781,0.0,0.0,0.0,-2.0527,-2.0709,-2.0903,-2.0329,-1.9487,-1.8617,-1.7786,-1.7442,-1.8473,-1.9703,-2.0911,-2.1889,-2.2636,-2.3338,-2.4053,-2.4389,-2.4588,-2.4588,-2.47,-2.4809,-2.4851,-2.4936,-2.5026,-2.5026,-2.5114,-2.5182,-2.519,-2.5274,-2.5346,-2.5369,-2.5453,-2.5505,-2.5505,-2.5505,-2.553,-2.5553,-2.4701,-2.407,-2.3688,-2.2842,-2.2159,-2.1643,-2.1643,-2.1441,-2.1087,-2.193,-2.2127,-2.1841,-2.258,-2.222,-2.1165,-2.1578,-2.1427,-2.0959,-2.1417,-2.1532,-2.1493,-2.1908,-2.1543,-2.0889,0.0,0.0,0.0,0.0,0.0,0.0,0.0,0.0,0.0,0.0,0.0,0.0,0.0,0.0,0.0,0.0,0.0,0.0,0.0,0.0,0.0,-2.3484,-2.3591,-2.3617,-2.3617,-2.338,-2.2556,-2.1135,-2.0854,-2.0345,-1.9612,-1.9536,-1.9905,-2.0626,-2.0733,-2.0869,-2.1031,-2.1372,-2.1531,-2.157,-2.1205,-2.1469,-2.2023,-2.1649,-2.1961,-2.2632,-2.2716,-2.2692,-2.2555,-2.1979,-2.1633,-2.1372,-2.0788,-2.0557,0.0,0.0,0.0,-2.0374,-1.9813,-1.9311,-1.85,-1.6739,-1.5512,-1.4962,-1.5831,-1.6543,-1.7528,-1.922,-2.0463,-2.1612,-2.2816,-2.3931,-2.4712,-2.4826,-2.482,-2.4851,-2.4983,-2.5098,-2.5166,-2.5212,-2.5348,-2.5464,-2.5464,-2.5459,-2.5483,-2.5503,-2.5505,-2.5505,-2.5505,-2.5305,-2.5216,-2.5266,-2.42,-2.3385,-2.2828,-2.1948,-2.1168,-2.0462,-2.0469,-2.0443,-2.0425,-2.1051,-2.1365,-2.144,-2.1613,-2.1559,-2.1337,-2.1338,-2.0924,-2.0369,-2.102,-2.0866,-2.0361,-2.0913,-2.0768,-2.0381,0.0,0.0,0.0,0.0,0.0,0.0,0.0,0.0,0.0,0.0,0.0,0.0,0.0,0.0,-2.4197,-2.3502,0.0,0.0,0.0,0.0,0.0,-2.3526,-2.3663,0.0,-2.3695,-2.2931,-2.2116,-2.118,-2.0358,-1.9938,-1.9881,-1.9813,-1.9807,-1.9844,-1.9541,-1.9577,-1.9889,-1.9903,-2.0026,-2.024,-2.0783,-2.1183,-2.1502,-2.189,-2.2324,-2.27,-2.2622,-2.2218,-2.1675,-2.171,-2.1198,-2.0572,-2.0581,-2.0542,-2.0497,0.0,0.0,0.0,-1.9695,-1.848,-1.697,-1.4275,-1.2035,-1.1003,-1.2964,-1.2389,-1.2316,-1.5479,-1.7082,-1.81,-1.8879,-2.1926,-2.4466,-2.492,-2.4882,-2.4904,-2.5234,-2.5116,-2.5074,-2.5272,-2.5291,-2.5331,-2.5409,-2.541,-2.5426,-2.55,-2.5492,-2.5492,-2.5492,-2.4783,-2.4365,-2.4368,-2.2725,-2.1822,-2.1788,-2.0908,-2.0449,-2.0418,-2.0418,-2.0396,-2.0404,-2.0385,-2.0377,-2.0427,-2.1317,-2.1209,-2.0366,-2.0369,-2.035,-2.0312,-2.035,-2.035,-2.0277,-2.0135,-2.0162,-2.0277,0.0,0.0,0.0,0.0,0.0,0.0,0.0,0.0,0.0,0.0,0.0,0.0,0.0,-2.326,-2.2951,-2.2664,-2.2754,0.0,0.0,0.0,0.0,-2.3849,-2.3448,-2.3438,-2.3947,-2.3074,-2.2221,-2.1388,-2.0469,-2.0019,-1.9947,-1.9936,-1.9873,-1.9793,-1.9719,-1.9778,-1.9939,-1.996,-2.006,-2.0216,-2.0912,-2.1559,-2.2132,-2.2342,-2.2867,-2.3422,-2.29,-2.2663,-2.2464,-2.1896,-2.1534,-2.123,-2.0656,-2.0476,-2.0501,-2.0508,-2.0958,-2.1247,-2.0225,-1.902,-1.7496,-1.5135,-1.2462,-1.0223,-0.9584,-0.8656,-0.8554,-1.0503,-1.2489,-1.4546,-1.6692,-2.0116,-2.2807,-2.3318,-2.3801,-2.4251,-2.4719,-2.4862,-2.4966,-2.5033,-2.5033,-2.5052,-2.5072,-2.5072,-2.4934,-2.4551,-2.4539,-2.4339,-2.3925,-2.3623,-2.3463,-2.3463,-2.2327,-2.1436,-2.0869,-2.0553,-2.0373,-2.0334,-2.0342,-2.035,-2.035,-2.0312,-2.0312,-2.0331,-2.0666,-2.0608,-2.0312,-2.0312,-2.0312,-2.0312,-2.0312,-2.0214,-2.0106,-2.0022,-2.006,-2.0106,0.0,0.0,0.0,0.0,0.0,0.0,0.0,0.0,0.0,0.0,0.0,0.0,0.0,0.0,-2.2331,-2.2375,-2.2512,-2.2375,-2.1835,-2.1905,-2.262,-2.4058,-2.3635,-2.3605,-2.4121,-2.3496,-2.262,0.0,0.0,-2.0375,-2.0069,-2.0021,-1.9941,-1.9881,-1.987,-1.9904,-1.9969,-2.0049,-2.0116,-2.0255,-2.1187,-2.1999,-2.2681,-2.3107,-2.3757,-2.4359,-2.381,-2.3723,-2.3796,-2.3084,-2.2738,-2.2433,-2.1448,-2.0834,-2.0477,-2.0495,-2.083,-2.1051,-2.0482,-1.9571,-1.8251,-1.6116,-1.3445,-1.0616,-0.7925,-0.6919,-0.7031,-0.8856,-1.041,-1.2188,-1.4629,-1.7713,-2.0406,-2.19,-2.2643,-2.329,-2.3984,-2.4373,-2.4623,-2.4682,-2.4798,-2.4861,-2.4861,-2.4861,-2.4707,-2.4307,-2.426,-2.3954,-2.3216,-2.2899,-2.2498,-2.1952,-2.1358,-2.0775,-2.0202,-2.0202,-2.0183,-2.0135,-2.0135,-2.0162,-2.0197,-2.0197,-2.0241,-2.0312,-2.0312,-2.0131,-1.9881,-2.0169,-2.0139,-1.9888,-2.0118,-2.0115,-1.9984,-1.9963,-1.9924,-1.9924,0.0,0.0,0.0,0.0,0.0,0.0,0.0,0.0,0.0,-2.1276,0.0,0.0,0.0,0.0,0.0,-2.2685,-2.2795,-2.2844,-2.2844,-2.2901,-2.334,-2.4191,0.0,0.0,0.0,0.0,0.0,0.0,0.0,0.0,0.0,-2.0069,-2.0003,-2.0001,-1.9851,-1.9828,-1.9888,-1.9971,-2.0041,-2.0211,-2.1563,-2.2429,-2.3067,-2.4222,-2.5026,-2.5541,-2.5352,-2.5406,-2.5535,-2.522,-2.4717,-2.4044,-2.2926,-2.1571,-2.0406,-2.0486,-2.0498,-2.0486,0.0,0.0,0.0,-1.6932,-1.4726,-1.2099,-0.8341,-0.726,-0.7953,-1.0864,-1.1082,-1.1169,-1.258,-1.4778,-1.7408,-2.0701,-2.1518,-2.2065,-2.2998,-2.359,-2.4008,-2.4221,-2.4545,-2.4741,-2.4741,-2.4741,-2.4737,-2.4718,-2.4718,-2.4341,-2.3469,-2.2682,-2.1519,-1.991,-1.9816,-1.9816,-1.9816,-1.9797,-1.9778,-1.9778,-1.9778,-1.9869,-1.9984,-1.9984,-2.0087,-2.0246,-2.0265,-1.9746,-1.8989,-1.9881,-1.9754,-1.9023,-1.9715,-1.9974,-1.9955,-1.982,-1.9771,-1.979,0.0,0.0,0.0,0.0,0.0,0.0,0.0,0.0,-2.0713,0.0,0.0,0.0,-2.1919,-2.2403,-2.273,-2.2842,-2.338,-2.3754,-2.3806,-2.3826,-2.4252,-2.5164,-2.4661,-2.4638,0.0,0.0,0.0,0.0,0.0,0.0,0.0,0.0,0.0,-2.0069,-1.9981,-1.9888,-1.9832,-1.9851,-1.9877,-2.0026,-2.1664,-2.2844,-2.3784,-2.5272,-2.6472,-2.7365,-2.7322,-2.7355,-2.7245,-2.5861,-2.5286,-2.4775,-2.2617,-2.1238,-2.0395,-2.0428,-2.0451,-2.049,-2.0429,0.0,0.0,0.0,0.0,0.0,-1.2039,-1.0534,-0.9908,-1.0616,-1.117,-1.1927,-1.3393,-1.4496,-1.56,-1.693,-1.8708,-2.0257,-2.1255,-2.1968,-2.2566,-2.3023,-2.3422,-2.3648,-2.3648,-2.3648,-2.3456,-2.2957,-2.2922,-2.2612,-2.1943,-2.1686,-2.1373,-2.0896,-2.0375,-2.0096,-2.0096,-1.9512,-1.9212,-1.9226,-1.9423,-1.9532,-1.9582,-1.9865,-1.9659,-1.9087,-1.9276,-1.8417,-1.7032,-1.869,-1.8857,-1.8138,-1.8962,-1.9224,-1.9135,-1.9097,-1.9387,-1.9715,0.0,0.0,0.0,0.0,0.0,0.0,-1.965,-2.0192,-2.0662,0.0,0.0,0.0,-2.226,-2.2905,-2.3336,-2.3387,-2.4193,-2.4697,-2.474,-2.4764,-2.5035,-2.5585,-2.5175,-2.5151,-2.5625,0.0,0.0,0.0,0.0,0.0,0.0,0.0,0.0,0.0,-2.0114,-2.0012,-1.9871,-1.9855,-1.9821,-1.9955,-2.1798,-2.3088,-2.41,-2.5837,-2.7149,-2.8055,-2.8092,-2.8138,-2.7988,-2.6785,-2.5649,-2.4454,-2.2748,-2.1378,-2.0388,-2.0404,-2.0424,-2.046,-2.0441,-2.0404,-2.0292,-1.9908,0.0,0.0,-1.615,-1.4851,-1.3945,-1.3983,-1.4049,-1.4313,-1.4971,-1.5207,-1.5348,-1.5528,-1.6965,-1.845,-1.9649,-2.0701,-2.1545,-2.2078,-2.2444,-2.265,-2.265,-2.265,-2.2491,-2.2089,-2.2078,-2.1773,-2.1096,-2.0721,-2.0562,-2.0562,-1.9861,-1.9568,-1.9701,-1.8968,-1.8696,-1.8835,-1.8984,-1.8974,-1.8813,-1.9058,-1.8779,-1.8106,-1.8248,-1.7477,-1.6195,-1.7374,-1.7569,-1.7198,-1.8041,-1.8338,-1.825,-1.8184,-1.8388,-1.8594,0.0,0.0,0.0,-2.1838,-2.1622,-2.1038,-1.9447,-2.0591,-2.1212,0.0,-2.1426,-2.2608,-2.2753,-2.3577,-2.406,-2.3942,-2.4869,-2.5418,-2.5361,-2.5499,-2.5578,-2.5584,-2.5659,-2.5697,-2.5702,-2.554,0.0,0.0,0.0,0.0,0.0,0.0,0.0,0.0,0.0,0.0,-2.004,-1.9964,-1.9996,-2.025,-2.1953,-2.3169,-2.417,-2.6007,-2.7242,-2.7997,-2.8184,-2.8181,-2.8043,-2.7649,-2.583,-2.3678,-2.3099,-2.1879,-2.0643,-2.0466,-2.0473,-2.0546,-2.0507,-2.0487,-2.0476,-2.0411,-2.0272,0.0,-1.9901,-1.9235,-1.8753,-1.9049,-1.8298,-1.7398,-1.6896,-1.6375,-1.596,-1.566,-1.6056,-1.6955,-1.8394,-1.9764,-2.0782,-2.1376,-2.1591,-2.1725,-2.1799,-2.1697,-2.1652,-2.1697,-2.1652,-2.1294,-2.0589,-1.9876,-1.9491,-1.9491,-1.8766,-1.855,-1.8892,-1.8215,-1.8063,-1.8413,-1.8364,-1.8164,-1.7833,-1.78,-1.7572,-1.7187,-1.7216,-1.6734,-1.5942,-1.6075,-1.6143,-1.6246,-1.7049,-1.7365,-1.7356,-1.7217,-1.713,-1.7113,0.0,0.0,-2.4004,-2.237,-2.2115,-2.1803,-2.077,-2.0993,-2.1425,-2.1797,-2.282,-2.3272,-2.2639,-2.3908,-2.4284,-2.3011,-2.4303,-2.4955,-2.4407,-2.5047,-2.5467,-2.5526,-2.5586,-2.5637,-2.5694,-2.5,-2.4461,0.0,0.0,0.0,0.0,0.0,0.0,0.0,0.0,-2.0313,-2.0241,-2.018,-2.0843,-2.1984,-2.2141,-2.3089,-2.4512,-2.571,-2.6866,-2.7953,-2.882,-2.8724,-2.8062,-2.7232,-2.5723,-2.4034,-2.323,-2.2766,-2.2223,-2.0812,-2.0903,-2.1299,-2.0604,-2.0415,-2.0418,-2.0391,-2.0376,0.0,-2.016,-2.026,-2.041,-2.036,-1.9759,-1.8993,-1.8278,-1.6803,-1.5644,-1.5518,-1.6215,-1.7196,-1.8576,-1.9352,-2.0119,-2.0991,-2.0767,-2.0703,-2.1148,-2.0395,-2.0082,-2.0509,-2.0115,-1.982,-1.9664,-1.9507,-1.9412,-1.9412,-1.8298,-1.7897,-1.8266,-1.7146,-1.6754,-1.7142,-1.6825,-1.674,-1.6866,-1.6653,-1.6266,-1.5801,-1.6008,-1.5631,-1.4833,-1.5076,-1.5204,-1.5338,-1.6208,-1.6532,-1.6516,-1.6384,-1.6682,-1.7086,0.0,-2.512,-2.4495,-2.2724,-2.243,-2.2163,-2.1282,-2.1576,-2.2041,-2.2489,-2.3189,-2.3624,-2.3551,-2.395,-2.389,-2.3118,-2.3912,-2.4315,-2.4024,-2.4885,-2.5395,-2.5391,-2.5496,-2.5578,-2.5648,-2.5244,-2.4844,0.0,0.0,0.0,0.0,0.0,0.0,0.0,0.0,-2.0648,-2.0956,-2.043,-2.0865,-2.1983,-2.2881,-2.4143,-2.5571,-2.6669,-2.7431,-2.7926,-2.8055,-2.76,-2.6835,-2.6357,-2.535,-2.421,-2.3779,-2.3372,-2.2784,-2.1483,-2.1409,-2.1556,-2.0691,-2.0444,-2.0448,-2.041,-2.0429,0.0,0.0,-2.1148,-2.1366,-2.1642,-2.1297,-2.0634,-1.9621,-1.8279,-1.7087,-1.6427,-1.7356,-1.8377,-1.9059,-1.9715,-2.026,-2.0475,-2.0138,-1.9823,-1.9591,-1.9075,-1.8875,-1.9112,-1.8912,-1.8622,-1.8313,-1.8584,-1.8478,-1.7899,-1.7262,-1.6947,-1.7056,-1.6084,-1.5735,-1.6013,-1.5799,-1.5554,-1.5282,-1.5296,-1.4992,-1.4485,-1.4741,-1.466,-1.4375,-1.4577,-1.4729,-1.4902,-1.5407,-1.5603,-1.5586,-1.5442,-1.5577,-1.5725,-2.5471,-2.5363,-2.4788,-2.3195,-2.294,-2.2685,-2.1994,-2.2488,-2.2963,-2.3093,-2.3458,-2.3879,-2.4367,-2.396,-2.3613,-2.3468,-2.3973,-2.4214,-2.4004,-2.4995,-2.558,-2.5572,-2.5503,-2.5587,-2.5829,-2.5723,-2.5322,-2.4648,0.0,0.0,0.0,0.0,0.0,-2.2474,-2.1279,-2.1017,-2.1434,-2.0818,-2.1094,-2.2066,-2.3819,-2.495,-2.5718,-2.6894,-2.7307,-2.7162,-2.6748,-2.6278,-2.582,-2.5488,-2.5008,-2.4507,-2.4172,-2.3859,-2.3354,-2.2156,-2.192,-2.182,-2.0784,-2.0491,-2.0482,-2.043,-2.0443,-2.0662,0.0,0.0,0.0,-2.2145,-2.2025,-2.1511,-2.049,-1.9557,-1.8623,-1.7674,-1.8631,-1.955,-1.9653,-2.0291,-2.0598,-2.0188,-1.9597,-1.889,-1.7985,-1.7746,-1.7545,-1.7464,-1.7464,-1.7233,-1.6751,-1.7192,-1.6982,-1.5981,-1.5783,-1.567,-1.5614,-1.4949,-1.4717,-1.4912,-1.4775,-1.4389,-1.3751,-1.384,-1.3733,-1.3467,-1.3689,-1.3927,-1.4162,-1.4265,-1.4419,-1.4627,-1.4794,-1.485,-1.4832,-1.4668,-1.4493,-1.4349,-2.5672,-2.5601,-2.5244,-2.4286,-2.4106,-2.4079,-2.3965,-2.4046,-2.4224,-2.452,-2.4458,-2.4244,-2.384,-2.4295,-2.4292,-2.3406,-2.504,-2.5597,-2.4407,-2.55,-2.6293,-2.6535,-2.5824,-2.5793,-2.6643,-2.5902,-2.5534,-2.5545,0.0,0.0,0.0,0.0,0.0,-2.0817,-2.1327,-2.1211,-2.0682,-2.1535,-2.2752,-2.4176,-2.4714,-2.4025,-2.2802,-2.3889,-2.4366,-2.4564,-2.5496,-2.6269,-2.6602,-2.5059,-2.498,-2.5272,-2.3729,-2.4237,-2.4938,-2.2509,-2.2358,-2.2596,-2.0955,-2.0494,-2.0504,-2.0484,-2.0449,-2.0452,-2.0598,0.0,-2.0574,-2.0645,0.0,-2.0338,-2.0017,0.0,0.0,-1.9068,-1.9338,-1.9662,-2.014,-2.0652,-2.0884,-2.0636,-1.9057,-1.7832,-1.7329,-1.6401,-1.5604,-1.5129,-1.5084,-1.5039,-1.5005,-1.5039,-1.4865,-1.437,-1.3841,-1.3784,-1.4236,-1.3612,-1.3504,-1.3869,-1.3263,-1.2931,-1.2826,-1.2271,-1.2482,-1.3328,-1.3345,-1.3569,-1.3941,-1.3952,-1.4078,-1.4289,-1.4606,-1.4727,-1.4678,-1.4374,-1.4239,-1.4201,-2.5799,-2.5684,-2.5371,-2.4511,-2.4353,-2.4342,-2.431,-2.4503,-2.4588,-2.441,-2.4151,-2.3835,-2.3458,-2.3576,-2.3562,-2.3277,-2.4722,-2.5403,-2.4838,-2.6105,-2.692,-2.6988,-2.6274,-2.609,-2.661,-2.5815,-2.5465,-2.5644,-2.529,0.0,0.0,0.0,0.0,-2.1947,-2.1772,-2.1976,-2.2399,-2.2145,-2.265,-2.362,-2.3491,-2.2853,-2.2236,-2.4665,-2.5297,-2.4939,-2.5468,-2.5898,-2.6133,-2.5391,-2.5364,-2.551,-2.4785,-2.4705,-2.4563,-2.2965,-2.2418,-2.2087,-2.084,-2.0895,-2.1173,-2.0636,-2.0853,-2.1064,-2.0504,-2.0388,-2.039,-2.0342,0.0,0.0,0.0,0.0,0.0,0.0,-2.0034,-2.0499,-2.0013,-2.0754,-2.0912,-1.9776,-1.8509,-1.7267,-1.61,-1.5417,-1.4949,-1.4698,-1.4354,-1.3961,-1.3643,-1.3543,-1.3211,-1.2492,-1.2574,-1.2645,-1.2721,-1.2189,-1.1976,-1.2027,-1.1692,-1.1455,-1.1318,-1.1564,-1.1958,-1.2399,-1.2732,-1.3142,-1.3555,-1.3555,-1.3736,-1.4038,-1.4178,-1.4308,-1.4386,-1.4252,-1.4051,-1.3856,-2.652,-2.6023,-2.55,-2.4864,-2.4737,-2.4686,-2.4536,-2.4645,-2.4576,-2.4082,-2.366,-2.3369,-2.3317,-2.336,-2.3502,-2.3798,-2.5088,-2.58,-2.5627,-2.701,-2.7756,-2.7547,-2.7119,-2.6943,-2.7127,-2.6131,-2.5704,-2.589,0.0,0.0,0.0,0.0,0.0,0.0,-2.1949,-2.2336,-2.3431,-2.2863,-2.3033,-2.3731,-2.359,-2.3331,-2.326,-2.5314,-2.5847,-2.5515,-2.5577,-2.5625,-2.5644,-2.5393,-2.5446,-2.5563,-2.5303,-2.4953,-2.4451,-2.3618,-2.2932,-2.2298,-2.1431,-2.1557,-2.1738,-2.1026,-2.1146,-2.1255,-2.0499,-2.0353,-2.0359,-2.032,-2.0157,0.0,0.0,0.0,-1.9883,-1.9253,0.0,-2.0837,-1.9884,-2.0462,-2.0479,-1.9175,-1.7853,-1.6396,-1.4858,-1.4589,-1.4395,-1.4127,-1.3501,-1.2847,-1.209,-1.1944,-1.1535,-1.0827,-1.1421,-1.1696,-1.159,-1.114,-1.0833,-1.065,-1.0473,-1.0262,-1.0045,-1.0829,-1.1262,-1.1461,-1.2077,-1.2638,-1.3073,-1.3107,-1.3393,-1.381,-1.3768,-1.387,-1.4038,-1.4038,-1.3838,-1.3601,-2.8135,-2.6805,-2.5685,-2.5654,-2.559,-2.5451,-2.512,-2.4636,-2.4197,-2.3856,-2.3301,-2.3085,-2.3557,-2.4229,-2.4843,-2.5378,-2.6899,-2.7566,-2.6982,-2.8375,-2.8989,-2.8485,-2.8506,-2.8593,-2.872,-2.7173,-2.645,-2.6655,-2.5754,0.0,0.0,0.0,0.0,0.0,-2.1629,-2.2002,-2.27,-2.3712,-2.4702,-2.5679,-2.6365,-2.6464,-2.5994,-2.4545,-2.4627,-2.5502,-2.5583,-2.5605,-2.5465,-2.4636,-2.4899,-2.5447,-2.4534,-2.4803,-2.5302,-2.4497,-2.4238,-2.4042,-2.3242,-2.247,-2.1875,-2.1779,-2.1144,-2.0515,-2.0421,-2.0353,-2.0308,-2.0308,-1.9682,-1.9143,-1.914,-1.9258,-1.9329,-1.9297,-1.9879,0.0,0.0,-1.9594,-1.9394,-1.9376,-1.6969,-1.4866,-1.3743,-1.3879,-1.365,-1.2754,-1.2124,-1.1275,-1.0227,-0.9953,-0.9722,-0.9554,-1.0257,-1.0776,-1.1019,-1.064,-1.0381,-1.0316,-0.9852,-0.9523,-0.9339,-0.9703,-1.0192,-1.0773,-1.1439,-1.2025,-1.2517,-1.2597,-1.302,-1.3584,-1.3394,-1.3443,-1.3632,-1.3632,-1.36,-1.3586,-2.7585,-2.7347,-2.7168,-2.6587,-2.596,-2.5379,-2.4908,-2.4801,-2.4502,-2.375,-2.3522,-2.3406,-2.3276,-2.4127,-2.4891,-2.5393,-2.7161,-2.8141,-2.7954,-2.9428,-2.9885,-2.9001,-2.9683,-2.9616,-2.8696,-2.8232,-2.7821,-2.7499,-2.7052,-2.6143,0.0,0.0,0.0,0.0,-2.1579,-2.2581,-2.4258,-2.4412,-2.5448,-2.6936,-2.5942,-2.5623,-2.5616,-2.4809,-2.482,-2.5332,-2.5483,-2.559,-2.5602,-2.5267,-2.5322,-2.5466,-2.5111,-2.4803,-2.454,-2.4304,-2.3851,-2.3397,-2.3152,-2.3326,-2.3277,-2.2085,-2.2007,-2.1895,-2.0672,-2.0381,-2.0524,-2.1043,-2.0518,-2.0133,-2.0709,-2.0424,-2.0096,-2.0096,-2.0244,-2.0294,0.0,-1.9489,-1.886,-1.8206,-1.6621,-1.5312,-1.4608,-1.4344,-1.3883,-1.3059,-1.2503,-1.1684,-1.0506,-0.8365,-0.7629,-0.8591,-0.899,-0.9448,-0.9991,-0.9669,-0.9337,-0.9032,-0.8837,-0.8578,-0.8273,-0.9312,-0.9894,-1.0143,-1.0861,-1.1205,-1.1335,-1.181,-1.1947,-1.1896,-1.2757,-1.2623,-1.2092,-1.319,-1.354,-1.3429,-2.8521,-2.8485,-2.8175,-2.6679,-2.5841,-2.5226,-2.4712,-2.4801,-2.458,-2.3584,-2.376,-2.3797,-2.331,-2.4538,-2.5581,-2.6038,-2.7878,-2.9122,-2.9296,-3.0631,-3.1064,-3.0157,-3.114,-3.1167,-3.0045,-2.9527,-2.9111,-2.8797,-2.7735,-2.6684,0.0,0.0,0.0,0.0,-2.1393,-2.2628,-2.5046,-2.4879,-2.6113,-2.8054,-2.6191,-2.5515,-2.5566,-2.4994,-2.4822,-2.4908,-2.5343,-2.5561,-2.5622,-2.5583,-2.5522,-2.5447,-2.539,-2.4976,-2.4542,-2.4636,-2.4302,-2.3913,-2.4003,-2.4212,-2.4137,-2.3006,-2.2906,-2.2795,-2.1609,-2.1321,-2.1473,-2.2028,-2.1235,-2.0704,-2.1575,-2.083,-2.017,-2.0485,-2.0483,-2.0351,0.0,-1.9616,-1.8945,-1.8111,-1.6984,-1.6144,-1.5791,-1.5311,-1.462,-1.3658,-1.2019,-1.0356,-0.8726,-0.6238,-0.5423,-0.6763,-0.7708,-0.8528,-0.9208,-0.8838,-0.8477,-0.8114,-0.7907,-0.7674,-0.753,-0.8585,-0.918,-0.9494,-1.0196,-1.0607,-1.0762,-1.1108,-1.1132,-1.1059,-1.1997,-1.181,-1.1225,-1.2913,-1.3478,-1.3363,-3.0747,-3.0024,-2.8646,-2.6133,-2.5493,-2.5168,-2.47,-2.4797,-2.4542,-2.3485,-2.4066,-2.4304,-2.3679,-2.5395,-2.6774,-2.7255,-2.9053,-3.038,-3.083,-3.1973,-3.2373,-3.1818,-3.281,-3.3129,-3.2603,-3.1073,-3.0349,-3.0467,-2.798,-2.6669,0.0,0.0,0.0,0.0,-2.1176,-2.2164,-2.5038,-2.5172,-2.6706,-2.8909,-2.7145,-2.6228,-2.5853,-2.5091,-2.4553,-2.4316,-2.5185,-2.55,-2.5504,-2.55,-2.5452,-2.539,-2.5322,-2.5303,-2.5322,-2.5466,-2.5495,-2.5535,-2.5661,-2.5098,-2.4453,-2.4414,-2.3789,-2.3142,-2.302,-2.3003,-2.3022,-2.3139,-2.1809,-2.0874,-2.1705,-2.0521,-1.9684,-2.0466,-2.0537,-2.0402,-2.0142,-1.9869,-1.9512,-1.9011,-1.7959,-1.7273,-1.723,-1.6668,-1.5779,-1.4424,-1.0692,-0.7386,-0.4867,-0.3499,-0.3176,-0.3904,-0.6229,-0.7829,-0.8627,-0.8203,-0.7837,-0.7558,-0.7105,-0.6954,-0.705,-0.7501,-0.8078,-0.8778,-0.9458,-1.0081,-1.0639,-1.0406,-1.0545,-1.0955,-1.1082,-1.1053,-1.1144,-1.2739,-1.3346,-1.3346,-2.9967,-2.9006,-2.8385,-2.8587,-2.7869,-2.7112,-2.6599,-2.6591,-2.6335,-2.5463,-2.54,-2.5243,-2.4794,-2.5824,-2.6704,-2.7116,-2.9031,-3.0266,-3.0367,-3.2065,-3.2674,-3.1856,-3.3419,-3.3791,-3.2622,-3.2871,-3.248,-3.1448,-3.0614,-2.9624,-2.8433,0.0,0.0,0.0,-2.2375,-2.2881,-2.5445,-2.5484,-2.6741,-2.8623,-2.7396,-2.616,-2.5012,-2.4861,-2.4576,-2.4385,-2.521,-2.5527,-2.5573,-2.5526,-2.5465,-2.539,-2.5322,-2.5303,-2.5322,-2.5409,-2.5456,-2.5516,-2.5602,-2.5508,-2.5215,-2.4551,-2.4238,-2.3886,-2.3239,-2.3078,-2.3249,-2.3874,-2.3161,-2.2483,-2.2656,-2.1884,-2.1073,-2.0602,-2.0467,-2.0363,-2.0192,-2.0076,-1.9846,-1.9471,-1.9623,-1.9215,-1.7766,-1.7023,-1.6039,-1.4699,-1.1538,-0.6735,0.0045,-0.1005,-0.0888,0.1004,-0.2985,-0.5872,-0.7416,-0.7799,-0.7725,-0.7149,-0.6995,-0.6674,-0.6244,-0.7237,-0.7791,-0.8001,-0.8573,-0.8801,-0.8743,-0.9026,-0.8935,-0.8757,-0.9827,-1.0843,-1.1791,-1.2368,-1.2807,-1.3051,-3.0763,-2.9668,-2.9025,-2.9523,-2.9756,-2.9245,-2.732,-2.7282,-2.7264,-2.6709,-2.6831,-2.6769,-2.6295,-2.703,-2.7743,-2.8147,-2.9647,-3.0686,-3.0891,-3.2047,-3.2548,-3.2162,-3.3545,-3.384,-3.2885,-3.3327,-3.3006,-3.1835,-3.0994,-2.993,-2.8675,0.0,0.0,0.0,-2.265,-2.2923,-2.5031,-2.5776,-2.6472,-2.7082,-2.677,-2.5932,0.0,-2.4813,-2.4809,-2.4891,-2.5367,-2.5545,-2.555,-2.5505,-2.5447,-2.5341,-2.5303,-2.5303,-2.5303,-2.539,-2.5432,-2.546,-2.5548,-2.5588,-2.549,-2.5,-2.4897,-2.4805,-2.4297,-2.4218,-2.4374,-2.4823,-2.4257,-2.3768,-2.4118,-2.3223,-2.2129,-2.1221,-2.0723,-2.0416,-2.0305,-2.06,-2.0608,-1.9972,-2.0243,-2.0012,-1.8834,-1.8342,-1.7491,-1.5985,-1.2017,-0.6966,-0.0769,0.2992,0.4125,0.2261,0.1348,-0.1657,-0.6935,-0.7066,-0.6953,-0.6651,-0.635,-0.6097,-0.5913,-0.679,-0.7462,-0.7923,-0.8164,-0.8501,-0.8819,-0.8705,-0.8512,-0.8333,-0.8891,-1.0224,-1.1794,-1.1579,-1.2141,-1.2961,-3.2416,-3.1265,-3.0324,-2.9995,-3.1265,-3.1255,-2.795,-2.7966,-2.8184,-2.7732,-2.8258,-2.8435,-2.7726,-2.8439,-2.9112,-2.9465,-3.0472,-3.1241,-3.1669,-3.1952,-3.226,-3.2576,-3.3299,-3.3521,-3.3215,-3.3103,-3.2659,-3.1912,-3.0451,-2.9298,0.0,0.0,0.0,0.0,-2.2871,-2.2929,-2.4502,-2.6023,-2.6142,-2.5379,-2.5989,-2.5721,-2.4968,-2.4847,-2.5094,-2.5504,-2.5569,-2.5554,-2.5507,-2.5492,-2.5409,-2.5303,-2.5303,-2.5303,-2.5303,-2.537,-2.539,-2.5418,-2.5466,-2.5482,-2.5502,-2.5502,-2.5538,-2.558,-2.5584,-2.5644,-2.5684,-2.5684,-2.5098,-2.4765,-2.5404,-2.4188,-2.2847,-2.2079,-2.1328,-2.0809,-2.0746,-2.1455,-2.1653,-2.0769,-2.0611,0.0,-2.0332,-1.9897,-1.9066,-1.7723,-1.2685,-0.7851,-0.37,0.6778,0.9925,0.3841,0.624,0.3269,-0.5754,-0.6079,-0.62,-0.6195,-0.5757,-0.5567,-0.57,-0.619,-0.6949,-0.7842,-0.7811,-0.8431,-0.9392,-0.8722,-0.8578,-0.8748,-0.8317,-0.9483,-1.1345,-1.0848,-1.161,-1.2869,-3.3693,-3.284,-3.2129,-3.2283,-3.2482,-3.2253,-3.1103,-3.1474,-3.1376,-2.9902,-2.9381,-2.8847,-2.7935,-2.8424,-2.8852,-2.8923,-3.0172,-3.0978,-3.1054,-3.1761,-3.2311,-3.2594,-3.284,-3.3034,-3.3196,-3.319,-3.2783,-3.1968,-3.1695,-3.1164,0.0,0.0,-2.7675,-2.7481,-2.4961,-2.444,-2.5487,-2.6223,-2.6352,-2.6082,-2.6666,-2.6075,-2.4832,-2.4804,-2.5091,-2.5507,-2.5517,-2.5503,-2.5507,-2.5492,-2.5409,-2.5303,-2.5303,-2.5303,-2.5303,-2.5303,-2.537,-2.5399,-2.5398,-2.5455,-2.5493,-2.5493,-2.55,-2.5522,-2.5517,-2.557,-2.5625,-2.5625,-2.5547,-2.5293,-2.4726,-2.3753,-2.2965,-2.2806,-2.2667,-2.2555,-2.2552,-2.2734,-2.2809,-2.2636,-2.2556,-2.2527,-2.2545,-1.9846,-1.8283,-1.8763,-1.5036,-0.923,-0.1195,0.6074,1.1825,1.5856,1.0576,0.5297,0.0307,-0.5042,-0.7204,-0.6188,-0.6527,-0.5937,-0.4525,-0.5542,-0.5955,-0.5917,-0.6563,-0.695,-0.7131,-0.7465,-0.7848,-0.825,-0.8376,-0.9253,-1.052,-1.1166,-1.1796,-1.2332,-3.4017,-3.3138,-3.2485,-3.2978,-3.3697,-3.3926,-3.3085,-3.4118,-3.4141,-3.171,-3.0627,-2.9947,-2.9593,-2.93,-2.9156,-2.9263,-2.998,-3.0433,-3.0433,-3.098,-3.1401,-3.1561,-3.2057,-3.2238,-3.2,-3.2386,-3.219,-3.1433,-3.1395,-3.0984,-3.0216,-2.9296,-2.8401,-2.7501,-2.5742,-2.496,-2.4995,-2.6042,-2.6341,-2.6125,-2.6456,-2.615,-2.5437,-2.5114,-2.5232,-2.5557,-2.5549,-2.5531,-2.548,-2.5466,-2.539,-2.5303,-2.5303,-2.5303,-2.5303,-2.5303,-2.5322,-2.5341,-2.5341,-2.537,-2.5409,-2.5409,-2.5428,-2.5457,-2.5453,-2.5505,-2.5556,-2.5554,-2.5599,-2.5527,-2.5156,-2.4313,-2.367,-2.3663,-2.3295,-2.2987,-2.2956,-2.3398,-2.3555,-2.3095,-2.3054,-2.2898,-2.2461,-2.041,-1.9296,-1.9792,-1.6118,-0.9962,-0.1033,0.491,1.0291,1.521,1.279,0.7225,-0.1441,-0.5278,-0.7163,-0.7172,-0.7425,-0.6694,-0.5168,-0.5887,-0.602,-0.5748,-0.6294,-0.6804,-0.7247,-0.7617,-0.8102,-0.8623,-0.8674,-0.9527,-1.0761,-1.1067,-1.1621,-1.221,-3.4883,-3.402,-3.3526,-3.4011,-3.5281,-3.5806,-3.4614,-3.5953,-3.596,-3.2781,-3.1627,-3.102,-3.082,-3.0023,-2.9589,-2.9746,-2.9954,-3.0089,-3.0109,-3.0375,-3.0548,-3.0618,-3.1304,-3.1432,-3.0918,-3.1474,-3.1475,-3.0864,-3.0816,-3.0463,-2.9835,-2.9599,-2.8675,-2.7128,-2.6065,-2.5372,-2.5097,-2.6236,-2.6463,-2.6091,-2.6255,-2.6141,-2.585,-2.5385,-2.5378,-2.5603,-2.5589,-2.5533,-2.5486,-2.5409,-2.5341,-2.5303,-2.5303,-2.5303,-2.5303,-2.5303,-2.5264,-2.5243,-2.5243,-2.5222,-2.5192,-2.5224,-2.5292,-2.533,-2.538,-2.5428,-2.5484,-2.5473,-2.5522,-2.5582,-2.5641,-2.504,-2.4477,-2.4322,-2.386,-2.3436,-2.3237,-2.384,-2.412,-2.3628,-2.328,-2.29,-2.2406,-2.1484,-2.0845,-2.0652,-1.6973,-1.0765,-0.1684,0.4116,0.9002,1.3051,1.3363,0.8168,-0.2933,-0.5535,-0.733,-0.8415,-0.8441,-0.7692,-0.6231,-0.6529,-0.6347,-0.5843,-0.6211,-0.6907,-0.7803,-0.7989,-0.8465,-0.9099,-0.9216,-1.0015,-1.1112,-1.1106,-1.1541,-1.2149,-3.7617,-3.7269,-3.7072,-3.7032,-3.769,-3.7683,-3.6056,-3.6545,-3.5851,-3.234,-3.1981,-3.1506,-2.9982,-2.9888,-2.9954,-2.9969,-3.0209,-3.0386,-3.0444,-3.0533,-3.0614,-3.0687,-3.0891,-3.0956,-3.0898,-3.0974,-3.0915,-3.072,-3.0779,-3.0726,-3.0585,-2.9835,-2.8998,-2.7998,-2.6275,-2.6348,-2.7719,-2.7493,-2.7006,-2.6407,-2.6911,-2.6325,-2.5196,-2.5201,-2.537,-2.5586,-2.5537,-2.551,-2.5486,-2.5341,-2.5303,-2.5303,-2.5303,-2.5303,-2.5303,-2.5303,-2.5163,-2.5022,-2.5022,-2.4943,-2.4869,-2.4986,-2.5022,-2.5088,-2.5264,-2.537,-2.5409,-2.5418,-2.546,-2.5507,-2.5526,-2.5401,-2.5072,-2.4322,-2.4745,-2.4947,-2.4254,-2.4248,-2.4593,-2.5367,-2.3995,-2.3318,-2.4072,-2.3248,-2.2235,-2.1199,-1.8219,-1.2179,-0.2335,0.4416,1.0865,1.7147,1.202,0.6878,0.2064,-0.4905,-0.8742,-0.9466,-0.982,-0.8936,-0.7002,-0.7164,-0.6467,-0.5205,-0.5734,-0.6516,-0.7468,-0.7774,-0.8371,-0.9182,-1.0022,-1.0559,-1.0952,-1.1764,-1.1978,-1.1891,-3.8777,-3.7747,-3.7252,-3.8251,-3.8195,-3.7795,-3.7072,-3.7336,-3.6344,-3.2693,-3.2204,-3.1806,-3.0772,-3.0278,-3.0075,-3.0241,-3.0362,-3.0448,-3.0448,-3.0583,-3.0642,-3.064,-3.081,-3.0862,-3.0775,-3.0787,-3.0722,-3.0649,-3.0668,-3.0691,-3.068,-3.0367,-3.0018,-2.9613,-2.893,-2.8948,-2.9493,-2.974,-2.9069,-2.7818,-2.7551,-2.6813,-2.5849,-2.5554,-2.5522,-2.5642,-2.5537,-2.5505,-2.5486,-2.5341,-2.5303,-2.5274,-2.5163,-2.5111,-2.5099,-2.5024,-2.4949,-2.4877,-2.4877,-2.4842,-2.4818,-2.4869,-2.4937,-2.4889,-2.4487,-2.4887,-2.5197,-2.4716,-2.5067,-2.5453,-2.5492,-2.5455,-2.5293,-2.4966,-2.5159,-2.5245,-2.4947,-2.4981,-2.5137,-2.5477,-2.499,-2.4521,-2.4308,-2.3948,-2.3261,-2.2142,-2.0337,-1.4315,-0.2868,0.0089,0.4889,1.2443,0.9287,0.4967,-0.0256,-0.5108,-0.8332,-0.9968,-1.1105,-1.0436,-0.8177,-0.8156,-0.7276,-0.5775,-0.5982,-0.6397,-0.6986,-0.7762,-0.8507,-0.9267,-1.0273,-1.0975,-1.1446,-1.1828,-1.1876,-1.1826,-3.9857,-3.8659,-3.8123,-3.9346,-3.8812,-3.8104,-3.7783,-3.7724,-3.6584,-3.3502,-3.273,-3.2126,-3.1145,-3.0486,-3.0196,-3.0379,-3.0448,-3.0463,-3.0472,-3.059,-3.0685,-3.0696,-3.0813,-3.0855,-3.0765,-3.0711,-3.0659,-3.0588,-3.0608,-3.0621,-3.0633,-3.0673,-3.0801,-3.1008,-3.1066,-3.1008,-3.0896,-3.1341,-3.04,-2.8529,-2.7973,-2.711,-2.6129,-2.5738,-2.5639,-2.5665,-2.5546,-2.5485,-2.5437,-2.5262,-2.5214,-2.5192,-2.5034,-2.4974,-2.4911,-2.4828,-2.476,-2.4716,-2.4716,-2.4716,-2.4716,-2.4716,-2.4693,-2.456,-2.4236,-2.4558,-2.4851,-2.4524,-2.4947,-2.539,-2.5428,-2.5409,-2.5293,-2.5063,-2.5178,-2.5207,-2.5005,-2.5054,-2.5195,-2.5434,-2.5364,-2.4998,-2.4227,-2.4434,-2.3926,-2.2257,-2.2096,-1.6853,-0.4814,-0.3857,-0.0075,0.7767,0.618,0.2723,-0.2427,-0.5521,-0.8318,-1.0827,-1.2136,-1.1652,-0.9606,-0.8739,-0.7707,-0.6595,-0.6408,-0.6562,-0.7022,-0.7846,-0.8636,-0.9375,-1.022,-1.0917,-1.1521,-1.1521,-1.1401,-1.1266,-4.1124,-4.0713,-4.0657,-4.0675,-3.9965,-3.9092,-3.8243,-3.7478,-3.6402,-3.4697,-3.3724,-3.2487,-3.0609,-3.0398,-3.0398,-3.0398,-3.0398,-3.0472,-3.0587,-3.0598,-3.0687,-3.0898,-3.0898,-3.0898,-3.0898,-3.077,-3.066,-3.0602,-3.0595,-3.0578,-3.0513,-3.0633,-3.1159,-3.1987,-3.1987,-3.1978,-3.1979,-3.1929,-3.0436,-2.8099,-2.8099,-2.7101,-2.562,-2.5601,-2.5593,-2.5591,-2.5517,-2.5466,-2.537,-2.5096,-2.4991,-2.4991,-2.501,-2.4917,-2.4804,-2.4804,-2.4654,-2.4512,-2.4512,-2.4512,-2.4512,-2.4512,-2.4167,-2.4026,-2.482,-2.453,-2.4341,-2.512,-2.5284,-2.5303,-2.5303,-2.5303,-2.5043,-2.4245,-2.4774,-2.5043,-2.4322,-2.4206,-2.4568,-2.5485,-2.4843,-2.4235,-2.4013,-2.4849,-2.4171,-2.1246,-2.3272,-1.9819,-0.8726,-0.6324,-0.2032,0.5013,0.2859,0.0145,-0.2864,-0.6096,-0.9249,-1.2272,-1.2828,-1.2483,-1.1284,-0.8699,-0.754,-0.7541,-0.6872,-0.7039,-0.7804,-0.8095,-0.8709,-0.9522,-0.9817,-1.0279,-1.0812,-1.0812,-1.0424,-1.0009,-4.2895,-4.1286,-4.0201,-4.0795,-3.9657,-3.856,-3.8285,-3.7531,-3.6406,-3.4709,-3.4253,-3.3408,-3.1612,-3.0877,-3.0544,-3.0544,-3.0583,-3.0609,-3.0598,-3.0736,-3.0794,-3.0762,-3.0762,-3.0743,-3.0704,-3.0616,-3.0525,-3.0467,-3.0455,-3.0499,-3.0568,-3.0616,-3.106,-3.1864,-3.1909,-3.1909,-3.1868,-3.1895,-3.0435,-2.8105,-2.8153,-2.7127,-2.5599,-2.5605,-2.5609,-2.5592,-2.5481,-2.5416,-2.537,-2.5096,-2.4937,-2.4842,-2.4693,-2.462,-2.4578,-2.4426,-2.4358,-2.4303,-2.4303,-2.4393,-2.4461,-2.4339,-2.4065,-2.3838,-2.3954,-2.4033,-2.4341,-2.5139,-2.5303,-2.5303,-2.5303,-2.5303,-2.5207,-2.4966,-2.5139,-2.5207,-2.4986,-2.5024,-2.5158,-2.5371,-2.515,-2.4828,-2.4438,-2.4803,-2.4328,-2.2566,-2.3086,-1.9645,-1.086,-0.9573,-0.613,0.0413,0.0251,-0.136,-0.4357,-0.661,-0.9107,-1.1885,-1.2703,-1.2502,-1.1354,-0.9832,-0.8628,-0.7709,-0.7209,-0.7158,-0.7441,-0.7969,-0.8437,-0.8891,-0.9606,-1.0024,-1.0189,-1.0189,-1.0069,-0.992,-4.3281,-4.1582,-4.0359,-4.0904,-3.9528,-3.8334,-3.833,-3.7362,-3.6245,-3.5204,-3.4782,-3.405,-3.2622,-3.172,-3.1043,-3.0646,-3.0646,-3.0665,-3.0652,-3.0735,-3.0759,-3.0696,-3.0672,-3.0635,-3.0591,-3.0537,-3.0487,-3.0448,-3.0402,-3.0444,-3.0521,-3.0879,-3.1313,-3.1819,-3.2216,-3.2172,-3.1814,-3.155,-3.0167,-2.8111,-2.7795,-2.684,-2.5593,-2.5571,-2.555,-2.5505,-2.5428,-2.534,-2.522,-2.5012,-2.4809,-2.4654,-2.4444,-2.4393,-2.4357,-2.4247,-2.419,-2.419,-2.419,-2.4358,-2.4444,-2.4266,-2.4005,-2.3709,-2.3308,-2.3675,-2.4149,-2.4312,-2.462,-2.4851,-2.4851,-2.5101,-2.5303,-2.5303,-2.5303,-2.5303,-2.5303,-2.5428,-2.5434,-2.5247,-2.5165,-2.4929,-2.4459,-2.4462,-2.3897,-2.2449,-2.2584,-1.9795,-1.3078,-1.1452,-0.8395,-0.3408,-0.2203,-0.2971,-0.5708,-0.7456,-0.9473,-1.1708,-1.2641,-1.261,-1.1675,-1.0687,-0.9571,-0.8414,-0.7781,-0.7587,-0.7735,-0.7901,-0.8244,-0.8691,-0.9017,-0.9308,-0.9533,-0.9533,-0.9368,-0.9216,-4.2558,-4.1641,-4.1016,-4.1016,-3.9579,-3.8402,-3.8402,-3.704,-3.6009,-3.6,-3.5295,-3.4438,-3.3496,-3.2732,-3.1822,-3.0706,-3.0609,-3.0626,-3.0704,-3.0641,-3.0595,-3.0617,-3.0532,-3.0482,-3.0421,-3.0352,-3.0352,-3.041,-3.041,-3.0398,-3.0417,-3.1299,-3.1696,-3.1734,-3.2625,-3.2571,-3.1747,-3.0953,-2.9666,-2.8102,-2.7176,-2.632,-2.5592,-2.5518,-2.5459,-2.5409,-2.539,-2.522,-2.4986,-2.4842,-2.467,-2.4461,-2.4247,-2.417,-2.417,-2.419,-2.419,-2.419,-2.419,-2.4358,-2.4444,-2.4173,-2.3896,-2.3503,-2.2824,-2.3352,-2.3745,-2.2957,-2.3476,-2.4082,-2.411,-2.4755,-2.5303,-2.5303,-2.5303,-2.5284,-2.5226,-2.5322,-2.5305,-2.5017,-2.4784,-2.4478,-2.4019,-2.3746,-2.2917,-2.1191,-2.175,-2.0108,-1.531,-1.2242,-0.93,-0.6389,-0.4673,-0.4842,-0.7011,-0.869,-1.0266,-1.1789,-1.2673,-1.2778,-1.2159,-1.1247,-1.0329,-0.9434,-0.8449,-0.8226,-0.8521,-0.7868,-0.8076,-0.8754,-0.8139,-0.8274,-0.8814,-0.883,-0.8439,-0.8079,-4.2363,-4.1699,-4.1152,-4.1152,-3.9715,-3.8557,-3.8557,-3.7102,-3.5996,-3.6009,-3.5813,-3.511,-3.3568,-3.3173,-3.2392,-3.0816,-3.068,-3.0683,-3.0704,-3.0633,-3.0328,-2.9734,-2.9592,-2.9245,-2.8623,-2.8555,-2.8813,-2.9429,-3.0083,-3.0398,-3.0398,-3.0621,-3.0717,-3.0737,-3.1018,-3.1014,-3.079,-3.0028,-2.9087,-2.8039,-2.7165,-2.6301,-2.5515,-2.5455,-2.5398,-2.539,-2.5341,-2.5182,-2.4986,-2.4842,-2.467,-2.4461,-2.4247,-2.4016,-2.3876,-2.4113,-2.419,-2.419,-2.419,-2.4358,-2.4295,-2.3493,-2.285,-2.2252,-2.1635,-2.2137,-2.2711,-2.2668,-2.3301,-2.3926,-2.4072,-2.4755,-2.5303,-2.5303,-2.5303,-2.5091,-2.4476,-2.4462,-2.4325,-2.3854,-2.3347,-2.2966,-2.2832,-2.2108,-2.1374,-2.0696,-2.0267,-1.9068,-1.6861,-1.4319,-1.1511,-0.8462,-0.7607,-0.7823,-0.9249,-1.0157,-1.1296,-1.2616,-1.2882,-1.2714,-1.2103,-1.1308,-1.0363,-0.9305,-0.8552,-0.8216,-0.8179,-0.7768,-0.7722,-0.7899,-0.7901,-0.7901,-0.7914,-0.808,-0.8034,-0.8019,-4.2206,-4.1261,-4.0464,-4.0464,-3.9077,-3.7969,-3.7969,-3.6836,-3.5989,-3.5961,-3.5605,-3.4837,-3.3451,-3.2915,-3.2126,-3.0768,-3.0645,-3.0646,-3.0652,-3.0231,-2.9766,-2.9327,-2.8863,-2.8401,-2.7958,-2.792,-2.8102,-2.8544,-2.9301,-2.9666,-2.9685,-2.9956,-3.0085,-3.0085,-3.0221,-3.0069,-2.9685,-2.8994,-2.823,-2.7373,-2.6475,-2.5843,-2.5447,-2.539,-2.5341,-2.5341,-2.5203,-2.5053,-2.4891,-2.4712,-2.4528,-2.4321,-2.4037,-2.3855,-2.3714,-2.3735,-2.3735,-2.3774,-2.3917,-2.4039,-2.3971,-2.3305,-2.2569,-2.1845,-2.1243,-2.1431,-2.1663,-2.1373,-2.2345,-2.328,-2.338,-2.4447,-2.5303,-2.5303,-2.5303,-2.5024,-2.4216,-2.4404,-2.4155,-2.2912,-2.2481,-2.2007,-2.1376,-2.0567,-1.9998,-1.9768,-1.9506,-1.8641,-1.7024,-1.5847,-1.3788,-1.0704,-0.9458,-0.9293,-1.0241,-1.1158,-1.2192,-1.3256,-1.319,-1.2835,-1.2262,-1.1459,-1.0491,-0.9406,-0.8787,-0.837,-0.8075,-0.7739,-0.7605,-0.762,-0.7724,-0.7753,-0.7753,-0.7856,-0.8094,-0.8439,-4.1714,-4.0563,-3.956,-3.9424,-3.8166,-3.7179,-3.7165,-3.6481,-3.5935,-3.5871,-3.5116,-3.4223,-3.3296,-3.2409,-3.1538,-3.0664,-3.0576,-3.0571,-3.0575,-2.9698,-2.9132,-2.9017,-2.8159,-2.764,-2.7505,-2.764,-2.7687,-2.7646,-2.83,-2.8608,-2.8579,-2.9099,-2.9336,-2.9336,-2.9513,-2.9222,-2.8578,-2.7934,-2.7272,-2.661,-2.5668,-2.5312,-2.534,-2.5283,-2.5243,-2.5192,-2.5041,-2.4877,-2.4731,-2.4561,-2.4357,-2.4151,-2.3876,-2.3735,-2.3631,-2.33,-2.3165,-2.3171,-2.34,-2.3328,-2.3111,-2.2932,-2.2213,-2.1421,-2.0941,-2.0897,-2.0772,-2.0082,-2.1331,-2.2604,-2.274,-2.3946,-2.4957,-2.5101,-2.5014,-2.4639,-2.3809,-2.4147,-2.3825,-2.2074,-2.168,-2.1154,-2.0154,-1.94,-1.8872,-1.8677,-1.9014,-1.8412,-1.6507,-1.6704,-1.563,-1.2907,-1.1038,-1.033,-1.0833,-1.1978,-1.2891,-1.3551,-1.3267,-1.2859,-1.228,-1.1405,-1.0487,-0.9571,-0.9029,-0.8558,-0.8118,-0.7739,-0.7575,-0.7545,-0.7575,-0.7679,-0.7797,-0.787,-0.8304,-0.8929,-3.9957,-3.9695,-3.938,-3.8621,-3.768,-3.7026,-3.7034,-3.6292,-3.5743,-3.5725,-3.5018,-3.4179,-3.3291,-3.2373,-3.146,-3.0583,-3.0463,-3.0455,-3.0506,-2.964,-2.8813,-2.8121,-2.7274,-2.6467,-2.5707,-2.6428,-2.6721,-2.6555,-2.737,-2.769,-2.7525,-2.7626,-2.7667,-2.7667,-2.7717,-2.7747,-2.7733,-2.6906,-2.6569,-2.6544,-2.5649,-2.5203,-2.5065,-2.5046,-2.4981,-2.4855,-2.4842,-2.4716,-2.4545,-2.4512,-2.4357,-2.419,-2.4151,-2.3917,-2.3631,-2.33,-2.2996,-2.2691,-2.2433,-2.1547,-2.0771,-2.0888,-2.0199,-1.9477,-1.9552,-1.9971,-2.0396,-2.061,-2.1561,-2.2615,-2.3469,-2.338,-2.3428,-2.4168,-2.3726,-2.2933,-2.1961,-2.1712,-2.1543,-2.1267,-2.0149,-1.9658,-2.0351,-1.9504,-1.8524,-1.7626,-1.8174,-1.7821,-1.6182,-1.6174,-1.5809,-1.4862,-1.3509,-1.269,-1.2447,-1.2971,-1.311,-1.2847,-1.2521,-1.2053,-1.1443,-1.0527,-0.9923,-0.9564,-0.904,-0.8634,-0.8322,-0.7812,-0.747,-0.7287,-0.7514,-0.7485,-0.7349,-0.7768,-0.8151,-0.858,-3.9427,-3.8638,-3.7921,-3.7516,-3.6785,-3.6247,-3.6237,-3.5949,-3.5523,-3.5,-3.4245,-3.341,-3.2485,-3.1588,-3.0883,-3.0487,-3.0417,-3.0398,-3.0448,-2.9198,-2.8294,-2.7909,-2.6621,-2.5707,-2.5303,-2.5587,-2.5692,-2.5602,-2.6256,-2.6537,-2.6458,-2.6766,-2.6916,-2.6935,-2.7042,-2.69,-2.6563,-2.6369,-2.6047,-2.5609,-2.5271,-2.5041,-2.4891,-2.4891,-2.4855,-2.479,-2.467,-2.4575,-2.4478,-2.4375,-2.4266,-2.417,-2.3996,-2.3816,-2.3631,-2.33,-2.277,-2.2288,-2.2099,-2.1211,-2.0367,-2.0486,-1.9734,-1.9018,-1.9117,-1.934,-1.9612,-1.9794,-2.1152,-2.2306,-2.2351,-2.2991,-2.3505,-2.3514,-2.3176,-2.2566,-2.1582,-2.1463,-2.1083,-2.0032,-1.9314,-1.8883,-1.8781,-1.8168,-1.7709,-1.7578,-1.772,-1.7574,-1.6984,-1.6428,-1.5921,-1.5533,-1.4284,-1.3384,-1.2899,-1.3451,-1.352,-1.311,-1.2603,-1.1984,-1.127,-1.0323,-0.9744,-0.9454,-0.9005,-0.8582,-0.8214,-0.7783,-0.7439,-0.7211,-0.7348,-0.7303,-0.7253,-0.7806,-0.8345,-0.8856,-3.9027,-3.7757,-3.6642,-3.6449,-3.5949,-3.5584,-3.5584,-3.5622,-3.5391,-3.4661,-3.3692,-3.2788,-3.2064,-3.1025,-3.0398,-3.0398,-3.0398,-3.0302,-3.0121,-2.8717,-2.789,-2.789,-2.6186,-2.5224,-2.5224,-2.5053,-2.4949,-2.4949,-2.5274,-2.5392,-2.5356,-2.5831,-2.6043,-2.6043,-2.6208,-2.5968,-2.5426,-2.5744,-2.5456,-2.4818,-2.4917,-2.4864,-2.4731,-2.4731,-2.47,-2.4639,-2.4478,-2.4426,-2.441,-2.4266,-2.419,-2.4151,-2.3896,-2.3816,-2.3699,-2.3178,-2.2336,-2.1604,-2.1781,-2.1,-2.016,-2.0209,-1.9555,-1.8931,-1.9052,-1.9145,-1.9219,-1.9323,-2.0749,-2.1871,-2.1489,-2.2407,-2.3109,-2.2738,-2.2446,-2.1992,-2.1211,-2.1165,-2.0676,-1.9261,-1.881,-1.8373,-1.7745,-1.7445,-1.7397,-1.7663,-1.7595,-1.7571,-1.7577,-1.6573,-1.5816,-1.5379,-1.4431,-1.3715,-1.3248,-1.3863,-1.3885,-1.3255,-1.2789,-1.2,-1.0996,-1.0209,-0.9695,-0.9378,-0.894,-0.851,-0.8061,-0.7665,-0.7348,-0.713,-0.713,-0.713,-0.7212,-0.7862,-0.8474,-0.9049,-3.8257,-3.7334,-3.6469,-3.5718,-3.5532,-3.5526,-3.5526,-3.5526,-3.5488,-3.543,-3.3949,-3.2891,-3.2814,-3.1371,-3.0398,-3.0398,-3.0398,-3.0063,-2.9236,-2.8371,-2.789,-2.789,-2.6041,-2.5022,-2.5022,-2.4896,-2.4799,-2.4799,-2.4647,-2.4484,-2.432,-2.4374,-2.4373,-2.4373,-2.4393,-2.4469,-2.4588,-2.462,-2.4695,-2.4804,-2.4818,-2.47,-2.4528,-2.4528,-2.441,-2.4247,-2.4228,-2.4228,-2.4209,-2.419,-2.419,-2.4208,-2.417,-2.417,-2.3947,-2.2885,-2.1448,-2.0387,-2.1162,-2.0264,-1.9159,-1.9335,-1.9018,-1.8753,-1.918,-1.9524,-1.9861,-2.0293,-2.0769,-2.1343,-2.2158,-2.1358,-2.0824,-2.1583,-2.0968,-2.0281,-1.9966,-1.9467,-1.9241,-1.9608,-1.8607,-1.8132,-1.8718,-1.8761,-1.8349,-1.7411,-1.7954,-1.7899,-1.6927,-1.6148,-1.5282,-1.4341,-1.4327,-1.4222,-1.392,-1.4478,-1.4007,-1.2563,-1.2649,-1.1805,-1.0179,-0.9863,-0.96,-0.9376,-0.8846,-0.8415,-0.8048,-0.7472,-0.7112,-0.6911,-0.6911,-0.6911,-0.701,-0.7805,-0.8328,-0.8727,-3.6748,-3.6025,-3.536,-3.5056,-3.5138,-3.5239,-3.5239,-3.5239,-3.5113,-3.4743,-3.3494,-3.2465,-3.1962,-3.0858,-3.0109,-2.9977,-3.008,-2.9805,-2.8977,-2.8154,-2.7228,-2.6156,-2.5311,-2.4883,-2.4883,-2.4697,-2.4607,-2.4607,-2.441,-2.4266,-2.419,-2.419,-2.419,-2.419,-2.419,-2.4247,-2.4321,-2.4444,-2.4478,-2.4426,-2.4559,-2.4495,-2.4321,-2.4321,-2.4284,-2.419,-2.419,-2.419,-2.419,-2.419,-2.419,-2.417,-2.3955,-2.4016,-2.3986,-2.2874,-2.1419,-2.0191,-2.0328,-1.9795,-1.9182,-1.9117,-1.8843,-1.8604,-1.8624,-1.8855,-1.9104,-1.9273,-2.0248,-2.1035,-2.0916,-2.1061,-2.1107,-2.0954,-2.0501,-2.0116,-1.9901,-1.9265,-1.8895,-1.9011,-1.8443,-1.816,-1.8452,-1.8469,-1.8305,-1.7888,-1.7929,-1.7599,-1.6785,-1.5729,-1.4896,-1.4339,-1.4454,-1.4467,-1.4374,-1.4747,-1.4153,-1.262,-1.2689,-1.1738,-0.9964,-0.9825,-0.9528,-0.9138,-0.8756,-0.8339,-0.7896,-0.7576,-0.7237,-0.6908,-0.6908,-0.6824,-0.6838,-0.7856,-0.8306,-0.8529,-3.5885,-3.5262,-3.4694,-3.4694,-3.4851,-3.4981,-3.4981,-3.4981,-3.4824,-3.44,-3.322,-3.2188,-3.1635,-3.0573,-2.9845,-2.9713,-2.9665,-2.9256,-2.8436,-2.7342,-2.616,-2.4902,-2.4737,-2.47,-2.47,-2.4512,-2.4445,-2.4495,-2.4303,-2.419,-2.419,-2.419,-2.419,-2.419,-2.419,-2.419,-2.4209,-2.4339,-2.4339,-2.4209,-2.4339,-2.4303,-2.419,-2.419,-2.419,-2.419,-2.4074,-2.4036,-2.3979,-2.3646,-2.3678,-2.3801,-2.3322,-2.3172,-2.3022,-2.2283,-2.0945,-1.9667,-1.9479,-1.9255,-1.9049,-1.8913,-1.866,-1.845,-1.8351,-1.841,-1.8528,-1.8697,-1.9672,-2.0383,-2.0032,-2.0643,-2.103,-2.0449,-2.026,-2.0085,-1.9838,-1.9298,-1.8873,-1.8734,-1.8489,-1.833,-1.833,-1.833,-1.8226,-1.7962,-1.7748,-1.7202,-1.6279,-1.5469,-1.4856,-1.4475,-1.4625,-1.4737,-1.476,-1.4975,-1.4134,-1.2264,-1.2505,-1.1615,-0.9808,-0.9662,-0.9359,-0.8915,-0.8582,-0.8153,-0.7695,-0.747,-0.7155,-0.682,-0.6984,-0.6974,-0.6987,-0.8135,-0.855,-0.8675,-3.5885,-3.5241,-3.4694,-3.4694,-3.4694,-3.4713,-3.4713,-3.4713,-3.4694,-3.4694,-3.3222,-3.2185,-3.2185,-3.0713,-2.9696,-2.9696,-2.9137,-2.8417,-2.7546,-2.5811,-2.4716,-2.4512,-2.4495,-2.4495,-2.4495,-2.4303,-2.4303,-2.4495,-2.4303,-2.419,-2.419,-2.419,-2.419,-2.419,-2.419,-2.419,-2.419,-2.419,-2.419,-2.419,-2.419,-2.419,-2.419,-2.419,-2.419,-2.4151,-2.3816,-2.3692,-2.3523,-2.2456,-2.2592,-2.3047,-2.2326,-2.1529,-2.0891,-2.0909,-1.9808,-1.8585,-1.8585,-1.8585,-1.8585,-1.8585,-1.8391,-1.827,-1.8528,-1.8391,-1.8351,-1.8896,-1.9095,-1.9341,-1.9812,-2.0002,-2.0092,-2.0094,-2.0104,-1.9982,-1.9655,-1.9372,-1.9157,-1.9018,-1.8753,-1.8604,-1.8586,-1.8586,-1.8249,-1.7453,-1.7382,-1.6761,-1.5286,-1.5397,-1.5209,-1.4622,-1.4859,-1.5027,-1.5071,-1.5212,-1.3958,-1.1319,-1.2036,-1.1404,-0.9592,-0.9313,-0.9059,-0.8779,-0.8297,-0.7881,-0.7472,-0.7061,-0.6774,-0.6662,-0.7194,-0.7406,-0.7543,-0.8675,-0.91,-0.9189,-3.4439,-3.4228,-3.408,-3.408,-3.4237,-3.4357,-3.4357,-3.4357,-3.422,-3.3845,-3.2687,-3.1701,-3.1123,-3.013,-2.9191,-2.8433,-2.8334,-2.7729,-2.6336,-2.5185,-2.4495,-2.4303,-2.4284,-2.4284,-2.4284,-2.4228,-2.4228,-2.4284,-2.4228,-2.419,-2.419,-2.419,-2.419,-2.419,-2.419,-2.419,-2.419,-2.419,-2.419,-2.419,-2.419,-2.419,-2.419,-2.419,-2.419,-2.4151,-2.3816,-2.3692,-2.3523,-2.2456,-2.226,-2.2379,-2.2171,-2.1027,-1.99,-2.0446,-1.9516,-1.827,-1.8082,-1.8035,-1.8082,-1.827,-1.8249,-1.8166,-1.8061,-1.8125,-1.8249,-1.841,-1.8841,-1.9302,-1.9576,-1.9877,-2.0134,-2.0233,-2.0157,-2.0015,-1.9762,-1.9421,-1.8919,-1.8187,-1.8016,-1.775,-1.7178,-1.7143,-1.7035,-1.6787,-1.6197,-1.5849,-1.5819,-1.5224,-1.4866,-1.489,-1.4992,-1.4541,-1.3433,-1.396,-1.3555,-1.2214,-1.1667,-1.0778,-0.9583,-0.9222,-0.8915,-0.8634,-0.8115,-0.7665,-0.7272,-0.7012,-0.7006,-0.7169,-0.7344,-0.7663,-0.8114,-0.8849,-0.91,-0.9189,-3.3807,-3.3807,-3.3807,-3.3807,-3.3935,-3.4043,-3.4043,-3.3765,-3.3449,-3.3134,-3.1953,-3.0987,-3.0491,-2.9709,-2.8867,-2.7882,-2.7394,-2.6599,-2.5312,-2.4773,-2.441,-2.4209,-2.419,-2.419,-2.419,-2.419,-2.419,-2.419,-2.419,-2.419,-2.419,-2.419,-2.419,-2.419,-2.419,-2.419,-2.419,-2.419,-2.419,-2.419,-2.419,-2.4113,-2.3996,-2.3996,-2.3917,-2.3774,-2.3414,-2.3282,-2.3117,-2.1739,-2.1278,-2.1307,-2.1638,-2.0748,-1.9613,-1.9814,-1.8984,-1.8014,-1.7839,-1.7704,-1.7641,-1.7805,-1.7832,-1.7827,-1.7811,-1.7822,-1.7915,-1.8146,-1.8607,-1.9054,-1.9401,-1.9767,-2.0068,-2.0162,-2.0186,-2.0088,-1.9832,-1.9351,-1.8793,-1.8102,-1.7729,-1.7348,-1.6853,-1.6817,-1.6688,-1.6358,-1.5563,-1.5247,-1.564,-1.512,-1.489,-1.5065,-1.5072,-1.4448,-1.3155,-1.3137,-1.2552,-1.1446,-1.1057,-1.0316,-0.9269,-0.9005,-0.8779,-0.857,-0.7958,-0.7584,-0.7415,-0.7201,-0.7223,-0.7443,-0.7901,-0.8298,-0.8675,-0.9226,-0.9403,-0.9478,-3.3807,-3.3807,-3.3807,-3.3807,-3.3807,-3.377,-3.3697,-3.3073,-3.2559,-3.2412,-3.1109,-3.0173,-3.0099,-2.9457,-2.8668,-2.7769,-2.6392,-2.5243,-2.4534,-2.4478,-2.4393,-2.4209,-2.419,-2.419,-2.419,-2.419,-2.419,-2.419,-2.419,-2.419,-2.419,-2.419,-2.419,-2.419,-2.419,-2.419,-2.419,-2.419,-2.419,-2.419,-2.419,-2.3996,-2.3692,-2.3692,-2.35,-2.3165,-2.2822,-2.2695,-2.2418,-2.0603,-1.9917,-1.9934,-2.0737,-2.045,-1.9681,-1.908,-1.8386,-1.7789,-1.7749,-1.7526,-1.7296,-1.7296,-1.7231,-1.7296,-1.7635,-1.7502,-1.7462,-1.8001,-1.8391,-1.8753,-1.9267,-1.9599,-1.9834,-1.9997,-2.0055,-1.998,-1.9752,-1.9114,-1.8602,-1.8324,-1.7643,-1.7162,-1.7106,-1.7081,-1.679,-1.6064,-1.5319,-1.4947,-1.5016,-1.507,-1.5126,-1.5175,-1.5061,-1.4579,-1.3756,-1.2715,-1.1384,-0.9815,-1.03,-0.9927,-0.8801,-0.8667,-0.8614,-0.8563,-0.7834,-0.7668,-0.7859,-0.7585,-0.7506,-0.7643,-0.8688,-0.9138,-0.9239,-0.9717,-0.9905,-0.9893,-3.3807,-3.3807,-3.3807,-3.3807,-3.3807,-3.3587,-3.2963,-3.2724,-3.2155,-3.0889,-3.043,-2.9971,-2.9347,-2.9085,-2.8407,-2.6998,-2.5423,-2.445,-2.4284,-2.4284,-2.4247,-2.419,-2.419,-2.419,-2.419,-2.419,-2.419,-2.419,-2.419,-2.419,-2.419,-2.419,-2.419,-2.419,-2.419,-2.419,-2.419,-2.419,-2.419,-2.419,-2.419,-2.3996,-2.3692,-2.3692,-2.35,-2.3165,-2.2822,-2.2695,-2.2418,-2.0603,-1.9224,-1.842,-1.9147,-1.8877,-1.8369,-1.8775,-1.8386,-1.7726,-1.7479,-1.7368,-1.7296,-1.7296,-1.6926,-1.6591,-1.6942,-1.715,-1.7344,-1.7469,-1.809,-1.8699,-1.9036,-1.8974,-1.9186,-2.0096,-1.9176,-1.8501,-1.8945,-1.8346,-1.7548,-1.6723,-1.6468,-1.613,-1.5555,-1.5445,-1.5394,-1.5327,-1.5109,-1.5034,-1.5149,-1.5129,-1.5071,-1.5038,-1.496,-1.4441,-1.3422,-1.3123,-1.217,-1.0624,-0.9667,-0.9069,-0.879,-0.8232,-0.8214,-0.8576,-0.7986,-0.8005,-0.8411,-0.8182,-0.8361,-0.875,-0.9012,-0.9365,-0.9742,-0.9855,-0.9905,-0.988,-3.2724,-3.2963,-3.3109,-3.2724,-3.2963,-3.2963,-3.2155,-3.1696,-3.1164,-3.032,-2.9879,-2.9475,-2.9049,-2.8994,-2.8333,-2.6741,-2.5126,-2.419,-2.419,-2.419,-2.419,-2.419,-2.419,-2.419,-2.419,-2.419,-2.419,-2.419,-2.419,-2.419,-2.419,-2.419,-2.419,-2.419,-2.419,-2.419,-2.419,-2.419,-2.4094,-2.3939,-2.3576,-2.3368,-2.3141,-2.2437,-2.2201,-2.2166,-2.1601,-2.119,-2.0839,-2.0637,-1.957,-1.8454,-1.9198,-1.8927,-1.8335,-1.8369,-1.8099,-1.7749,-1.7572,-1.7415,-1.7272,-1.7101,-1.6686,-1.6474,-1.7142,-1.7167,-1.715,-1.7479,-1.7731,-1.8003,-1.8362,-1.8125,-1.8145,-1.8966,-1.8368,-1.7921,-1.8266,-1.7609,-1.6869,-1.6341,-1.5917,-1.5516,-1.5129,-1.5054,-1.5067,-1.5147,-1.5098,-1.5064,-1.5108,-1.5043,-1.4934,-1.4804,-1.471,-1.4167,-1.3128,-1.2849,-1.2114,-1.0886,-1.0154,-0.964,-0.9366,-0.888,-0.8773,-0.8949,-0.8431,-0.8435,-0.8838,-0.873,-0.8861,-0.9126,-0.939,-0.9642,-0.9905,-0.9905,-0.979,-0.9682,-3.1513,-3.1935,-3.2166,-3.1437,-3.1928,-3.2093,-3.1217,-3.0589,-3.0155,-3.0008,-2.942,-2.8994,-2.8994,-2.8737,-2.8007,-2.6521,-2.5052,-2.419,-2.419,-2.419,-2.419,-2.419,-2.419,-2.419,-2.419,-2.419,-2.419,-2.419,-2.419,-2.419,-2.419,-2.419,-2.419,-2.419,-2.419,-2.419,-2.419,-2.419,-2.3943,-2.3461,-2.2849,-2.2509,-2.22,-2.0969,-2.07,-2.0906,-2.0221,-1.9536,-1.9096,-2.0391,-1.9858,-1.8826,-1.9427,-1.9215,-1.8589,-1.798,-1.7811,-1.7789,-1.7726,-1.7479,-1.715,-1.6866,-1.6501,-1.6474,-1.7408,-1.7191,-1.6968,-1.7589,-1.7398,-1.7239,-1.7687,-1.7269,-1.7047,-1.7647,-1.7487,-1.7355,-1.7488,-1.6793,-1.6269,-1.6269,-1.5642,-1.5209,-1.5153,-1.5168,-1.5163,-1.5158,-1.5109,-1.5028,-1.494,-1.486,-1.4726,-1.4524,-1.4341,-1.3835,-1.2989,-1.2542,-1.1903,-1.1102,-1.1055,-1.064,-0.9918,-0.9629,-0.9485,-0.9374,-0.8883,-0.8902,-0.9239,-0.9239,-0.9239,-0.9289,-0.9717,-0.9905,-0.9905,-0.9905,-0.9747,-0.9587,-3.1403,-3.1476,-3.1437,-3.1039,-3.1297,-3.1181,-3.0015,-3.0056,-2.9953,-2.9255,-2.9067,-2.8994,-2.8994,-2.7769,-2.6557,-2.5642,-2.4722,-2.419,-2.419,-2.419,-2.419,-2.419,-2.419,-2.419,-2.419,-2.419,-2.419,-2.419,-2.419,-2.419,-2.419,-2.419,-2.419,-2.419,-2.419,-2.419,-2.419,-2.419,-2.3633,-2.2723,-2.2652,-2.1889,-2.0778,-2.057,-2.0357,-2.0137,-2.0035,-1.9536,-1.8927,-1.913,-1.8657,-1.798,-1.8059,-1.8031,-1.7929,-1.7845,-1.7811,-1.7743,-1.7455,-1.7126,-1.6866,-1.6815,-1.6328,-1.6067,-1.6763,-1.6866,-1.6917,-1.7296,-1.7216,-1.7219,-1.7549,-1.6673,-1.6224,-1.7277,-1.6236,-1.5539,-1.6224,-1.5724,-1.5293,-1.5293,-1.5299,-1.5202,-1.4953,-1.5056,-1.5066,-1.4944,-1.4925,-1.4854,-1.4654,-1.4542,-1.4378,-1.418,-1.3817,-1.3509,-1.3257,-1.2958,-1.2504,-1.1921,-1.1703,-1.0911,-0.9644,-0.9313,-0.926,-0.9377,-0.9128,-0.9326,-0.9792,-0.9792,-0.9792,-0.9792,-0.9868,-0.9905,-0.9905,-0.9905,-0.9993,-0.9999,-3.0155,-3.0411,-3.0528,-2.994,-3.0332,-3.04,-2.9411,-2.9417,-2.9402,-2.9049,-2.8994,-2.8994,-2.8994,-2.7567,-2.6282,-2.5476,-2.4649,-2.419,-2.419,-2.419,-2.419,-2.419,-2.419,-2.419,-2.419,-2.419,-2.419,-2.419,-2.419,-2.419,-2.419,-2.419,-2.419,-2.419,-2.419,-2.419,-2.4171,-2.356,-2.2924,-2.2243,-2.1224,-2.0578,-2.013,-1.9315,-1.9148,-1.9333,-1.8927,-1.8572,-1.8352,-1.8758,-1.8403,-1.7879,-1.8285,-1.8132,-1.7811,-1.7811,-1.7811,-1.7766,-1.7618,-1.732,-1.7027,-1.6841,-1.6436,-1.6163,-1.6448,-1.6528,-1.6607,-1.6952,-1.6481,-1.6106,-1.6518,-1.5608,-1.5025,-1.5715,-1.5307,-1.4973,-1.5236,-1.5108,-1.4953,-1.4827,-1.4863,-1.4831,-1.4595,-1.4715,-1.4748,-1.4579,-1.46,-1.4521,-1.4323,-1.4062,-1.3821,-1.3654,-1.3341,-1.3092,-1.2911,-1.2454,-1.2106,-1.1875,-1.1454,-1.0913,-1.0271,-0.9966,-0.9764,-0.9677,-0.9578,-0.9679,-0.9905,-0.9905,-0.9905,-0.9931,-1.0244,-1.0558,-1.0819,-1.0595,-1.023,-0.9787]}]]